GFSSGP_250_rhum_000.txt.gz
RH
34 31 23 21 25 28 37 38 31 28 26 22 26 52 50 62 82 87 99 85 79 66 54 62 58 59 56 53 50 52 49 88 99 73 57 50 78 89 55 46 41 36 37 33 27 24 22 22 19
34 31 26 31 29 29 27 23 20 23 24 23 30 41 44 82 100 98 98 100 93 87 70 56 65 68 60 57 54 52 58 70 100 89 64 95 82 72 59 62 51 47 49 41 39 32 30 26 23
35 31 28 23 20 19 18 16 16 17 18 22 28 34 62 100 100 100 100 100 100 95 86 70 54 50 59 65 55 52 51 61 93 98 91 99 69 80 92 64 52 55 57 48 40 34 26 23 19
19 19 15 13 14 14 16 15 15 15 17 24 31 42 55 99 100 100 100 100 100 100 98 88 68 64 58 55 54 52 48 56 74 73 79 100 100 100 100 100 88 67 52 43 38 36 26 24 24
13 13 13 13 13 14 14 15 15 17 19 22 32 39 100 100 100 100 100 100 100 100 100 95 91 91 80 77 70 73 59 55 65 45 44 94 100 100 100 92 75 42 43 58 49 32 29 26 22
12 12 11 14 14 13 12 14 15 18 18 17 21 28 90 100 100 100 100 100 100 100 100 100 100 91 89 91 76 71 78 71 90 73 63 67 73 94 100 73 50 40 50 42 37 38 32 25 22
16 17 20 20 20 15 12 11 13 14 15 16 20 27 40 89 100 100 100 100 100 100 100 100 100 100 96 91 91 87 80 83 91 98 99 100 100 100 100 75 62 58 54 45 41 31 30 32 32
19 18 25 26 22 15 12 11 12 13 12 14 16 21 26 70 99 100 100 100 100 100 100 100 100 100 100 100 99 98 94 80 84 87 98 100 100 98 91 84 71 57 47 41 36 31 31 34 27
22 22 28 26 22 17 12 10 11 12 12 12 14 17 20 22 31 91 100 100 100 100 100 100 99 100 100 100 100 100 100 91 81 100 87 100 78 73 73 80 50 47 40 44 35 32 34 40 29
24 26 29 27 24 22 15 13 14 13 15 15 14 14 17 19 24 48 100 100 100 100 100 100 98 97 100 100 100 100 93 92 96 99 100 97 80 63 65 55 44 50 49 46 36 31 32 36 18
29 30 31 31 25 25 25 22 15 19 16 16 14 12 15 18 20 26 31 95 100 100 100 100 99 99 98 100 100 100 99 82 95 96 88 81 76 67 53 59 62 61 56 50 42 35 33 22 27
35 32 32 38 28 22 20 22 23 22 24 17 14 14 15 18 19 21 26 30 58 92 100 100 98 98 96 92 100 92 90 97 93 80 70 71 71 61 73 78 71 62 62 60 40 42 27 28 48
42 38 35 44 40 28 20 18 24 27 27 23 19 14 14 16 18 19 20 24 27 34 64 100 100 98 95 99 100 98 85 90 95 91 86 87 80 82 76 82 68 55 63 52 49 31 27 52 69
45 50 51 39 45 42 28 20 16 25 30 26 22 17 15 14 18 18 19 20 21 25 29 58 91 99 95 91 93 96 88 79 86 86 88 84 84 84 88 75 57 50 65 64 39 23 43 68 70
48 40 47 53 48 40 35 29 25 24 21 29 24 20 16 15 14 19 20 22 20 22 24 24 38 65 100 94 78 82 89 84 95 97 100 87 83 91 100 71 64 55 69 48 20 46 72 72 70
50 46 44 47 45 40 34 37 34 28 20 24 27 22 20 17 16 18 20 22 25 19 20 22 24 38 70 87 88 78 61 69 77 95 95 85 100 100 84 73 72 65 60 24 23 53 57 67 66
75 57 54 44 42 40 35 33 37 27 25 23 27 26 23 20 18 20 23 23 23 24 24 27 35 31 65 92 84 96 77 83 89 99 100 100 100 100 85 87 76 66 28 17 43 37 38 37 28
86 60 52 50 52 43 38 35 42 34 25 26 23 25 27 26 22 22 21 24 25 25 26 29 35 30 25 40 76 88 94 94 97 100 100 100 100 100 89 84 76 25 17 36 35 19 22 24 25
75 75 58 64 55 55 38 32 43 40 28 27 27 22 24 26 27 23 25 27 26 26 26 28 35 32 33 31 28 23 28 38 47 79 86 100 100 95 78 70 26 16 30 28 21 23 25 27 26
71 61 50 54 54 52 48 36 38 42 41 35 36 27 23 24 29 24 25 28 28 28 28 31 32 33 45 35 30 28 43 96 100 100 100 100 92 82 54 20 19 30 32 26 27 28 26 27 27
68 75 79 65 56 51 47 40 35 49 42 40 42 36 33 28 28 29 25 27 29 30 32 32 33 30 40 31 28 40 63 92 100 100 97 80 55 32 20 28 38 30 28 31 30 30 28 28 26
66 86 81 70 63 56 50 35 44 47 48 57 56 45 37 38 30 32 29 26 28 28 34 35 34 29 33 27 25 32 35 78 82 80 45 32 23 36 43 43 32 29 30 32 31 29 30 30 28
54 59 60 75 67 56 57 28 42 47 53 64 72 53 46 47 44 34 34 29 27 29 32 36 39 30 32 28 27 25 45 56 70 36 25 27 44 47 38 31 29 28 29 31 32 33 35 33 31
43 48 47 48 46 29 46 26 34 62 53 71 76 62 61 78 74 52 36 35 31 35 38 38 34 30 30 28 27 30 48 71 43 28 33 42 37 34 32 30 30 32 33 31 33 37 37 34 33
32 33 27 23 22 13 32 26 37 58 98 74 86 70 62 67 91 99 56 38 34 38 44 44 33 30 31 28 30 33 61 63 36 32 32 36 33 31 32 34 36 34 32 32 36 37 34 33 30
16 15 13 14 13 13 21 18 28 40 80 99 98 80 70 80 94 100 84 43 41 39 47 45 43 32 30 30 33 40 72 57 38 35 32 32 33 33 35 38 35 34 32 35 38 35 32 31 30
9 14 21 14 13 12 16 21 29 34 48 85 100 88 76 75 83 74 64 50 43 41 48 49 49 35 32 31 34 52 74 57 40 36 34 35 34 35 40 41 36 34 39 38 36 33 32 34 33
4 7 10 11 13 13 17 23 24 42 53 59 100 91 82 78 83 63 71 58 45 42 45 54 49 38 35 33 39 56 73 57 41 38 38 37 38 35 34 33 37 43 44 40 34 36 36 34 31
3 3 4 6 7 9 12 17 25 40 50 65 90 91 79 75 85 70 75 65 43 45 48 51 46 40 39 40 48 61 68 57 46 42 40 38 38 38 40 38 38 39 38 39 42 38 35 31 28
4 3 4 5 6 4 5 11 30 33 40 53 78 84 74 79 91 82 83 60 39 40 43 49 44 41 41 47 54 56 66 60 50 44 43 39 35 37 38 42 44 41 44 47 43 37 32 30 27

GFSSGP_250_rhum_003.txt.gz
RH
35 31 35 36 24 30 39 30 28 24 32 31 30 20 20 25 29 37 69 75 80 61 73 78 68 62 57 52 56 64 59 57 55 54 57 95 90 81 56 91 78 76 61 53 45 42 35 31 30
40 38 33 32 23 30 32 33 29 23 21 28 24 32 28 24 21 30 71 85 96 95 74 79 79 74 69 60 56 62 60 60 55 56 56 58 75 79 64 100 77 75 70 73 64 49 59 38 28
33 31 25 24 27 39 38 27 24 24 21 24 22 20 32 33 31 32 58 94 100 100 100 90 82 93 85 70 62 61 54 48 46 47 52 65 69 71 60 98 100 96 98 98 90 69 44 31 26
35 29 27 29 40 34 34 28 26 23 24 24 24 20 20 23 28 39 60 95 100 100 100 100 98 98 97 93 78 66 57 45 43 50 50 45 63 75 61 69 95 100 100 95 88 61 41 40 34
35 28 24 17 17 21 24 23 23 20 18 16 15 15 14 17 25 32 65 91 97 100 100 100 100 100 100 100 96 91 73 58 50 42 44 49 39 56 45 54 66 53 91 96 75 56 61 52 37
22 15 10 10 11 12 14 17 16 13 12 12 13 13 14 15 19 27 42 97 100 100 100 100 100 100 100 100 100 100 91 76 60 59 49 48 44 46 54 61 56 58 87 100 88 79 57 38 36
10 10 12 14 15 11 11 11 12 12 10 10 10 13 15 17 18 22 30 60 87 100 100 100 100 100 100 100 100 100 100 93 84 83 78 74 68 56 64 76 95 100 100 95 81 76 55 41 41
19 17 19 20 16 14 11 11 10 11 10 9 10 13 15 17 19 18 22 34 53 87 100 100 100 100 100 100 100 100 100 100 95 88 87 86 80 69 55 88 99 98 81 67 77 62 48 44 48
21 23 28 21 17 16 10 11 13 14 15 11 11 14 15 14 16 18 20 23 30 95 100 100 100 100 99 100 100 100 100 100 100 100 100 100 98 95 95 100 94 93 86 78 65 54 52 56 53
25 22 29 27 22 20 16 13 13 18 18 15 12 12 13 14 15 17 19 23 30 48 76 72 84 100 100 98 100 100 100 100 100 100 100 100 100 97 95 96 97 97 92 84 69 58 59 61 50
35 31 34 36 28 24 18 19 16 19 20 16 13 12 13 13 14 16 20 21 21 26 73 87 85 99 100 100 100 100 100 100 100 100 100 100 100 88 85 81 80 79 74 81 80 61 63 54 45
41 36 37 42 33 24 21 21 22 22 27 17 14 13 13 12 13 14 15 19 21 19 19 31 54 79 84 84 86 88 100 100 95 81 91 97 100 98 99 99 86 88 90 89 71 69 56 57 46
38 40 44 45 43 34 27 23 22 27 24 18 17 15 15 15 14 12 13 16 20 23 20 19 20 62 96 92 79 85 87 86 81 83 82 82 90 94 88 90 100 96 88 82 71 65 64 63 54
92 50 44 45 51 45 34 30 26 31 26 20 17 16 16 19 19 14 14 14 16 18 21 19 20 21 33 61 78 90 83 85 80 76 74 76 88 100 87 81 81 89 97 85 73 67 72 65 54
100 84 55 43 42 45 45 43 37 29 30 28 20 17 18 19 20 23 16 14 16 17 17 19 19 20 24 26 29 38 51 73 71 63 61 77 83 100 94 94 93 96 98 95 73 81 80 71 48
100 100 67 57 42 39 39 40 41 38 34 37 29 20 17 19 22 25 24 23 16 18 16 17 19 20 19 18 25 26 44 56 70 64 64 64 68 61 73 91 87 86 100 100 92 97 84 56 23
100 100 100 79 77 57 47 39 40 38 37 36 38 36 28 23 21 26 27 25 24 20 19 18 19 21 23 22 18 49 38 42 43 56 67 54 47 53 61 90 95 100 100 100 100 91 66 26 26
99 100 100 98 97 82 66 47 59 47 47 38 32 37 36 30 25 22 25 30 27 25 20 19 23 25 26 23 20 18 22 31 29 71 86 87 89 99 96 100 100 100 100 100 99 82 31 28 24
84 71 95 100 96 93 64 47 45 55 49 46 36 36 35 32 27 23 22 28 30 27 26 22 21 25 28 26 23 23 39 54 44 26 28 24 34 56 78 100 100 100 100 100 81 35 28 32 25
74 59 85 100 100 86 74 60 66 60 64 56 45 38 41 38 31 26 23 24 29 31 28 28 25 23 27 31 31 28 37 53 47 28 23 31 70 96 100 100 100 100 97 65 25 26 33 27 27
100 100 86 73 79 74 78 82 74 83 64 58 59 59 48 43 39 32 26 24 26 31 31 28 29 26 25 45 56 53 39 48 49 28 30 55 84 100 100 100 86 60 36 29 34 32 30 27 27
94 79 64 64 64 69 75 57 58 61 79 61 64 68 67 51 45 40 32 27 27 29 33 30 30 32 27 32 69 43 30 44 33 27 35 33 69 94 91 59 33 32 38 40 39 32 29 26 26
52 56 50 45 41 38 42 37 50 87 99 84 74 75 65 60 52 52 39 27 28 28 32 35 31 35 37 33 48 56 47 43 28 26 25 33 67 78 46 30 41 44 44 36 31 29 28 28 31
48 42 35 34 32 24 34 32 38 78 100 96 88 80 73 61 61 51 41 31 30 34 34 35 34 33 38 43 41 38 42 34 31 28 27 45 67 59 31 36 43 37 34 33 32 30 32 35 36
45 37 31 32 34 31 39 36 37 51 63 86 92 83 83 73 75 52 50 38 46 43 43 38 37 33 37 45 46 34 30 32 33 29 34 57 75 51 36 32 34 35 34 34 33 33 36 39 38
39 25 23 20 17 14 25 25 47 52 76 76 100 70 62 72 71 62 54 42 62 71 57 50 40 39 38 47 47 41 32 31 33 32 41 70 73 55 43 36 35 36 36 34 34 36 40 36 32
21 12 8 6 6 7 10 17 29 40 52 77 81 100 67 67 74 65 57 47 82 78 69 57 46 43 42 50 51 42 38 33 34 35 44 70 72 60 48 46 41 37 36 38 38 39 40 39 37
6 5 4 3 3 5 10 16 26 23 25 42 72 100 95 70 86 77 70 46 56 86 83 76 56 45 45 53 54 48 44 36 36 38 42 63 74 63 53 48 45 43 40 38 37 36 37 36 36
22 7 2 2 2 3 6 12 20 15 16 28 61 96 100 72 90 77 82 62 56 69 70 60 63 56 48 53 54 54 49 41 42 38 41 56 71 70 58 51 48 46 44 42 42 42 43 41 41
19 8 5 2 2 2 5 11 14 13 12 20 38 73 100 86 68 80 78 83 76 80 63 53 53 59 55 50 52 57 54 48 43 42 40 43 61 80 72 61 54 49 48 48 48 50 47 43 44

GFSSGP_250_rhum_006.txt.gz
RH
36 34 35 40 32 42 32 27 29 28 31 39 29 36 43 47 46 39 42 64 75 58 45 52 57 52 61 72 67 69 70 62 50 58 58 54 54 53 48 61 68 61 68 88 81 73 70 61 55
30 33 39 50 47 39 42 32 25 24 25 29 29 24 26 32 36 35 31 37 66 74 53 62 71 58 56 82 76 69 71 72 68 78 67 60 51 54 59 63 80 69 72 91 97 91 90 79 86
31 34 34 37 32 32 36 35 28 27 22 25 24 23 23 30 24 24 28 30 42 59 84 57 56 75 62 77 83 79 76 75 73 72 76 72 61 57 62 65 60 53 52 62 90 100 100 100 81
24 25 27 29 31 28 29 28 29 26 25 23 18 19 20 24 24 26 26 24 32 43 60 85 73 72 80 78 94 90 83 80 75 74 75 71 57 54 52 53 54 57 54 53 56 53 51 43 44
42 37 34 42 34 27 29 23 19 18 19 17 16 17 14 20 24 26 28 29 32 48 46 65 92 96 98 94 97 98 96 92 86 77 76 71 68 57 51 47 48 50 51 52 46 50 61 45 73
48 46 41 50 42 30 26 22 21 18 15 15 15 15 17 20 28 29 31 32 31 41 51 67 90 100 100 100 100 100 100 100 100 93 81 78 78 77 67 58 50 53 50 58 56 70 85 100 88
66 58 59 53 45 32 26 22 21 16 16 18 21 22 24 26 25 22 20 21 23 25 48 66 89 100 100 100 100 100 100 100 100 100 97 81 70 68 68 67 60 63 62 64 69 100 83 89 79
57 56 49 28 26 24 24 21 19 16 15 14 14 15 17 17 15 12 14 15 16 17 22 36 60 100 100 100 100 100 100 100 100 100 100 100 99 90 80 81 73 77 77 76 92 100 91 90 81
47 26 15 18 16 14 14 13 10 10 11 11 11 12 12 12 12 11 12 13 14 16 18 22 35 54 100 100 100 100 100 100 100 100 100 100 100 100 98 94 98 100 98 100 100 100 100 93 91
35 26 22 17 18 17 14 12 11 13 13 13 13 13 12 10 9 8 9 13 14 17 17 20 24 29 41 92 95 100 95 100 100 100 100 90 92 100 100 100 100 100 100 100 87 80 78 75 74
43 40 40 43 34 24 18 18 16 17 17 14 12 12 16 15 10 10 9 10 14 14 14 14 16 20 27 41 45 92 100 100 100 99 90 96 96 97 100 100 100 100 100 100 98 94 95 90 89
61 57 49 49 42 35 25 21 20 18 22 16 17 13 13 17 17 14 12 10 11 13 14 15 16 18 23 27 71 79 88 100 100 100 100 100 100 100 100 100 93 91 84 95 91 91 90 86 88
70 75 57 58 58 43 31 27 23 27 23 22 21 16 18 19 18 16 14 12 12 13 14 14 14 17 20 26 37 68 71 68 73 80 95 92 93 91 92 90 88 81 77 69 85 97 80 82 81
62 72 67 62 80 78 50 32 29 28 28 28 26 25 23 24 21 18 19 17 13 12 14 13 13 14 17 19 20 24 48 67 61 61 60 77 74 79 78 79 81 77 76 70 75 90 82 75 88
73 58 62 66 71 99 76 49 38 38 33 39 33 30 27 28 26 22 20 21 21 19 15 14 14 13 15 16 19 20 20 22 35 52 69 66 70 72 68 74 74 66 67 70 79 87 80 83 80
83 78 53 58 65 87 94 78 53 36 37 41 40 37 31 34 32 25 23 22 22 23 22 21 16 14 14 17 18 19 22 21 21 24 31 39 41 41 40 49 59 61 61 64 68 80 79 94 100
100 93 90 87 61 82 100 91 74 59 44 35 35 36 38 36 36 37 26 21 21 23 25 24 21 18 16 17 18 19 20 20 24 31 36 34 31 26 26 39 49 67 82 80 80 87 99 99 100
100 91 72 81 95 56 53 100 100 80 77 61 44 40 36 38 39 35 37 29 22 23 22 23 24 23 18 17 18 25 45 36 30 46 35 27 16 21 25 51 70 92 100 100 100 100 100 100 100
94 98 93 86 92 86 64 96 100 100 100 100 97 66 40 38 48 38 34 35 31 28 25 20 18 25 24 21 17 18 48 40 48 36 22 18 23 33 28 24 25 25 38 66 85 86 100 100 98
99 100 100 94 96 92 84 70 86 100 100 100 94 74 57 56 48 48 36 33 35 34 30 25 22 19 23 23 21 33 53 66 70 40 27 22 33 42 39 28 31 67 98 100 100 100 100 98 84
99 93 90 84 77 81 80 63 73 78 98 100 100 99 88 80 68 54 47 38 34 34 33 27 24 21 20 24 24 32 50 60 55 49 42 28 29 44 45 30 38 72 90 100 100 83 71 45 35
88 93 87 93 97 89 83 63 86 87 97 97 100 100 100 82 68 63 54 49 43 38 32 28 25 23 22 23 26 28 40 44 54 51 46 46 47 40 36 28 38 42 81 99 66 40 30 33 50
93 99 97 98 82 72 85 52 42 70 90 99 82 87 96 88 76 67 68 55 53 40 38 31 27 24 23 25 29 31 53 52 46 50 49 53 40 39 29 26 28 35 62 61 38 34 45 44 34
84 78 76 65 56 40 47 34 28 49 54 64 61 70 80 78 69 57 73 54 52 48 46 37 32 26 25 27 31 38 66 73 60 50 62 52 38 44 30 30 27 33 53 52 33 36 40 39 37
63 57 56 52 48 42 34 29 26 36 41 44 62 73 65 63 65 65 73 61 64 59 54 41 36 28 27 31 32 40 53 72 74 74 64 51 51 40 33 34 29 33 48 55 40 38 35 39 42
82 73 58 44 44 38 26 22 24 32 38 46 46 50 50 52 54 60 64 57 64 67 55 48 39 33 29 35 38 61 59 57 73 77 67 55 49 38 35 34 30 34 52 61 47 42 44 44 44
53 53 46 35 27 18 14 11 9 15 26 27 40 49 57 46 43 56 82 74 87 82 68 54 45 39 36 43 46 50 46 59 67 62 58 54 47 39 37 34 30 32 59 64 56 50 48 49 52
49 56 44 27 9 6 6 5 5 6 9 15 15 33 57 59 49 45 75 87 80 66 78 71 58 43 52 64 71 66 51 82 78 73 60 61 55 45 38 33 30 33 55 62 64 59 56 54 51
72 77 66 33 12 5 3 2 2 3 5 8 11 20 44 65 62 56 66 96 92 70 73 78 61 49 72 86 79 76 64 73 78 76 64 61 55 51 41 31 31 39 42 54 66 77 76 68 65
79 48 31 24 14 5 2 1 2 2 2 5 8 14 37 65 70 70 66 98 96 88 84 70 58 50 80 91 89 91 81 70 68 59 62 64 57 53 41 33 34 38 37 45 54 58 69 70 61

GFSSGP_250_rhum_009.txt.gz
RH
34 40 50 50 56 60 62 59 44 37 35 32 33 34 38 43 39 42 51 66 66 56 47 39 55 52 49 45 36 32 28 23 41 53 59 55 50 47 44 45 60 54 42 35 37 38 47 71 77
27 30 39 44 44 53 54 49 46 43 43 38 34 34 35 37 44 38 38 43 57 58 56 44 42 49 51 47 39 50 41 37 36 58 61 62 58 57 63 56 52 51 50 51 56 59 50 55 80
27 28 29 49 47 43 36 36 32 34 38 36 34 31 27 30 31 37 36 40 40 37 46 42 36 40 52 56 52 52 56 52 48 53 70 74 66 68 70 59 54 58 62 67 63 57 52 54 53
22 22 25 24 35 35 38 30 28 29 28 31 30 32 29 26 24 26 29 28 27 29 30 35 37 33 45 60 57 65 76 62 66 77 75 82 82 78 75 75 66 60 58 60 63 56 53 55 55
30 29 25 28 29 27 27 28 29 36 43 36 32 30 31 28 25 22 24 27 27 31 33 31 29 31 36 58 85 71 79 87 80 76 87 85 88 84 84 85 79 70 65 56 53 44 45 47 45
44 45 44 52 27 30 30 27 30 28 26 28 28 27 27 28 26 23 22 26 30 38 37 47 36 34 39 74 77 75 94 94 91 86 95 96 92 91 94 92 85 78 70 57 56 62 54 48 49
76 70 65 69 61 37 33 25 32 28 25 27 24 23 22 20 20 23 22 27 33 37 42 47 55 51 51 59 100 92 100 100 98 97 95 97 100 99 93 99 98 93 84 71 66 63 72 72 74
78 77 91 91 72 56 38 37 37 31 29 24 34 24 18 19 22 23 24 24 27 29 38 39 46 52 51 54 76 100 100 100 100 100 100 100 100 100 100 100 100 98 99 98 93 75 55 83 100
73 75 99 88 72 75 61 57 47 50 41 33 30 28 21 21 20 18 18 19 22 25 28 29 29 33 32 38 43 69 100 100 100 100 100 100 100 100 100 100 100 100 100 100 98 84 100 100 98
80 80 95 78 69 67 63 58 50 42 36 28 21 20 18 16 15 14 13 13 14 15 17 18 15 14 13 15 18 26 59 93 100 100 100 97 92 100 100 98 100 100 100 100 100 100 100 100 100
78 88 80 80 66 58 52 46 44 34 20 16 14 13 12 11 12 11 10 10 10 10 12 12 12 12 12 13 14 16 18 44 90 100 100 100 100 100 100 98 100 100 100 100 100 98 100 100 100
69 75 76 65 60 51 44 36 30 24 17 13 14 13 12 12 13 12 12 12 12 12 12 10 8 8 11 12 16 17 21 22 26 45 75 100 100 100 100 100 100 100 100 100 100 100 100 96 82
77 74 69 61 60 56 46 42 37 33 28 19 20 18 18 16 18 17 16 16 13 16 17 16 12 10 10 13 20 18 19 20 20 23 30 54 77 83 100 100 100 100 100 100 87 85 79 75 73
91 77 70 60 66 63 57 56 52 45 37 30 29 28 21 19 19 18 18 17 16 15 17 17 17 14 12 12 14 27 17 21 23 27 31 45 60 68 71 86 78 83 80 75 74 67 67 71 68
87 85 80 79 58 64 63 67 61 59 53 54 42 32 27 28 29 30 26 22 21 20 20 19 18 16 14 13 13 14 21 20 20 24 25 25 37 56 71 72 65 64 62 62 55 58 58 56 58
97 93 94 94 78 62 63 66 68 66 86 80 62 59 46 38 37 34 33 28 24 21 22 21 20 20 17 15 14 14 20 18 17 20 20 21 20 22 23 28 33 42 47 55 47 44 44 46 53
99 100 100 100 98 85 73 59 54 58 66 93 76 73 60 53 36 37 35 32 30 26 24 23 22 20 18 17 19 22 21 31 30 28 18 20 22 21 20 22 26 27 28 22 19 30 56 79 88
100 100 100 100 100 99 89 81 88 64 55 70 100 98 76 71 56 50 34 35 32 32 29 29 25 21 19 17 18 19 17 24 23 19 18 19 21 20 21 25 33 31 17 23 28 28 44 47 72
100 100 100 100 100 99 100 99 97 94 77 70 54 57 100 84 61 64 66 45 33 32 32 32 33 28 22 19 16 17 20 24 42 45 34 20 20 24 27 31 31 19 21 33 30 22 22 34 74
98 98 99 100 100 100 100 100 99 89 70 68 82 91 100 100 98 91 66 61 48 38 31 32 32 33 30 26 19 17 33 43 43 46 33 25 29 39 32 35 27 22 25 36 38 27 28 48 69
90 82 79 74 84 93 91 95 94 89 95 89 90 85 93 100 100 100 91 72 65 56 44 32 36 31 30 30 25 22 21 25 32 40 40 32 40 42 36 47 39 27 26 26 36 27 28 35 55
97 96 86 72 71 74 83 78 90 97 100 90 92 99 90 80 70 95 100 91 90 81 62 46 40 38 29 31 28 25 24 24 29 32 46 50 49 59 58 56 52 39 32 36 30 26 24 24 49
100 100 95 98 93 86 92 79 83 95 100 96 93 79 78 69 72 80 73 82 90 83 64 51 49 50 36 33 32 30 27 23 26 32 34 48 56 67 72 60 58 52 51 45 38 26 22 24 50
100 100 100 91 86 77 97 72 62 92 95 91 92 71 68 59 56 68 91 76 80 74 78 71 61 59 49 41 35 33 29 26 24 31 36 39 63 82 83 77 72 70 64 51 42 27 24 26 42
100 92 91 94 98 88 76 59 54 80 52 41 44 46 48 41 60 88 76 92 86 81 76 87 77 61 56 46 40 37 37 31 27 34 40 38 53 74 74 67 67 81 72 51 46 30 29 29 36
100 100 84 50 43 41 44 43 47 43 39 30 27 28 32 35 46 55 63 80 81 82 71 84 82 68 67 57 54 46 42 37 42 65 50 50 73 80 87 91 74 92 85 59 51 32 30 31 37
47 56 84 100 85 57 48 40 28 33 21 20 19 18 23 26 31 41 43 49 58 66 66 81 78 81 73 74 63 55 51 58 80 83 90 92 88 90 92 90 78 97 90 70 54 37 33 33 39
100 100 95 82 60 47 31 17 14 15 13 10 8 8 11 18 26 34 43 42 44 49 56 77 80 80 67 83 71 64 65 70 73 72 75 75 77 90 85 83 79 87 82 68 55 42 37 36 34
90 71 63 75 64 42 30 34 4 6 7 8 5 3 5 8 10 24 36 45 38 44 51 62 73 81 75 82 68 80 84 59 63 79 76 88 96 84 72 68 78 71 66 65 60 51 40 38 34
66 75 77 80 71 38 27 21 12 5 4 2 2 2 2 4 11 16 28 45 50 47 50 61 70 83 96 83 76 87 75 92 87 84 94 94 87 83 77 72 72 72 75 76 71 57 47 41 38

GFSSGP_250_rhum_012.txt.gz
RH
79 94 81 72 63 58 58 57 59 52 44 41 46 38 34 38 35 36 38 40 42 37 34 28 30 35 30 23 24 25 32 36 23 21 20 18 23 37 44 47 46 45 45 42 38 50 51 41 38
58 58 66 67 59 54 57 51 55 55 50 54 49 45 39 34 32 32 34 38 35 38 35 30 39 42 30 36 31 32 38 39 35 33 23 24 21 23 36 50 48 49 50 53 47 40 41 41 42
59 51 54 48 40 45 46 43 47 44 63 52 51 49 44 39 43 37 32 35 34 36 36 34 31 27 31 34 35 33 41 44 45 52 47 39 45 36 35 51 66 66 69 66 58 49 44 52 55
56 42 41 42 37 31 36 30 42 44 44 46 52 52 41 48 51 44 38 35 33 33 44 40 38 39 28 24 26 35 34 36 44 56 69 62 54 62 56 57 71 74 76 76 74 69 61 53 52
41 38 28 28 34 32 30 26 43 34 43 42 41 42 32 36 46 46 42 36 32 30 31 29 30 37 35 36 31 33 35 43 45 53 72 92 82 72 70 79 80 87 85 77 83 83 80 74 61
44 32 25 30 20 22 25 26 27 33 35 36 40 33 29 36 28 29 36 35 32 34 34 30 33 28 31 32 39 40 31 41 51 72 73 80 100 97 91 79 92 94 95 98 94 91 87 82 78
56 50 32 20 30 27 28 22 20 29 26 32 32 35 36 31 37 38 38 35 31 32 34 31 31 26 25 30 33 42 42 41 55 83 99 100 96 98 97 98 91 94 94 97 96 99 91 86 77
65 58 51 60 58 59 39 30 27 27 34 29 29 36 28 29 44 37 32 28 25 22 23 22 20 16 19 24 36 44 47 52 50 60 83 100 100 100 100 100 100 100 95 100 100 100 100 100 92
83 63 80 81 63 69 44 37 38 48 38 38 35 38 26 24 35 29 30 29 24 20 19 19 17 19 23 30 33 38 48 49 56 62 63 63 92 100 100 100 100 100 100 100 100 100 100 100 100
94 87 100 83 62 64 64 56 54 58 52 53 56 50 35 39 39 44 36 31 27 25 20 20 21 22 22 24 27 31 34 40 46 53 59 63 55 78 100 100 100 100 97 100 100 100 100 100 100
100 100 98 85 74 68 68 60 55 50 53 60 55 65 54 55 47 41 34 30 25 19 15 16 15 15 12 12 14 17 23 23 24 30 35 35 41 48 82 100 100 100 100 100 96 89 100 96 100
100 100 100 97 82 77 70 55 63 60 59 54 59 58 51 47 44 36 26 21 16 13 12 11 10 13 15 12 10 12 16 14 14 15 13 14 16 20 38 69 93 85 100 98 100 100 100 100 100
100 100 100 100 98 100 76 69 63 58 52 56 53 45 37 31 29 26 18 15 14 13 12 12 10 11 10 12 19 21 14 14 15 17 15 13 17 23 23 25 36 70 78 92 84 97 99 100 100
100 100 100 100 100 96 80 79 61 56 57 49 44 43 40 34 30 25 21 16 14 14 17 14 14 13 15 13 14 18 23 19 17 16 19 22 21 20 19 20 22 25 30 33 60 56 73 80 81
100 100 100 100 100 99 66 58 71 70 59 58 52 49 47 45 37 32 25 22 19 16 18 17 18 15 13 15 18 20 18 18 18 17 21 20 29 24 21 24 29 30 35 49 49 62 68 58 53
100 100 100 100 100 100 85 65 57 62 63 59 60 56 59 55 45 39 35 30 26 23 20 20 20 20 17 15 14 20 22 22 19 18 18 16 20 19 19 21 25 25 24 22 23 24 24 25 25
100 100 100 100 100 100 100 87 67 63 60 60 66 61 62 67 63 73 59 53 44 34 27 25 24 23 23 25 22 19 21 23 24 22 19 19 17 16 20 19 19 21 21 22 22 21 27 31 28
89 100 100 100 100 100 100 90 81 72 67 69 68 74 56 56 64 71 71 53 57 54 49 32 31 29 27 29 30 30 23 24 23 22 26 37 36 26 24 22 23 20 19 20 22 21 28 30 19
78 83 98 100 100 100 99 84 92 84 80 90 88 78 80 84 72 59 78 100 100 87 64 38 33 37 30 31 28 24 23 24 25 26 22 24 34 33 35 31 24 23 19 19 19 22 30 21 18
91 88 87 88 100 100 100 100 97 92 88 96 100 100 100 88 76 61 58 60 60 96 92 67 54 48 37 42 36 32 31 30 29 24 22 21 31 31 43 45 34 24 21 23 28 32 35 27 21
78 88 87 84 83 98 97 100 99 100 100 100 100 100 100 100 82 68 55 49 63 95 100 96 77 49 46 40 52 33 32 30 29 32 32 32 35 48 36 35 40 45 36 34 48 45 40 38 28
64 82 90 85 83 80 83 82 100 100 100 100 100 100 99 97 92 74 65 56 47 74 97 100 94 80 55 67 59 45 48 38 33 32 31 32 28 25 32 42 45 46 38 38 55 52 50 52 48
53 90 98 92 85 82 85 72 76 96 92 96 89 76 79 74 85 99 87 73 62 50 62 89 100 100 100 96 88 65 50 47 43 34 29 32 30 27 26 28 32 42 53 56 73 75 76 68 62
84 96 89 97 93 96 92 85 78 100 100 100 81 69 65 72 88 76 67 77 75 58 50 65 85 74 85 96 99 88 50 61 56 44 35 37 34 30 28 28 33 37 44 60 65 75 82 72 68
88 94 100 96 94 100 94 89 100 100 100 91 74 78 72 60 50 51 63 65 63 69 64 56 72 90 79 100 97 94 74 76 68 52 47 45 38 31 30 30 32 35 37 44 60 74 86 86 80
96 100 100 100 100 100 100 99 100 99 74 66 52 47 47 48 43 46 51 60 68 64 58 61 59 79 100 99 86 90 86 75 72 64 56 53 50 44 38 34 35 38 41 41 47 67 82 83 75
100 100 100 100 100 100 99 99 91 69 56 49 36 18 12 12 14 14 21 40 62 60 55 54 49 63 92 99 88 84 100 83 75 76 64 57 56 53 57 56 54 58 49 56 70 89 100 99 86
100 99 94 86 80 88 96 79 53 44 34 26 21 15 15 17 18 17 19 21 24 31 47 48 52 56 73 100 92 78 92 86 83 85 72 66 75 62 52 54 66 77 84 95 91 96 100 98 94
85 88 100 96 77 59 59 50 41 28 24 19 16 9 8 10 7 6 7 12 23 29 32 34 34 41 59 73 85 74 68 65 93 88 81 67 62 56 47 49 62 74 87 92 91 100 97 89 83
100 86 61 72 51 66 70 73 64 40 20 14 9 5 5 6 6 6 6 7 11 21 30 35 33 34 53 62 68 63 61 70 94 94 87 75 72 66 58 70 81 95 99 97 93 96 86 74 56

GFSSGP_250_rhum_015.txt.gz
RH
96 100 100 97 95 89 79 70 63 59 51 52 57 49 40 40 32 29 38 42 38 29 28 29 29 23 21 20 24 24 29 28 23 22 26 25 24 24 22 22 24 33 48 44 40 39 39 36 33
55 86 100 100 100 100 98 89 77 68 66 67 60 56 47 35 42 36 36 34 33 34 33 31 28 28 25 25 24 23 24 27 24 23 28 29 33 46 35 27 21 29 34 39 50 52 50 54 53
41 60 88 89 100 100 100 98 88 78 70 64 60 60 52 39 41 38 36 36 34 34 33 33 31 28 26 25 24 25 24 22 22 23 24 26 32 39 40 50 55 35 30 53 44 54 58 65 68
40 37 63 77 80 81 87 89 89 84 70 60 52 51 50 49 52 42 38 37 37 37 36 35 36 34 29 26 24 25 24 23 21 22 22 27 42 42 43 51 63 70 73 48 60 64 73 82 88
40 36 36 65 81 77 69 63 61 61 60 53 48 45 48 47 46 50 40 44 40 42 41 41 38 35 32 31 29 25 23 21 21 24 31 32 31 38 52 50 68 77 81 78 82 73 84 88 86
43 40 35 43 60 78 76 64 50 54 48 35 30 28 26 31 54 48 46 46 46 41 38 42 45 43 36 33 34 30 28 25 26 26 26 27 35 40 44 64 74 97 98 97 91 85 86 85 91
53 46 41 36 43 51 71 68 45 42 38 35 32 30 29 33 40 52 46 44 42 39 35 32 32 32 35 32 33 33 34 30 31 29 27 28 34 37 60 67 83 87 97 100 100 92 82 79 81
57 42 51 55 72 53 50 58 52 36 28 19 27 39 25 35 44 40 35 36 36 34 34 31 32 37 38 32 29 28 27 27 23 21 22 34 42 49 52 78 100 100 100 100 100 100 99 96 100
79 54 86 100 97 83 40 40 44 37 38 24 26 32 21 23 38 44 32 30 34 37 32 30 32 31 30 27 26 23 22 22 20 19 22 36 48 58 54 54 63 76 98 100 100 100 100 100 100
93 97 100 100 86 88 61 51 45 36 36 24 29 31 35 22 28 46 44 37 28 31 38 36 32 39 33 27 23 21 22 20 20 19 22 26 32 38 46 54 58 58 71 77 88 100 100 100 100
99 100 100 100 92 77 79 68 65 52 57 69 72 59 51 48 39 47 55 50 47 48 45 36 35 35 33 33 30 23 20 17 15 15 18 16 18 20 26 34 47 48 53 55 60 60 69 98 100
92 100 100 100 94 85 92 93 69 65 60 65 66 54 52 48 51 48 43 44 42 43 42 44 40 36 32 28 25 18 14 12 10 11 11 13 14 16 17 18 19 20 22 28 35 43 72 70 90
100 99 100 100 100 98 94 95 85 78 72 69 64 59 52 44 50 44 41 44 45 44 40 35 35 31 22 19 16 14 12 12 11 11 17 15 13 14 14 13 14 14 12 13 17 21 23 50 40
100 100 100 100 100 100 100 99 84 80 82 64 58 57 52 42 44 41 42 43 41 38 33 31 27 25 25 19 15 15 16 12 10 11 13 16 18 16 14 14 14 16 19 19 17 17 19 21 23
100 100 100 100 100 100 100 100 92 97 80 79 75 72 60 55 40 51 45 40 35 34 34 35 32 23 20 16 20 18 23 17 14 19 22 24 24 23 21 20 16 14 19 24 24 20 19 22 27
100 100 100 100 100 100 100 100 100 86 80 85 86 97 75 55 48 54 52 43 40 39 41 38 32 28 23 21 23 32 21 36 28 24 23 25 29 28 25 22 20 19 19 20 23 22 19 21 23
100 100 100 100 100 100 100 100 100 100 94 95 84 72 71 65 56 56 54 50 48 45 47 44 45 43 31 32 26 34 42 45 31 32 34 28 23 25 26 24 21 20 19 17 20 21 21 22 20
74 93 100 100 100 100 100 100 100 100 100 100 95 79 69 63 69 65 58 58 63 62 57 53 54 48 41 42 46 48 33 37 42 41 40 40 31 26 27 28 31 25 22 19 19 18 20 20 21
67 78 93 100 100 100 100 100 100 100 100 100 100 100 97 87 79 67 69 64 71 66 54 63 56 80 100 88 52 41 40 38 37 42 40 40 42 36 30 28 30 31 32 37 41 30 28 31 36
92 78 75 70 84 99 100 100 100 100 100 100 100 100 100 100 86 73 76 71 85 96 79 71 66 55 72 69 64 66 66 62 50 71 69 57 38 36 34 31 26 21 22 32 35 40 43 41 36
83 81 73 69 69 76 80 94 100 100 100 100 100 100 98 83 84 83 80 83 89 89 91 86 69 67 57 61 72 75 71 72 72 65 61 59 47 36 35 37 31 29 27 25 32 38 47 61 61
74 75 78 80 72 62 62 65 82 82 89 98 100 100 99 100 100 100 100 98 89 90 98 88 79 64 62 54 62 94 79 64 61 74 88 72 64 58 54 46 35 34 35 30 28 35 45 48 59
88 83 82 75 67 61 58 47 89 89 98 100 100 95 87 83 86 88 84 82 92 85 80 78 65 63 55 58 57 77 81 100 84 72 85 60 56 63 56 48 37 35 31 30 31 27 27 31 33
100 90 74 78 64 56 58 46 67 100 100 100 79 74 86 96 96 83 69 72 80 83 80 81 83 70 67 59 62 65 66 94 92 70 67 65 64 61 61 53 40 35 34 32 29 27 27 29 34
95 86 75 66 60 46 50 52 82 100 97 100 100 98 90 74 60 58 61 70 72 70 66 70 68 74 79 84 76 68 73 82 82 80 71 76 86 73 70 63 60 46 39 36 33 30 28 29 33
69 73 66 50 54 70 77 88 100 100 100 67 64 73 77 72 65 60 46 40 52 71 72 60 61 67 66 70 85 88 74 70 83 96 89 85 84 74 68 78 72 54 48 45 39 35 36 39 40
71 74 81 85 96 96 100 100 100 100 100 100 98 84 64 57 56 44 28 26 31 37 39 46 49 45 59 60 66 75 78 75 82 87 84 86 90 93 84 78 76 70 62 62 57 44 45 51 65
93 98 96 96 100 96 99 100 100 100 96 87 74 56 45 31 24 20 18 17 13 14 20 26 34 36 39 53 55 61 70 82 89 96 100 99 82 78 73 81 84 79 74 65 57 48 47 60 69
99 100 98 100 99 96 85 81 72 65 59 55 43 32 25 22 19 16 12 8 6 7 14 15 20 26 39 55 55 70 78 80 86 88 91 100 93 79 81 89 80 86 73 76 77 62 69 78 80
100 96 94 86 84 72 63 65 55 54 49 37 33 34 22 12 9 8 8 6 4 3 4 5 13 19 24 29 45 61 77 81 75 75 87 90 88 91 80 94 99 90 91 90 85 77 85 83 80

GFSSGP_250_rhum_018.txt.gz
RH
99 100 100 100 72 68 67 51 52 56 60 55 54 51 47 28 26 27 41 34 29 23 26 29 29 26 25 27 30 30 26 23 21 17 16 16 15 16 16 15 18 20 21 21 24 35 41 46 50
68 94 100 100 100 100 95 75 63 56 65 56 61 58 52 45 38 36 35 32 32 28 26 30 31 28 25 25 26 26 26 26 26 25 22 20 24 23 20 24 24 26 32 36 27 24 26 29 36
63 66 72 90 100 100 100 94 95 92 88 71 68 67 57 52 45 40 42 34 38 44 38 32 32 30 30 30 30 28 26 24 22 22 21 23 24 24 26 30 30 34 39 38 41 46 42 32 37
64 57 62 60 80 100 100 94 100 100 100 100 85 71 62 65 60 51 49 46 42 35 36 40 35 31 32 32 30 27 26 24 23 22 22 23 21 19 20 24 31 39 38 44 58 52 56 61 52
54 54 46 52 52 59 71 92 100 100 100 91 91 94 84 78 70 63 54 49 46 43 40 40 42 38 35 34 33 30 29 29 27 24 26 25 24 24 25 25 26 33 45 58 62 63 64 80 72
55 50 46 54 54 50 46 54 77 92 100 92 94 98 98 88 79 67 56 49 46 47 46 44 42 42 40 40 37 36 36 37 33 31 30 31 30 30 29 28 32 30 36 44 51 73 75 74 81
70 70 54 46 40 46 44 38 44 68 80 88 81 77 71 62 63 57 46 39 38 32 32 38 41 38 40 39 39 38 38 37 32 32 33 32 31 31 32 31 27 29 32 37 57 59 67 96 96
66 68 78 60 54 55 47 36 36 40 51 73 83 70 62 53 52 46 35 32 31 35 43 43 52 43 43 48 46 43 40 35 32 33 34 30 26 25 24 22 23 25 24 32 37 46 61 81 81
79 82 96 95 71 83 46 38 34 33 38 39 62 74 68 48 41 35 32 31 35 46 48 53 59 55 60 53 46 37 33 33 35 31 28 26 23 20 19 20 20 19 20 26 40 51 56 56 75
80 87 100 100 99 84 55 50 39 41 45 51 34 58 62 57 43 36 27 27 35 41 41 49 55 59 62 49 39 38 36 32 32 34 31 26 20 20 20 20 18 17 17 18 26 35 41 56 55
93 99 100 100 100 95 81 58 56 54 60 70 41 41 53 50 48 43 34 29 29 35 44 46 51 57 59 58 52 42 38 43 30 25 27 26 25 23 22 17 15 13 13 15 20 22 27 32 36
100 100 100 100 98 100 98 88 76 63 78 71 57 36 48 43 44 41 50 36 37 47 53 38 37 55 54 52 51 44 39 35 30 27 30 27 27 23 17 14 12 11 11 13 15 18 19 18 17
100 100 100 100 94 92 100 100 100 91 80 95 91 65 67 70 70 65 60 62 58 58 49 45 42 41 38 38 37 36 34 33 32 29 26 24 18 15 13 12 11 12 12 12 13 15 15 16 17
100 100 100 100 100 100 100 100 100 99 76 78 88 79 68 86 89 80 76 64 57 53 48 45 46 44 39 39 34 34 34 31 30 27 25 22 18 15 13 11 10 13 13 14 15 13 12 13 16
100 100 100 100 100 100 100 100 100 100 100 98 82 85 87 75 78 82 67 54 53 53 43 43 39 54 62 46 34 31 30 34 36 33 30 26 21 22 19 14 16 18 16 13 16 20 20 17 16
100 100 100 100 100 100 96 100 100 100 100 98 100 92 86 92 80 71 75 68 59 53 48 36 36 43 48 62 52 40 41 42 39 44 31 35 31 27 32 30 24 22 19 19 24 23 22 21 21
100 100 100 100 100 100 100 100 100 100 100 100 100 100 99 89 83 98 92 78 66 58 51 41 37 44 45 54 52 48 74 56 46 39 47 51 57 47 42 41 33 30 29 24 22 22 22 23 24
99 100 100 100 100 100 100 100 100 100 100 100 100 100 100 100 99 89 100 100 81 67 60 55 51 53 49 56 74 66 70 69 92 96 83 50 37 39 46 42 43 43 41 35 27 24 26 26 25
60 80 100 100 100 100 100 100 100 100 100 100 100 100 100 100 100 100 100 88 72 73 70 74 72 62 59 59 60 70 64 68 73 77 74 54 44 43 51 58 51 40 37 37 35 31 28 26 23
64 59 65 79 92 94 100 100 100 100 100 100 100 100 100 100 100 100 100 100 91 84 80 73 78 75 66 66 62 56 70 81 74 57 66 69 90 93 93 80 60 52 46 37 35 34 32 30 26
84 68 57 57 61 60 65 87 100 100 100 100 100 100 100 100 100 100 100 100 100 100 100 96 81 76 74 81 71 72 66 85 100 93 89 93 82 92 72 55 65 66 54 45 39 36 40 42 35
91 98 91 83 62 66 68 64 79 88 98 100 100 100 100 100 100 99 88 98 100 100 100 100 98 100 86 82 94 99 80 61 70 68 61 70 78 97 100 83 68 76 63 52 39 35 34 30 30
95 93 90 86 86 80 86 80 100 86 87 84 81 85 92 97 100 100 100 100 98 98 99 98 96 97 91 80 78 85 99 83 70 82 86 80 97 100 100 80 70 73 71 55 51 46 36 33 35
98 88 88 96 89 87 82 68 80 86 83 71 74 78 70 72 73 72 84 85 77 76 80 80 80 84 85 82 78 77 86 100 85 86 79 78 70 71 89 93 80 76 77 70 63 57 40 42 43
100 93 88 95 94 86 86 71 79 91 91 86 70 57 56 59 62 64 67 71 75 75 75 76 81 77 68 68 73 71 82 100 94 83 93 98 89 83 73 75 84 83 80 78 79 71 58 63 60
98 97 99 98 92 90 87 84 97 100 78 60 61 60 52 49 46 48 59 70 86 94 90 82 74 64 60 57 56 54 60 73 84 82 85 91 100 98 100 87 100 100 90 72 71 77 62 65 70
94 100 100 100 100 88 77 79 90 74 57 36 37 42 52 61 67 68 57 53 50 52 58 61 63 62 56 52 42 46 50 50 67 73 79 91 93 100 100 99 87 100 100 89 72 75 69 67 79
100 100 100 89 72 69 79 80 73 63 73 89 85 63 59 58 62 65 64 54 44 39 40 42 38 39 37 34 30 28 33 44 58 61 64 76 100 100 100 100 97 100 93 90 86 77 76 79 98
99 90 83 77 74 73 86 98 99 100 99 88 73 60 50 44 36 28 23 23 24 24 23 21 22 25 27 26 29 38 42 56 65 72 78 91 100 100 100 100 100 97 91 94 90 79 81 95 93
85 78 86 93 90 99 100 100 100 89 79 63 50 44 38 33 29 26 22 17 18 18 14 15 14 13 11 16 20 23 26 34 52 64 78 88 100 100 100 100 100 100 100 92 100 86 94 100 98

GFSSGP_250_rhum_021.txt.gz
RH
100 100 100 96 64 54 53 47 49 51 46 47 46 45 42 36 30 30 40 29 28 24 24 25 22 23 26 31 29 27 24 20 16 16 18 18 19 18 14 15 15 14 14 14 16 17 18 19 20
81 100 100 100 100 84 73 57 46 50 51 49 49 48 48 49 46 50 53 40 29 25 23 26 29 24 24 26 28 30 29 27 24 23 23 23 22 20 19 18 17 19 20 18 20 20 21 23 28
60 77 98 100 100 100 100 84 57 51 54 56 53 50 54 58 54 53 53 50 43 35 33 28 27 25 25 25 25 25 26 26 27 27 26 24 24 21 21 21 21 20 19 19 22 24 26 29 33
50 55 65 85 100 100 100 100 100 98 68 64 64 59 56 62 60 53 57 57 53 49 41 38 41 36 31 30 29 32 31 30 30 30 29 27 25 25 25 26 27 28 28 27 27 31 35 39 43
48 48 54 67 88 86 91 92 100 100 100 100 90 78 72 67 73 67 66 64 60 56 50 46 45 44 40 38 34 33 34 35 35 35 34 32 30 30 30 28 28 29 29 29 30 29 32 37 39
76 53 57 94 86 70 68 69 91 100 100 100 100 99 100 100 100 95 85 79 76 74 64 56 53 49 43 42 43 42 40 38 40 37 36 33 34 36 35 30 28 30 32 33 31 29 26 26 28
84 60 63 90 93 74 66 61 65 68 89 100 100 95 100 100 100 100 99 91 96 92 86 74 64 52 44 44 41 38 40 38 35 33 33 37 39 39 36 28 28 34 32 26 25 23 21 21 22
92 68 59 91 100 99 73 59 53 59 60 62 68 75 99 100 100 100 100 88 86 79 65 60 52 39 34 33 30 30 32 41 38 38 40 40 42 30 26 27 28 27 26 25 23 20 20 20 20
92 78 75 78 81 83 64 56 54 46 44 47 46 47 49 67 89 98 99 91 73 63 56 54 48 35 34 40 48 42 46 44 42 44 39 33 30 28 29 26 25 26 28 24 19 21 22 21 18
100 100 100 97 89 70 59 55 54 51 49 48 47 47 40 39 53 53 72 88 80 72 52 45 40 36 28 36 45 38 38 45 42 35 30 39 35 34 32 26 28 26 25 24 23 21 22 21 16
100 100 100 100 100 91 66 59 50 54 56 59 55 45 44 36 36 44 44 48 56 67 69 55 41 36 28 30 38 48 41 43 41 43 35 32 38 36 32 30 31 30 28 26 23 21 19 17 15
100 100 100 100 100 92 82 72 66 65 76 64 60 59 46 49 41 42 50 51 52 59 61 58 51 45 37 34 34 38 49 48 37 41 43 37 40 34 31 28 27 25 24 24 23 18 16 14 13
100 100 100 100 100 100 100 93 87 82 71 66 75 63 43 48 64 50 53 53 58 61 57 53 51 55 66 62 59 57 52 49 46 42 39 36 33 31 30 27 25 25 25 24 23 19 15 12 10
100 100 100 100 100 100 100 100 100 100 91 77 72 76 62 46 82 73 76 76 70 64 72 72 78 75 67 67 64 58 53 47 45 44 43 39 34 30 27 26 26 25 24 23 20 18 15 12 12
100 100 100 100 100 100 100 100 100 100 90 87 90 89 89 84 98 100 90 84 90 92 86 84 77 77 79 73 70 63 54 53 52 46 42 41 40 35 33 32 32 31 30 30 23 21 18 14 17
100 100 100 100 100 100 100 100 100 100 96 89 83 100 100 100 98 100 100 90 86 84 92 87 79 74 72 66 62 65 66 62 57 52 55 55 51 45 42 35 36 40 35 33 30 25 21 23 22
100 100 100 100 100 100 100 100 100 100 100 100 100 100 100 100 100 100 98 96 85 72 71 85 86 76 72 65 57 58 64 61 66 75 78 66 67 61 58 57 49 45 43 41 38 32 31 29 25
100 100 100 100 100 100 100 100 100 100 100 100 100 100 100 100 100 100 100 100 100 92 76 68 78 87 77 64 56 54 60 72 59 63 88 96 99 87 80 83 80 56 44 44 40 48 43 36 32
100 100 100 100 100 100 100 100 100 100 100 100 100 100 100 100 100 100 100 100 100 100 94 79 66 88 89 82 72 64 72 59 63 59 49 76 83 79 76 67 55 69 73 70 76 67 56 49 50
100 100 100 100 100 100 100 100 100 100 100 100 100 100 100 100 100 100 100 100 100 100 100 93 89 85 96 92 82 80 82 87 83 67 72 80 93 90 91 96 90 87 89 93 86 66 53 52 52
78 69 67 84 98 100 100 100 100 100 100 100 100 100 100 100 100 100 97 100 100 100 100 98 92 87 95 99 88 76 79 97 100 86 78 62 68 82 87 99 88 91 90 75 65 63 64 65 55
93 91 78 68 62 97 98 100 100 100 100 100 100 100 100 100 100 100 100 95 90 97 94 87 90 90 92 92 100 100 100 86 84 78 72 72 59 85 99 99 100 86 80 86 84 74 76 63 57
98 100 94 85 64 62 63 59 94 82 92 94 97 97 100 100 100 100 100 100 99 100 100 100 100 95 92 93 91 92 94 90 85 89 80 82 82 83 80 100 100 100 98 89 81 80 69 71 73
92 96 96 97 94 91 94 86 100 90 68 66 70 70 68 64 66 77 87 94 97 96 94 93 95 98 100 100 100 100 98 97 86 90 85 98 95 95 92 100 100 100 99 87 81 75 74 72 76
99 91 99 89 90 96 93 90 100 100 99 86 63 57 58 59 62 61 62 62 63 60 60 62 67 69 72 74 77 79 82 89 86 84 80 86 77 91 88 96 99 100 91 90 99 90 96 96 92
100 100 100 97 95 93 93 85 86 91 95 84 74 75 70 61 58 57 55 51 48 46 45 44 50 55 59 62 64 70 77 80 84 79 76 78 79 78 92 97 100 100 100 100 100 100 99 97 99
99 97 97 100 96 93 97 100 88 86 78 68 73 78 70 67 70 58 51 48 46 45 48 48 46 44 46 47 46 47 50 55 70 89 89 90 96 95 82 72 80 87 100 100 100 100 100 100 100
100 100 95 92 90 89 95 95 84 76 78 80 69 65 81 71 53 39 36 37 39 33 29 27 27 27 26 26 28 28 32 38 48 72 85 93 88 91 82 75 70 73 88 100 100 100 100 100 100
100 87 83 90 93 94 98 94 85 83 94 92 89 69 56 52 54 52 47 45 44 40 37 35 34 33 34 34 34 36 38 38 42 49 65 85 98 99 84 76 66 88 100 100 100 100 100 100 100
91 96 87 86 96 98 96 91 94 97 85 78 72 60 54 45 43 40 31 26 23 19 16 16 18 20 20 21 26 29 29 29 33 35 50 63 96 99 97 93 86 95 100 100 100 100 100 100 100

GFSSGP_250_rhum_024.txt.gz
RH
84 100 60 43 34 40 47 51 52 57 38 39 43 42 42 41 28 25 24 24 25 24 24 23 20 17 16 21 24 25 25 26 25 24 23 21 19 18 20 21 22 22 20 17 17 17 17 17 17
52 100 100 73 41 38 41 45 50 48 47 41 40 43 45 48 46 38 35 35 29 30 26 24 22 18 17 18 21 20 20 22 26 24 21 19 18 20 22 24 24 21 21 20 20 20 20 21 21
33 75 100 100 97 93 64 48 44 46 52 48 45 46 47 48 52 46 45 47 44 42 44 46 38 27 23 27 33 31 29 27 25 24 23 24 26 27 28 27 27 24 22 22 21 21 23 24 25
33 34 76 100 100 100 100 100 79 56 54 55 50 50 53 50 50 51 48 49 52 53 52 53 54 50 41 31 29 35 39 37 34 32 30 31 30 31 31 30 29 28 29 29 29 29 28 28 27
39 35 35 75 100 100 100 100 100 98 80 69 66 60 51 51 52 53 52 50 54 59 57 57 59 57 53 49 43 44 45 40 38 39 38 35 37 38 35 35 32 28 27 28 29 26 23 23 26
37 37 33 61 92 85 95 100 100 100 100 99 92 86 69 56 55 60 62 60 58 62 65 63 64 65 63 59 53 51 49 47 43 40 40 42 41 40 39 37 32 31 31 32 29 26 22 21 25
43 38 41 66 56 52 57 76 96 100 100 100 100 92 90 96 91 87 82 83 76 76 72 72 74 72 72 75 70 66 60 53 46 40 38 35 32 36 38 37 37 39 36 32 25 22 21 21 21
48 45 45 62 62 54 43 44 63 76 96 100 100 100 100 100 100 100 100 100 98 93 96 99 100 96 97 91 80 64 56 51 40 33 28 26 29 32 35 34 34 27 24 20 20 22 24 24 27
80 56 53 93 88 82 58 51 52 57 71 79 85 91 97 98 100 100 100 100 98 93 87 82 85 84 86 74 66 56 52 44 33 33 34 33 31 32 31 28 24 22 24 26 26 30 29 27 25
95 97 92 96 100 88 74 70 56 58 67 71 74 75 73 74 76 79 79 77 75 73 82 91 94 88 85 74 63 54 48 44 38 29 27 31 31 34 31 29 24 26 27 26 26 25 26 26 24
100 100 100 100 100 96 72 68 70 55 62 71 73 71 65 62 59 60 59 54 51 53 51 59 59 56 65 73 73 68 54 46 40 38 33 33 34 32 33 31 30 30 32 29 26 27 26 22 23
100 100 100 100 100 100 80 74 79 66 73 73 72 72 66 58 52 52 50 45 41 42 41 39 36 35 36 36 39 59 62 56 51 46 46 50 51 49 44 43 40 35 31 28 27 26 25 24 22
100 100 100 100 100 100 97 91 85 88 73 57 63 62 62 57 53 59 60 52 54 43 39 46 40 38 38 35 31 33 40 45 48 57 57 52 50 49 46 44 42 41 38 34 30 27 24 24 27
100 100 100 100 100 100 100 100 93 100 78 56 56 70 66 66 65 67 87 76 65 67 65 45 42 46 44 41 40 42 55 63 65 65 63 61 56 60 55 51 47 42 33 32 32 29 30 30 31
100 100 100 100 100 100 100 100 100 99 87 77 74 74 82 89 85 86 98 89 72 64 59 57 41 54 79 70 67 73 75 86 76 78 74 68 67 64 61 54 48 46 44 40 42 38 41 37 36
100 100 100 100 100 100 100 100 100 100 100 100 87 95 96 100 100 100 100 100 82 71 73 67 68 59 76 78 80 83 82 85 80 80 82 79 74 71 66 60 66 69 72 64 62 62 62 58 48
100 100 100 100 100 100 100 100 100 100 100 100 100 100 100 100 100 100 100 100 99 95 91 89 81 70 74 85 77 76 74 73 81 79 84 88 70 71 70 67 58 43 53 70 74 67 64 54 49
100 100 100 97 97 98 91 100 100 100 100 100 100 100 100 100 100 100 100 100 100 100 100 100 100 97 90 95 92 88 82 81 82 74 80 87 78 75 72 59 53 44 42 65 72 72 76 72 70
76 100 100 100 100 100 100 100 100 100 100 100 100 100 100 100 100 100 100 100 100 100 100 100 100 100 99 100 97 94 99 93 86 79 71 74 77 75 78 64 49 47 57 61 69 82 88 79 69
58 88 100 100 100 100 100 100 100 100 100 100 100 100 100 100 100 100 100 100 100 100 100 100 100 98 95 100 100 100 93 100 100 100 97 83 79 75 70 83 77 62 56 61 62 74 79 78 64
99 83 86 100 100 100 100 100 100 100 100 100 100 100 100 100 100 96 98 100 100 100 100 100 100 100 100 100 100 100 100 100 100 92 100 94 79 78 79 96 94 82 81 76 76 82 78 68 67
100 97 80 94 100 100 100 100 100 100 100 100 100 100 100 100 100 100 90 78 83 96 100 100 100 100 88 87 88 94 89 86 84 81 73 72 71 80 81 76 83 92 99 94 96 80 90 77 66
100 98 93 94 98 100 100 100 100 100 100 100 100 100 100 100 100 100 92 89 89 91 95 100 100 100 98 90 87 85 98 100 100 95 93 95 96 100 97 77 99 99 100 86 98 100 97 100 93
100 100 98 93 95 100 99 100 100 100 98 100 100 100 99 100 100 100 100 99 93 92 98 100 100 100 100 100 100 100 98 100 100 100 100 100 98 99 100 100 96 96 100 100 100 100 100 100 100
99 100 100 100 100 100 98 96 95 98 71 71 69 72 90 92 86 81 81 83 79 75 75 78 78 77 75 76 77 83 89 91 93 92 88 86 89 94 100 100 100 100 100 100 100 100 100 100 100
97 100 100 100 100 100 100 100 94 99 84 78 75 66 64 66 63 59 58 61 63 60 54 48 43 45 47 47 47 45 42 48 55 59 58 63 66 73 77 85 99 100 100 100 100 100 100 100 100
100 99 86 86 96 99 100 98 91 88 92 88 88 84 75 68 66 68 71 66 53 46 47 50 52 51 48 47 44 41 39 40 43 46 54 66 81 92 85 88 99 100 100 100 100 100 100 100 100
100 100 97 95 98 98 94 95 87 78 75 74 74 74 76 82 76 71 66 58 56 56 56 51 44 39 33 27 25 24 27 31 34 38 46 58 73 95 100 95 98 100 100 100 100 100 100 100 100
100 100 100 100 100 100 100 84 72 73 79 82 83 85 78 73 63 60 61 58 56 47 39 30 25 24 23 23 25 25 23 25 28 32 37 44 58 82 86 88 88 100 100 99 99 100 100 100 100
100 100 100 97 100 99 91 81 75 79 84 96 95 80 68 60 60 54 51 44 46 36 30 24 20 20 21 24 24 23 23 25 25 30 37 46 56 71 80 90 89 88 95 100 99 100 100 100 100

GFSSGP_250_rhum_027.txt.gz
RH
98 100 58 48 37 38 33 28 35 48 45 48 38 24 24 23 22 25 26 27 33 32 30 33 35 36 31 28 26 25 21 21 20 19 25 28 29 32 31 27 24 23 23 26 25 24 22 20 20
49 96 100 81 48 48 37 30 31 43 47 64 51 28 29 27 23 25 25 24 23 22 22 23 24 26 28 26 23 20 19 19 21 22 23 24 25 26 28 26 25 24 25 27 28 28 25 22 21
43 54 87 100 99 61 49 34 32 41 47 56 62 45 36 39 35 35 36 34 29 25 24 26 25 23 21 22 23 21 20 20 20 20 22 22 22 24 25 26 25 26 29 30 28 28 29 28 27
59 51 50 85 100 100 68 47 38 36 43 50 56 59 43 37 40 42 42 45 45 44 38 36 38 38 37 34 41 47 42 38 34 34 34 33 33 31 30 28 29 29 30 31 33 32 30 28 27
57 51 49 48 84 100 99 62 50 38 42 45 48 47 47 46 41 41 43 45 48 48 49 49 48 50 53 52 48 50 52 49 48 46 42 39 36 39 39 37 35 36 39 38 35 34 30 29 29
49 51 52 63 55 70 100 100 72 51 44 46 48 46 43 42 47 47 48 51 52 50 50 52 55 54 57 58 53 53 58 55 51 50 49 50 49 46 44 43 38 35 35 33 33 32 30 32 30
55 58 53 82 57 41 66 100 100 92 70 62 79 62 56 56 53 56 55 55 52 52 52 54 57 59 59 60 63 64 62 68 65 63 65 59 52 51 46 41 37 29 24 22 22 28 30 26 22
41 59 73 84 57 48 40 68 100 100 100 92 98 100 100 92 80 77 72 76 75 58 55 57 61 65 70 70 80 81 82 81 83 86 78 64 57 50 43 35 30 27 25 26 28 30 28 25 22
57 41 72 100 86 54 42 40 63 100 100 100 100 100 100 98 97 95 91 87 79 75 70 68 72 79 86 93 93 86 79 83 76 78 71 63 53 49 43 38 32 27 27 27 27 27 25 24 26
74 52 74 100 100 74 39 40 46 56 68 84 94 96 98 100 100 100 100 100 98 87 95 93 94 94 92 95 96 98 82 78 78 77 71 64 57 46 41 39 38 36 35 35 34 29 30 28 30
100 79 92 100 100 88 45 41 41 54 57 48 55 60 70 78 81 94 95 95 96 95 94 95 96 89 84 80 72 70 69 62 54 48 52 57 56 55 55 49 46 41 37 30 27 31 31 33 33
100 100 94 100 100 100 80 48 43 48 63 50 57 66 57 50 58 66 74 80 85 81 77 76 70 64 57 46 41 42 39 34 32 32 31 31 30 32 35 32 33 33 32 32 34 34 33 33 33
100 100 100 100 100 100 98 77 63 58 58 76 74 83 85 67 48 48 54 59 65 65 64 59 53 50 46 39 36 35 32 32 31 32 31 30 31 32 38 40 42 44 44 44 44 43 44 40 39
100 100 100 100 100 100 100 87 78 97 71 78 79 84 78 86 80 65 64 64 69 67 61 52 47 43 42 44 41 39 36 34 32 33 35 37 36 42 48 50 57 64 70 66 53 51 45 43 36
100 97 100 100 100 100 100 100 97 91 82 84 95 90 85 100 98 99 84 72 65 60 56 54 51 50 48 45 44 42 42 49 43 43 48 44 43 51 60 70 76 82 79 74 64 54 49 46 39
100 94 100 100 100 100 100 100 100 91 91 95 100 100 100 100 100 100 100 88 67 66 63 69 69 74 68 67 66 62 54 59 72 69 65 67 77 87 96 94 97 93 82 75 59 51 51 46 37
93 100 100 100 100 99 90 89 100 100 100 100 100 100 100 100 99 100 100 90 83 84 78 83 86 79 77 69 70 69 67 66 78 92 97 98 96 97 93 100 100 94 80 68 66 64 52 47 46
100 100 100 100 100 100 100 98 100 100 100 100 100 100 94 98 100 89 92 99 94 99 100 98 88 90 81 80 70 75 81 87 92 82 98 96 96 94 91 91 92 91 90 76 71 71 65 54 50
100 100 100 100 100 100 100 100 100 100 100 100 100 93 85 100 100 100 100 99 99 100 100 100 100 100 93 89 94 100 100 96 97 88 86 90 98 98 93 83 83 81 76 79 75 78 69 61 70
100 100 100 100 100 98 90 100 100 100 100 99 90 89 96 94 100 100 100 100 100 100 100 100 100 100 100 100 100 100 100 100 100 100 96 93 92 85 85 91 99 91 90 92 89 79 78 68 82
100 100 100 100 100 99 90 90 100 100 100 96 99 100 100 98 100 98 91 98 100 100 100 100 100 100 100 100 100 100 100 100 100 100 100 100 96 86 86 86 87 88 86 90 78 77 78 80 75
79 100 100 100 100 100 100 100 100 98 90 92 87 91 100 100 100 93 91 92 91 96 98 98 98 100 100 100 100 100 100 100 100 100 99 94 91 90 90 95 98 95 96 100 88 98 100 88 89
99 94 100 100 100 100 100 100 100 100 100 100 100 97 96 94 100 96 100 98 85 81 89 95 98 100 100 100 93 80 77 88 94 99 100 92 100 100 100 100 98 100 100 100 100 100 100 92 97
90 94 98 99 100 100 100 100 100 100 100 100 100 100 100 100 100 100 100 99 91 84 78 90 95 97 93 91 88 81 76 80 95 100 100 100 100 100 100 100 100 100 100 100 100 100 100 100 100
97 98 96 96 95 100 99 99 98 100 100 100 100 100 100 100 100 100 95 93 93 91 88 88 87 81 77 80 83 89 94 98 100 100 100 100 100 100 96 90 90 93 94 95 100 100 100 100 100
85 99 97 100 100 100 96 91 93 99 98 100 100 100 100 100 100 100 99 97 94 90 85 76 69 68 63 59 58 55 47 48 52 54 54 56 66 77 75 72 71 74 81 93 100 100 100 100 100
84 93 98 98 95 98 100 94 96 95 88 82 88 94 87 82 81 81 81 76 66 60 54 48 45 46 47 46 48 53 52 51 53 54 58 67 70 76 73 71 76 75 82 94 100 100 100 100 100
80 82 92 90 98 98 97 94 91 94 97 98 96 86 80 82 83 80 74 73 71 66 59 57 54 50 48 45 39 38 39 42 44 45 48 50 53 55 58 59 60 59 61 71 96 100 100 100 100
85 82 96 88 96 100 96 94 92 97 97 96 91 87 83 78 74 71 69 59 51 51 54 55 53 46 39 33 25 21 18 18 18 19 21 24 28 32 39 49 50 57 58 71 92 100 100 100 100
90 91 98 97 95 92 94 98 100 98 90 85 88 84 77 69 69 62 53 47 49 57 55 45 36 29 28 25 22 19 17 16 16 16 17 19 23 26 32 45 58 71 80 78 79 100 100 100 100

GFSSGP_250_rhum_030.txt.gz
RH
72 53 44 46 42 40 37 27 30 28 25 25 25 32 38 41 41 41 35 32 34 40 38 37 37 48 50 51 58 55 45 33 28 26 26 24 25 25 28 27 25 24 25 25 23 22 23 25 27
70 81 41 44 41 44 41 31 29 30 26 26 27 26 33 38 35 33 29 27 34 36 36 38 39 42 47 45 42 38 33 29 25 24 22 22 22 23 22 23 22 22 23 23 24 26 26 28 29
68 84 92 51 45 47 47 39 32 30 29 27 30 29 31 33 28 27 28 25 25 26 25 26 28 26 28 30 32 32 31 27 24 23 21 21 20 20 23 24 24 25 26 27 30 30 30 32 33
78 47 100 100 84 51 49 45 38 31 30 29 36 45 30 35 31 28 26 26 24 23 23 22 22 22 21 20 21 22 23 23 23 26 28 29 34 38 37 35 38 37 38 40 39 38 36 33 33
74 64 45 100 100 84 59 53 47 35 32 30 29 44 42 41 41 33 30 31 30 28 31 35 39 40 36 32 28 30 35 44 49 50 51 51 50 48 47 46 46 46 46 44 40 39 37 34 32
65 65 56 87 100 100 97 63 56 44 37 38 30 35 43 49 58 42 37 38 41 42 43 43 46 48 48 48 48 48 49 51 54 55 54 54 58 61 59 53 51 52 48 44 43 40 37 31 26
66 68 63 78 78 76 100 100 93 65 52 41 38 31 40 47 53 58 57 47 41 40 43 43 46 49 49 50 50 52 54 56 57 58 59 59 67 70 70 66 61 61 58 51 46 38 32 29 27
61 76 61 76 68 64 62 96 100 100 85 62 53 40 34 41 46 50 53 54 48 43 43 45 47 50 51 51 50 50 52 55 56 62 64 70 63 67 71 71 70 68 60 50 45 41 38 30 30
61 73 92 99 93 88 67 60 79 100 100 100 80 63 42 36 43 46 45 44 42 44 46 49 53 55 58 59 54 51 53 54 58 60 58 60 62 63 61 56 63 65 57 52 45 41 40 42 43
66 69 100 100 100 100 74 63 62 62 92 100 100 90 61 50 45 45 48 56 63 68 72 76 78 82 78 78 71 67 67 65 67 66 62 72 74 80 78 64 55 50 47 45 48 52 50 40 34
78 67 69 100 100 100 81 61 62 60 55 64 100 100 100 98 72 75 86 94 100 100 100 98 88 90 90 91 93 88 93 97 92 90 84 68 60 52 42 35 32 32 30 28 27 28 27 29 30
100 96 88 80 100 98 82 77 80 82 65 52 50 92 100 100 100 100 100 91 87 96 96 97 100 100 100 100 100 99 95 87 75 57 40 34 33 30 29 27 27 25 23 23 24 28 31 31 35
100 100 100 100 96 90 79 75 74 81 80 61 52 50 49 74 94 94 97 95 86 80 79 79 76 72 71 74 80 75 66 56 49 43 39 38 34 34 31 27 26 27 28 32 35 38 38 39 44
100 100 100 100 100 88 66 66 69 73 68 81 64 47 49 46 48 47 49 56 55 58 57 50 52 58 58 54 56 55 51 48 45 43 39 36 37 37 34 36 42 41 40 42 43 47 53 56 62
100 100 100 100 100 100 98 83 86 68 66 76 80 60 54 55 52 49 43 46 59 69 70 65 48 46 53 54 52 51 50 48 49 47 45 50 51 51 50 47 50 52 58 69 69 66 62 65 64
99 100 100 100 100 100 100 100 95 80 80 100 100 100 93 77 73 68 68 68 66 69 76 80 86 84 75 64 54 52 50 51 56 56 58 57 54 60 65 61 71 72 86 81 77 73 74 79 84
100 100 100 100 100 100 100 98 100 100 86 82 100 100 100 100 100 98 86 82 81 80 78 75 70 69 73 73 69 65 67 72 75 71 63 59 62 61 64 77 81 100 95 88 91 87 83 86 89
100 100 100 100 100 100 100 100 100 100 100 100 100 100 100 100 97 88 87 84 99 90 76 70 76 65 64 67 67 70 66 75 81 85 88 76 74 80 85 98 100 89 95 90 95 98 95 93 95
100 100 100 100 97 100 100 100 100 100 100 100 100 100 100 100 100 99 100 100 100 99 86 80 73 66 67 66 66 72 79 76 76 93 99 100 100 96 100 98 90 100 99 91 96 97 100 96 97
100 100 100 100 100 97 99 100 100 100 100 100 100 91 100 97 85 78 89 84 90 100 100 97 92 100 100 100 98 99 100 97 100 90 90 100 99 95 92 90 99 100 100 90 86 78 72 77 80
100 100 100 100 100 100 99 100 100 100 91 100 94 93 85 74 75 69 95 98 78 80 88 92 100 100 100 100 100 100 100 94 77 81 82 83 89 91 98 100 100 99 97 92 89 85 83 86 88
92 100 100 100 100 100 100 98 89 87 87 97 90 95 99 82 80 66 72 83 80 86 98 100 100 100 100 100 92 83 88 94 95 86 78 81 84 91 96 97 99 99 99 99 98 94 92 88 87
39 100 100 100 100 100 100 93 92 86 85 92 85 82 88 100 95 86 85 76 74 85 85 65 75 95 90 88 83 86 90 82 81 89 93 94 95 91 99 100 100 100 100 100 100 100 100 100 100
38 58 100 100 100 100 100 100 96 82 79 88 88 79 81 89 82 73 74 68 73 67 58 61 67 73 86 83 93 82 75 78 79 94 100 100 100 100 100 100 100 100 100 100 100 100 100 100 100
18 26 59 96 100 100 100 100 100 97 96 91 86 78 84 88 80 75 78 79 84 86 78 79 79 85 91 84 76 69 67 79 94 98 99 100 100 100 100 97 92 91 91 95 100 100 97 96 100
20 27 41 67 100 100 100 100 100 100 100 100 100 100 100 100 100 100 100 100 99 99 94 98 100 95 91 89 86 81 77 77 74 68 64 61 54 48 50 55 58 57 59 64 77 95 99 99 100
26 42 55 55 84 100 100 100 100 100 100 100 100 100 100 100 100 100 100 100 100 99 88 86 88 82 68 65 68 61 60 57 50 47 49 49 50 51 50 50 56 71 73 84 94 100 100 100 100
47 42 28 54 74 98 100 100 100 100 100 100 100 100 99 91 88 94 98 100 96 94 89 76 68 65 60 58 52 52 46 37 31 30 31 30 29 34 42 48 51 61 80 90 95 100 100 99 98
64 70 65 86 79 97 100 97 97 100 100 100 100 100 94 87 86 91 88 84 76 63 58 61 65 61 52 46 39 33 28 24 24 21 18 18 19 20 22 26 35 48 62 69 75 85 88 92 100
59 89 100 96 94 95 94 94 99 100 100 99 94 78 74 80 91 96 95 83 74 67 65 59 52 44 37 31 30 25 26 26 26 22 20 17 12 10 14 19 26 33 37 46 56 68 68 70 82

GFSSGP_250_rhum_033.txt.gz
RH
59 61 58 42 32 32 32 23 30 28 31 34 38 38 38 37 28 26 26 28 32 30 29 33 34 36 38 39 42 49 52 50 37 34 35 31 28 26 25 23 21 18 18 18 20 20 20 22 21
61 67 73 51 43 35 31 38 31 26 34 34 34 39 35 33 30 31 26 26 32 33 29 30 37 44 48 48 49 49 48 53 54 49 45 35 28 25 23 19 17 17 20 20 23 23 24 27 30
73 66 77 65 52 41 36 31 48 30 28 36 36 38 46 45 31 32 30 30 34 32 27 25 31 39 44 45 40 38 38 38 40 37 33 30 27 25 25 25 27 30 37 40 39 40 36 36 36
100 65 61 73 70 55 45 39 33 41 34 28 36 35 44 40 34 34 34 31 30 27 24 23 26 30 34 36 38 33 26 25 26 26 25 25 26 28 31 36 39 46 49 48 46 44 45 46 45
60 99 72 59 92 63 55 48 39 37 43 32 32 36 39 45 40 37 40 36 37 29 24 24 25 24 24 24 22 23 23 23 22 21 23 26 36 43 48 50 51 54 57 58 59 58 53 46 47
50 67 99 90 92 84 58 53 46 41 42 41 32 37 41 43 44 35 36 44 39 31 25 25 25 24 24 26 30 38 41 41 45 46 46 48 50 53 54 58 58 56 55 59 62 62 54 48 54
64 53 92 100 96 95 65 52 49 50 41 44 38 36 38 43 41 42 39 38 44 39 30 27 28 29 32 35 41 44 48 49 50 50 50 50 53 53 54 52 54 57 58 55 58 60 52 54 57
73 69 61 89 100 94 100 58 50 50 50 38 47 40 37 41 37 35 41 44 40 48 43 37 38 39 42 43 43 44 45 47 47 48 48 45 45 47 49 50 53 52 57 58 54 56 59 60 58
53 85 69 60 99 100 85 100 95 57 56 50 44 46 47 36 34 33 32 40 44 48 61 55 49 47 44 44 42 43 44 47 50 53 56 59 52 52 52 55 55 54 59 66 64 57 46 40 36
86 95 78 89 100 98 84 80 100 100 90 60 59 57 54 43 37 37 36 32 36 47 54 59 59 55 52 46 40 42 44 47 54 64 65 64 62 62 64 74 73 78 64 55 43 34 30 27 26
99 100 98 81 93 99 93 75 69 100 100 100 97 72 67 63 57 48 42 40 36 39 46 48 49 49 45 42 40 52 64 70 63 66 69 81 91 98 97 87 76 55 40 34 30 30 28 27 27
100 100 100 89 100 100 96 83 78 78 100 100 100 100 100 99 84 76 66 55 54 42 38 40 46 43 43 56 81 71 83 87 100 100 100 100 95 87 69 61 54 40 37 34 34 33 35 33 35
100 100 100 97 100 100 100 92 86 84 87 84 79 94 100 100 100 100 99 98 84 64 54 51 49 48 68 90 92 98 88 90 84 76 72 67 66 62 52 44 40 39 39 36 38 37 34 37 40
100 100 100 100 100 100 100 96 87 95 82 78 76 73 74 82 94 100 100 100 100 100 100 100 98 99 99 98 88 75 64 62 59 58 55 48 45 46 41 40 43 40 44 44 43 39 39 38 39
100 100 100 100 100 100 100 100 99 94 100 97 88 88 77 74 69 67 66 74 85 94 96 100 97 93 83 76 68 62 62 57 51 45 46 47 48 49 50 51 48 49 49 51 52 50 47 46 46
100 100 100 100 100 100 100 100 100 98 99 100 98 94 90 83 76 71 57 46 41 38 38 44 52 49 43 48 51 55 69 68 64 64 68 70 67 63 61 59 64 56 57 56 55 60 68 68 80
99 100 100 100 100 100 100 100 100 100 95 98 99 99 96 87 86 79 68 56 51 44 43 48 53 53 55 72 73 74 73 73 67 66 59 60 65 64 65 64 65 64 61 64 65 66 79 90 96
100 100 100 100 100 100 100 100 100 100 100 93 92 95 78 70 79 71 61 65 87 88 76 63 70 68 75 85 92 76 66 68 70 61 59 62 64 67 66 69 67 69 81 70 62 72 79 98 100
100 100 100 100 100 100 100 100 100 100 100 100 100 100 91 94 95 86 84 96 93 94 89 85 79 76 82 95 100 86 70 64 61 57 62 60 66 66 66 86 96 80 81 93 83 71 79 97 96
99 100 100 100 100 100 100 100 100 100 100 100 100 100 100 100 100 97 92 89 98 91 97 100 100 99 87 81 77 75 67 63 59 57 59 59 78 83 78 81 69 73 76 92 92 85 100 99 98
61 100 100 100 100 99 100 100 100 100 100 100 100 100 100 100 100 100 100 100 100 100 100 100 100 84 77 70 72 64 65 56 63 56 48 56 58 66 71 85 95 94 94 92 97 96 99 95 99
43 82 100 100 100 93 94 100 100 100 100 100 100 100 100 98 88 100 100 100 100 100 100 100 98 76 80 69 65 79 72 63 64 74 60 60 77 69 64 79 99 90 73 79 88 95 100 98 92
34 49 96 100 100 100 95 86 100 100 100 100 100 100 100 100 92 100 97 99 100 100 100 87 88 71 81 87 81 89 72 67 67 52 74 74 66 82 77 71 74 74 88 100 100 100 100 100 100
29 43 67 100 100 100 100 89 78 86 98 100 100 100 98 98 100 100 100 91 88 86 79 71 77 81 98 80 81 70 62 58 50 52 51 53 62 75 89 89 70 77 84 96 100 97 97 100 100
16 34 39 60 100 100 100 100 92 82 76 86 92 91 90 90 94 100 100 93 71 71 66 71 64 62 68 62 52 50 54 54 60 62 79 82 84 87 96 99 99 92 82 76 79 76 73 65 68
12 21 36 48 98 100 100 100 100 100 94 88 83 81 83 84 89 77 69 69 66 54 51 50 54 55 58 58 56 56 67 74 76 84 86 96 100 85 73 61 50 50 53 53 51 57 70 76 79
15 12 18 42 76 99 100 100 100 100 100 99 96 96 86 78 73 61 60 58 53 54 63 74 67 72 83 84 70 69 89 98 82 77 58 41 42 44 51 46 43 42 41 42 41 50 59 70 83
16 15 12 14 36 46 77 100 100 100 100 100 98 95 88 87 82 77 83 76 83 91 98 94 98 94 86 84 82 87 82 63 52 44 42 39 33 28 23 22 26 27 29 29 34 41 55 64 69
22 20 15 14 22 26 31 46 100 100 100 100 100 100 99 100 100 100 100 100 100 100 100 99 95 88 76 66 63 63 62 52 40 32 30 24 22 26 31 31 26 22 25 28 29 30 36 42 52
24 19 20 24 34 34 40 46 90 100 100 100 100 100 100 100 100 100 100 100 98 94 88 80 70 66 57 63 65 58 44 34 29 27 31 39 38 34 31 24 17 12 11 15 20 22 28 34 39

GFSSGP_250_rhum_036.txt.gz
RH
84 60 46 36 33 34 37 26 24 38 26 26 47 28 32 27 33 29 24 21 22 22 25 23 21 20 22 25 25 28 32 39 42 35 29 26 28 30 34 31 28 27 24 20 18 16 20 29 35
100 61 51 44 37 37 46 30 36 32 31 51 40 32 29 23 25 33 28 25 24 22 23 23 22 23 26 28 31 34 36 39 43 48 48 49 46 42 42 34 25 22 22 22 22 26 36 47 49
100 84 47 52 68 46 53 31 37 28 38 36 40 36 30 45 40 35 28 30 28 24 25 28 30 30 29 27 28 31 33 37 37 38 35 32 36 35 33 30 28 26 24 30 42 48 50 55 57
100 100 71 43 81 63 45 33 36 48 40 40 42 37 40 43 29 27 29 24 28 27 25 28 32 36 34 33 31 33 31 32 33 28 26 26 24 23 21 19 20 27 40 46 50 52 54 54 51
100 100 100 59 82 88 52 33 42 51 44 49 44 38 43 43 34 33 31 22 25 26 24 28 32 37 40 39 36 33 33 31 28 27 25 27 29 31 38 43 45 47 51 54 55 55 52 50 48
99 97 100 86 73 83 78 38 52 40 43 45 41 33 42 42 38 31 32 28 27 29 26 31 34 31 31 35 36 31 28 27 26 29 36 43 46 48 49 49 50 49 48 48 50 49 45 45 40
96 72 98 100 87 65 80 57 72 47 44 46 48 46 41 44 43 40 34 31 29 32 34 42 39 38 31 27 27 26 26 26 29 38 44 46 47 49 49 48 45 45 46 45 43 44 46 47 49
89 84 75 98 100 87 70 67 90 59 56 43 44 45 53 49 45 44 38 32 31 36 34 45 53 47 34 30 26 27 29 36 40 43 44 45 45 45 44 44 50 54 49 47 48 51 55 60 70
85 69 64 74 99 100 92 68 87 85 55 52 49 38 51 62 55 44 43 36 31 33 37 41 38 41 48 39 36 38 39 40 42 43 45 44 43 42 44 49 52 52 48 46 58 69 78 72 59
81 59 75 94 83 88 100 91 77 90 82 63 55 51 47 47 48 49 43 39 37 33 37 39 44 45 42 47 55 49 48 52 53 49 46 44 41 45 61 54 54 64 67 86 90 84 73 60 44
69 58 100 100 83 96 89 90 99 80 87 79 59 57 60 58 52 50 48 42 42 40 37 38 37 39 42 46 49 60 61 61 58 52 47 41 51 62 67 72 89 92 86 87 74 64 51 37 35
84 74 76 95 82 86 81 81 90 100 91 97 70 58 65 62 57 54 50 49 46 45 41 37 38 38 39 38 44 49 51 50 50 46 41 43 63 89 83 86 81 68 60 52 45 38 34 36 37
93 91 99 94 83 78 77 88 78 97 99 100 100 85 62 61 58 56 54 55 53 52 47 43 42 46 44 39 38 40 41 42 44 49 50 75 96 93 81 72 62 53 48 40 36 40 46 45 44
100 100 100 75 100 97 82 77 76 92 99 100 100 100 100 100 80 68 70 67 67 72 72 66 69 73 68 60 64 61 57 55 57 74 94 99 89 73 63 50 52 50 45 49 52 51 51 52 52
100 99 100 80 100 100 89 65 80 97 89 97 100 100 100 100 100 100 100 100 100 99 99 100 100 100 100 99 95 92 88 99 100 100 80 73 61 57 62 62 62 65 60 54 50 51 51 52 58
94 91 94 82 100 100 100 99 91 89 93 96 100 100 96 94 100 100 100 100 100 100 100 100 100 100 100 100 100 96 81 71 62 56 51 51 52 61 67 69 63 55 48 48 44 46 48 49 67
100 87 89 100 100 100 100 100 99 100 96 97 100 100 100 100 100 99 98 93 89 88 86 87 88 86 82 72 61 54 50 45 43 46 55 69 79 67 65 60 56 55 49 44 44 50 76 100 100
100 100 100 100 86 100 100 100 100 100 100 100 100 100 100 100 100 100 99 96 94 86 73 65 64 61 68 68 81 86 69 56 57 70 81 82 94 86 59 56 54 54 52 48 44 53 72 72 74
77 100 100 100 100 94 100 100 100 100 100 100 100 100 100 100 100 100 96 98 97 89 83 75 78 75 69 64 71 80 74 78 82 100 90 79 76 69 66 60 54 48 46 45 41 40 59 67 74
20 100 100 100 100 91 100 100 100 100 100 100 100 100 100 100 100 100 100 100 94 93 88 88 71 66 60 64 66 72 90 85 91 81 67 66 65 59 54 65 61 49 49 57 52 64 71 68 61
15 31 90 100 100 100 100 100 100 100 100 100 100 100 100 100 100 100 100 100 98 93 87 90 92 92 100 97 90 89 87 98 97 72 63 57 49 45 41 40 46 55 60 56 56 52 54 54 67
17 18 25 90 100 100 99 100 100 100 100 96 100 100 100 100 100 100 100 100 100 100 100 100 100 100 88 90 100 97 96 90 91 78 64 56 46 40 36 36 39 44 52 51 56 63 82 67 80
14 18 21 51 100 100 100 94 100 100 100 100 100 100 100 100 100 100 100 100 100 100 100 100 100 100 98 99 84 88 82 77 73 65 57 54 50 43 45 44 40 36 42 56 61 67 100 99 100
14 18 20 26 76 86 100 100 99 100 100 100 100 100 99 99 100 100 100 100 100 100 100 100 100 100 93 98 98 89 71 70 69 65 54 46 41 45 50 48 42 46 50 70 89 98 100 100 98
14 17 18 21 25 95 100 100 100 100 92 100 100 100 100 100 100 100 98 98 100 100 100 100 100 100 82 92 100 100 87 65 57 53 45 39 38 42 48 52 73 86 92 95 88 67 50 39 41
14 14 17 19 22 21 75 100 100 100 100 97 98 100 100 100 100 100 100 100 93 93 100 100 100 90 76 82 77 70 60 59 48 42 41 47 53 68 73 87 100 87 66 53 46 36 28 26 24
12 13 15 17 24 26 36 65 100 100 100 100 100 90 87 87 94 97 91 85 91 100 99 97 84 73 68 70 61 58 51 42 44 48 67 75 82 76 85 64 47 57 45 33 26 21 16 15 17
13 14 13 15 18 23 27 39 50 99 100 100 100 100 100 95 87 79 74 72 76 77 73 68 71 69 59 59 61 52 54 55 54 70 91 94 83 66 50 47 39 30 27 27 28 24 25 25 24
15 15 15 15 16 20 25 29 52 88 100 100 100 100 100 100 99 95 87 82 76 71 71 70 71 73 70 76 74 91 93 92 96 98 80 61 50 48 40 29 26 24 32 35 32 30 28 23 20
20 18 18 17 15 16 19 28 54 64 94 100 100 100 100 100 100 100 100 98 94 93 99 97 85 78 77 92 82 91 99 88 73 69 53 43 45 33 28 27 30 41 44 33 27 20 16 14 14

GFSSGP_250_rhum_039.txt.gz
RH
100 100 100 63 33 38 28 37 19 23 24 24 36 37 21 22 27 28 20 20 23 26 28 30 28 26 23 24 26 27 27 29 30 31 36 36 33 30 28 29 31 36 39 33 26 24 22 22 29
100 100 100 75 49 52 43 36 42 45 33 22 29 17 14 18 25 29 22 20 20 22 22 22 21 20 22 24 26 28 28 29 31 33 35 38 40 39 39 39 41 38 31 25 22 21 28 44 46
100 100 100 100 62 67 58 34 42 42 40 24 27 16 22 40 32 34 32 27 22 21 21 21 22 22 23 25 28 29 31 33 34 34 34 33 32 30 26 27 29 26 23 23 33 45 48 48 49
100 100 100 100 97 78 55 42 47 69 49 22 28 24 35 36 30 26 24 26 28 24 24 24 23 24 26 27 29 29 28 30 31 30 30 29 28 28 26 27 31 31 41 48 48 50 48 46 44
100 100 100 100 100 88 56 45 52 74 51 38 31 30 34 34 29 31 41 35 31 27 29 28 27 27 28 29 29 30 28 29 28 28 30 32 31 28 28 39 45 48 47 48 48 46 43 40 36
89 100 100 100 100 100 49 45 69 66 63 51 39 33 39 38 30 32 40 37 36 30 35 31 29 29 29 31 32 30 31 33 30 30 30 30 29 30 34 43 45 45 46 46 44 39 42 40 34
89 97 100 100 100 100 70 56 82 85 70 59 35 35 44 45 38 32 38 38 33 31 38 37 34 35 35 36 35 32 28 28 29 29 29 28 28 31 39 44 45 45 43 41 39 43 42 43 40
93 94 100 100 100 100 96 52 95 91 70 61 39 45 52 52 46 39 38 42 36 30 33 35 34 33 36 42 43 41 39 35 28 27 27 30 32 38 43 44 44 44 43 41 40 42 43 46 69
100 100 99 100 100 100 87 65 70 100 81 56 41 56 57 62 56 50 41 41 37 34 33 35 38 36 38 46 59 58 53 43 33 32 34 37 39 42 43 47 45 46 45 40 41 53 60 79 81
100 100 100 100 100 100 100 76 69 98 89 66 55 54 58 62 68 59 51 40 37 38 38 39 40 42 42 41 41 43 42 44 49 52 49 52 56 60 61 60 55 45 41 39 51 69 76 75 62
100 100 94 98 100 100 100 100 82 95 79 81 67 65 62 49 60 85 71 74 65 48 41 40 42 44 49 46 42 42 47 48 47 48 49 52 56 57 56 51 50 50 43 50 73 84 66 52 40
100 99 76 93 100 100 100 100 94 100 79 74 89 73 76 64 56 60 58 57 69 68 62 53 44 40 46 43 42 42 43 48 45 46 44 43 45 46 46 45 49 52 68 87 83 72 55 44 44
100 100 98 74 96 100 100 100 100 100 100 92 83 93 86 74 75 66 63 53 52 54 53 52 54 50 46 47 45 49 50 48 45 42 41 42 44 52 56 64 74 88 90 85 71 50 48 52 51
100 100 100 81 91 100 100 100 97 98 100 100 100 93 88 91 73 70 69 70 59 55 55 56 56 56 55 55 57 58 56 53 52 61 68 72 75 82 96 98 95 84 76 63 54 47 57 51 53
100 100 100 71 97 100 100 100 94 85 100 100 100 100 100 96 100 94 74 68 67 65 65 64 67 64 66 67 67 72 76 74 74 86 100 100 100 99 90 77 69 64 61 55 50 52 53 51 49
100 100 90 74 82 100 99 100 94 89 99 94 100 100 100 100 100 100 100 85 71 70 69 69 67 73 82 83 81 82 88 100 100 100 100 95 87 81 73 70 63 57 56 61 65 64 58 52 51
100 100 99 88 78 94 99 92 100 86 86 100 100 100 100 100 100 100 100 100 100 95 100 100 100 100 100 100 100 100 100 100 100 97 91 84 75 71 70 70 75 75 68 68 62 62 64 55 45
100 100 100 100 91 72 82 84 88 91 76 97 100 100 100 100 100 100 100 100 100 100 100 100 100 100 100 100 100 96 95 90 87 82 76 74 76 79 76 81 81 81 80 71 61 55 49 50 44
43 100 100 100 100 70 66 80 75 90 93 89 98 100 100 100 100 100 100 100 100 100 100 100 100 100 100 92 90 100 100 100 91 80 76 73 65 68 84 91 94 85 78 62 59 53 49 46 45
19 84 100 100 95 64 73 76 65 74 93 95 96 90 88 100 100 100 100 100 100 100 100 100 100 100 100 100 100 100 90 91 84 75 72 84 96 100 92 93 72 71 66 60 58 53 48 42 41
14 23 97 100 100 86 95 91 79 74 90 100 91 94 95 94 89 100 100 100 100 100 100 100 100 99 99 98 99 100 97 100 99 93 84 73 57 56 68 65 61 56 53 47 45 44 41 37 40
12 17 20 95 100 93 82 94 83 77 84 83 78 95 94 95 100 100 100 100 100 100 100 100 100 100 100 100 100 100 90 80 97 100 100 90 73 61 48 45 46 45 43 41 42 40 40 47 60
11 12 17 25 84 99 75 80 100 82 81 90 90 87 92 97 96 100 100 100 100 100 100 100 100 100 100 100 99 92 90 93 95 85 92 96 96 67 56 44 46 47 44 46 39 39 42 61 89
10 10 14 19 24 62 66 67 98 92 87 82 86 85 87 85 93 92 100 100 100 100 100 100 100 100 100 100 99 95 90 91 96 90 87 89 96 66 52 51 50 49 43 38 37 45 70 98 100
15 13 13 15 18 24 38 52 100 95 97 92 86 91 97 97 94 93 98 100 100 100 100 100 100 100 100 100 100 100 100 100 96 95 91 78 67 59 55 60 49 43 40 42 50 80 92 81 49
17 18 17 16 21 27 32 22 49 100 100 100 97 92 95 100 100 94 96 100 100 100 100 100 100 100 100 100 100 99 99 100 100 94 78 76 66 57 53 49 39 45 50 89 97 88 61 30 30
14 17 18 18 16 17 22 25 30 58 79 96 100 100 100 100 100 100 100 98 100 100 100 100 100 99 100 100 100 100 99 95 93 84 78 72 65 54 50 38 40 80 98 93 73 36 35 23 25
19 17 18 17 16 14 16 19 23 26 57 83 84 93 100 100 100 98 97 100 100 100 100 99 99 95 96 100 100 99 90 81 76 68 66 59 46 48 40 42 67 91 80 61 40 32 26 30 33
17 15 15 16 15 14 15 15 18 24 47 90 91 79 99 100 100 98 99 97 98 100 100 100 100 100 96 96 90 90 80 73 63 58 55 50 57 66 53 84 89 68 47 42 32 30 37 45 33
18 16 16 15 14 14 14 16 18 27 31 64 99 99 100 100 98 100 100 100 100 100 100 99 96 93 85 86 76 64 69 65 69 69 74 73 61 69 76 71 58 49 39 31 36 41 45 38 24

GFSSGP_250_rhum_042.txt.gz
RH
69 71 93 100 100 93 76 76 22 32 35 28 26 24 24 25 26 26 22 23 24 30 46 55 53 52 41 44 54 48 36 27 29 27 29 32 34 37 36 33 30 29 29 32 30 25 22 22 31
66 82 88 97 100 100 91 64 40 51 62 27 25 24 24 27 24 26 22 21 23 28 34 38 41 38 38 40 36 29 26 25 26 27 27 30 32 33 31 28 27 26 27 26 26 27 35 45 46
78 80 82 93 100 100 99 73 57 52 54 26 19 20 25 25 22 22 24 27 22 23 27 30 31 31 27 24 24 24 28 30 29 29 31 31 30 28 28 32 29 26 27 34 39 43 44 41 41
46 98 85 98 100 100 94 89 67 51 59 23 15 27 28 33 34 20 18 26 23 20 21 23 24 25 26 33 31 28 29 32 32 33 33 34 33 34 36 34 32 28 32 39 44 43 43 44 42
79 92 83 97 100 100 100 99 78 58 65 24 21 48 34 33 38 23 21 23 29 27 22 22 24 26 28 29 27 29 31 32 34 36 36 35 36 37 38 35 32 31 33 40 45 44 44 40 37
71 85 98 100 100 100 100 98 90 68 63 35 34 51 55 37 41 36 26 28 31 31 30 26 25 25 26 28 27 29 31 31 31 33 35 35 36 38 35 31 30 29 35 41 43 43 42 42 42
62 77 96 100 100 100 93 100 99 81 62 51 36 55 65 43 41 46 30 32 34 41 37 35 32 32 31 29 27 28 28 33 32 32 32 32 33 31 30 29 30 32 36 42 45 45 46 46 45
67 98 100 100 100 100 100 100 100 87 60 53 40 58 65 60 47 46 44 29 33 43 45 46 44 39 37 34 34 35 36 35 38 40 40 39 36 32 32 32 32 34 40 44 48 55 57 51 42
60 73 100 100 100 100 100 100 100 99 86 53 45 51 65 65 56 46 48 36 28 37 45 45 45 44 44 44 42 40 42 41 45 51 55 57 50 44 44 47 46 48 53 59 60 58 53 45 43
56 47 100 100 100 100 93 100 100 100 99 64 62 55 50 61 67 59 53 44 34 37 42 45 44 42 41 42 46 48 46 46 49 63 60 53 47 45 47 49 47 45 46 47 47 44 44 51 64
72 64 95 100 100 100 100 91 100 100 100 85 62 74 68 72 73 59 50 42 43 40 41 45 47 47 45 47 49 53 55 54 51 47 47 43 42 43 44 44 44 44 44 44 47 58 69 78 85
86 75 76 95 100 100 100 94 98 96 100 100 90 77 82 74 73 86 67 55 51 52 46 49 48 45 46 50 51 51 50 50 52 54 51 48 50 50 49 44 44 49 61 73 86 93 87 82 72
82 86 89 90 100 100 100 100 97 93 100 100 97 79 74 80 69 76 82 88 76 69 56 56 63 72 65 56 55 52 52 48 48 49 52 56 55 54 53 58 70 76 89 94 94 88 76 71 64
72 91 86 100 88 100 100 100 89 98 100 100 100 93 89 85 77 69 66 72 66 86 80 68 74 78 81 78 72 69 61 58 58 56 58 60 62 64 74 92 91 97 100 94 87 80 73 68 65
27 100 78 100 94 100 100 100 81 95 100 100 100 100 92 100 96 77 69 68 68 65 69 80 67 66 62 58 56 56 57 60 61 65 65 70 74 78 92 100 100 100 91 86 77 73 70 70 68
24 90 77 100 100 100 100 100 94 81 100 100 100 100 100 99 97 93 80 70 74 77 78 79 80 80 75 67 61 58 63 70 76 78 79 86 92 100 100 100 97 92 84 77 78 70 68 59 62
21 70 100 100 97 100 100 100 93 83 83 100 100 100 100 97 100 100 98 98 91 81 76 78 80 79 79 80 76 76 80 79 78 89 91 99 100 100 100 100 100 94 88 90 86 78 80 77 76
21 70 100 100 99 100 100 100 91 73 79 95 100 100 100 100 100 100 100 100 100 100 100 100 100 100 100 97 97 98 100 100 100 100 100 100 100 100 100 100 100 97 99 93 72 73 75 68 60
20 78 85 100 100 98 93 100 87 76 71 81 93 100 100 100 100 100 100 100 100 100 100 100 100 100 100 100 100 100 100 100 100 100 100 100 100 100 100 100 100 100 100 98 90 82 82 70 56
15 24 99 92 100 98 81 88 92 69 70 83 95 85 100 100 100 100 100 100 100 100 100 100 100 100 100 100 100 100 100 100 100 100 100 100 100 100 100 100 100 98 80 83 85 76 62 66 49
14 23 30 81 100 98 75 90 100 84 73 71 88 91 95 100 100 100 100 100 100 100 100 100 100 100 100 100 100 99 99 100 100 100 100 100 100 100 98 98 100 88 82 70 65 56 59 49 52
13 18 25 37 98 100 95 90 82 85 66 61 62 80 94 100 100 100 100 100 100 100 97 100 100 100 100 100 100 100 100 100 100 100 100 100 98 90 79 77 76 72 66 65 64 67 57 53 54
12 14 25 30 54 100 89 69 79 59 51 68 73 70 79 100 100 100 100 100 100 100 91 90 95 100 100 100 100 100 100 100 100 100 100 100 100 94 84 73 64 54 52 57 69 58 62 57 50
12 12 15 28 44 65 74 68 75 58 67 50 52 70 73 80 97 100 100 100 100 96 91 93 88 85 90 91 91 93 100 99 99 97 96 96 94 92 94 86 71 59 62 58 64 59 54 45 44
14 13 13 15 24 48 64 55 100 69 57 51 46 54 67 73 90 100 100 100 97 98 98 96 90 88 95 92 83 83 86 97 98 98 93 92 95 95 99 89 74 71 62 64 58 53 42 39 48
18 15 12 12 14 27 48 40 100 96 74 67 60 51 47 64 80 95 100 100 100 100 98 91 94 96 99 95 96 98 100 100 100 100 100 90 91 88 92 77 83 80 73 63 52 38 37 43 64
20 19 18 15 14 15 19 26 78 100 82 72 72 72 63 51 57 83 98 100 100 100 99 96 95 92 92 96 100 100 100 100 100 99 86 87 93 88 97 84 80 71 58 48 42 43 52 76 66
17 19 20 19 18 15 16 17 23 94 79 58 66 64 53 59 60 63 83 96 100 100 100 100 100 100 100 100 100 100 96 96 99 98 90 97 100 95 92 76 62 54 43 43 38 50 82 66 42
19 17 19 19 20 21 19 16 18 21 54 78 44 30 36 40 50 72 75 84 93 98 99 100 100 100 100 100 100 100 100 100 100 100 100 97 88 77 69 55 46 44 41 38 59 79 69 43 32
26 22 19 17 18 21 20 18 16 18 21 27 45 35 40 32 36 42 60 81 91 89 98 100 100 100 100 100 100 100 100 100 100 92 87 75 72 62 52 48 48 52 45 63 74 67 37 31 41

GFSSGP_250_rhum_045.txt.gz
RH
100 100 100 92 81 88 100 100 98 61 37 25 41 86 77 64 43 28 27 26 24 24 26 33 35 44 62 54 50 62 85 72 63 53 40 30 30 30 31 33 34 31 28 22 22 24 28 33 33
92 100 100 93 62 85 100 100 100 74 44 30 27 49 81 58 34 26 23 24 26 24 28 42 51 52 50 48 58 62 66 59 51 36 30 29 27 25 27 30 28 24 23 24 26 29 34 38 38
71 95 97 93 63 88 95 100 100 83 52 36 26 34 67 57 32 24 24 24 28 24 24 29 43 55 54 56 49 43 47 45 33 25 24 26 28 31 30 27 25 27 29 30 29 30 34 41 44
57 63 72 80 72 89 81 100 100 84 54 39 28 31 54 49 27 31 25 27 31 25 23 26 32 42 46 43 39 38 33 25 24 26 29 31 33 31 30 29 30 31 32 31 30 31 34 40 42
65 67 62 57 93 88 89 100 100 98 57 41 25 27 48 49 32 36 26 27 30 30 25 24 28 32 33 34 33 28 25 26 27 28 31 32 33 32 32 32 31 31 32 30 30 30 34 38 41
54 62 71 51 94 68 80 100 100 100 78 72 36 34 59 59 42 38 26 28 27 29 31 27 23 24 26 27 26 26 27 26 28 31 32 31 31 31 30 29 28 29 29 29 30 33 35 38 44
44 69 74 55 65 68 73 92 100 100 92 84 59 48 67 56 63 61 38 31 32 31 33 33 29 25 24 23 23 24 25 28 29 29 31 32 31 28 29 31 33 33 33 32 35 43 46 49 51
25 74 78 64 61 59 89 90 96 100 100 93 84 58 77 70 55 66 39 41 37 40 38 35 38 32 30 27 27 29 31 29 29 30 31 37 40 44 44 44 49 48 46 48 54 54 53 46 42
16 45 76 61 59 46 87 94 91 100 100 100 88 78 72 71 46 48 47 39 40 38 45 43 42 42 40 40 40 38 39 39 36 38 40 41 43 49 60 65 57 55 49 46 45 43 42 40 40
14 29 85 85 99 87 82 97 99 100 100 100 100 93 83 75 56 49 52 38 42 41 42 46 47 51 51 52 51 50 47 46 45 46 46 44 42 47 54 52 47 44 41 41 41 44 48 55 73
15 20 89 84 100 100 66 73 100 100 100 100 100 100 90 82 63 55 48 48 45 46 46 48 51 53 52 52 55 53 48 43 43 47 44 41 40 43 47 48 44 40 39 42 46 46 58 76 76
16 17 47 73 78 100 100 74 83 100 100 100 100 100 100 84 73 58 44 47 44 45 50 55 60 60 59 57 57 54 51 49 48 50 48 52 52 50 49 47 42 44 51 55 58 73 86 83 94
17 17 37 82 64 100 100 100 66 94 100 100 100 100 100 95 88 71 65 69 69 60 57 58 56 54 57 59 59 58 55 52 53 52 51 52 57 60 57 56 56 56 59 67 81 89 91 97 87
17 18 24 80 80 100 100 100 82 98 100 100 100 100 100 100 97 92 90 89 85 78 68 61 56 56 59 59 60 66 66 72 73 69 79 76 69 60 57 59 65 71 75 85 90 100 100 92 86
15 20 18 81 82 100 100 95 88 88 100 100 100 100 100 100 99 90 86 90 96 90 80 68 58 58 64 71 72 74 71 74 89 86 74 63 64 62 63 71 74 76 92 100 100 100 96 91 88
14 19 18 63 94 96 100 97 84 87 97 100 100 100 98 100 100 100 89 86 83 86 89 89 75 71 65 69 86 95 95 96 86 71 71 69 71 72 79 84 90 100 100 100 98 100 92 87 78
12 17 18 38 97 95 100 100 100 71 92 100 100 100 100 100 100 100 98 81 77 72 71 74 68 68 63 60 63 70 73 72 75 78 79 83 87 92 100 100 100 100 100 100 100 99 91 85 75
14 17 21 30 86 95 100 100 100 92 69 99 100 100 100 100 100 100 100 100 93 82 78 79 84 78 70 67 68 70 76 79 84 94 99 100 100 100 100 100 100 100 100 100 96 97 93 83 83
14 16 29 26 51 62 100 94 100 100 78 60 90 100 100 100 100 100 100 100 100 100 100 96 88 86 85 83 90 100 100 100 100 100 100 100 100 100 100 100 100 100 100 100 100 96 89 93 81
14 15 19 28 48 44 72 83 100 100 99 68 54 82 96 97 97 100 100 100 100 100 100 100 100 100 100 100 100 100 100 100 100 100 100 100 100 100 100 100 100 100 100 99 91 89 84 85 77
15 14 17 24 32 74 45 43 97 100 100 83 72 63 76 91 96 98 100 100 100 100 100 100 100 100 100 100 100 100 100 100 100 100 100 100 100 100 100 100 100 96 96 98 95 84 83 82 81
16 14 15 19 30 96 70 49 81 100 100 84 73 72 69 74 87 92 99 100 100 100 100 100 100 100 100 94 100 100 100 100 100 100 100 100 100 100 100 96 100 97 90 92 86 84 84 75 79
17 14 15 18 26 47 76 60 77 91 100 100 79 61 68 67 68 85 90 96 100 100 100 100 100 100 100 100 100 100 100 100 100 100 100 98 96 92 100 95 88 88 81 80 85 93 85 84 84
17 16 14 16 18 34 43 49 89 65 98 97 77 59 53 61 71 69 81 88 100 100 100 100 100 100 100 100 100 100 100 100 100 100 100 100 100 100 96 91 84 80 88 86 85 79 83 78 78
20 18 15 14 16 21 35 31 94 77 88 86 80 58 54 59 68 77 85 90 83 92 100 100 100 100 100 100 100 100 100 100 100 100 100 98 99 99 99 99 98 93 88 86 86 85 88 80 72
24 23 18 15 15 19 27 28 97 66 58 73 74 66 39 42 56 74 87 86 96 100 100 100 100 100 100 100 100 100 100 100 100 100 94 97 100 98 100 95 97 93 91 98 88 88 75 69 56
24 22 21 17 15 15 18 29 74 97 66 75 68 58 63 38 31 45 64 79 84 88 90 94 99 100 100 100 100 100 100 100 100 100 100 100 97 100 100 100 100 97 93 90 86 77 65 52 40
21 26 24 21 18 16 16 18 24 58 82 82 68 64 43 33 27 23 34 54 74 88 93 94 96 100 100 100 100 100 100 100 100 100 100 100 100 100 100 100 100 97 95 92 81 61 48 37 39
29 25 26 27 23 21 18 17 18 29 36 35 58 65 52 37 25 18 20 28 41 58 70 81 87 93 100 100 100 100 100 100 100 100 100 100 100 100 100 98 90 96 82 71 54 41 37 42 55
31 30 22 21 26 27 27 24 22 22 47 51 35 41 42 45 30 28 27 28 28 32 38 48 62 74 86 92 100 100 100 100 100 100 100 100 99 100 93 94 88 79 62 43 36 44 54 66 59

GFSSGP_250_rhum_048.txt.gz
RH
100 100 94 100 90 91 100 100 100 100 88 66 46 38 76 100 100 100 74 56 34 34 37 35 46 48 46 57 63 67 64 57 45 59 77 65 58 43 32 31 31 30 30 28 26 24 26 27 29
100 100 100 100 100 92 100 100 100 99 85 83 56 45 57 89 72 97 56 42 32 33 30 25 25 26 29 40 66 74 71 56 65 79 73 59 47 34 32 31 26 27 27 26 28 29 28 27 28
100 100 100 100 100 100 100 100 100 94 84 81 70 58 64 85 58 84 55 34 30 30 28 25 24 28 38 39 48 70 60 57 68 72 59 47 34 29 28 27 29 29 27 27 30 30 28 29 30
91 81 100 100 100 100 100 100 100 98 71 77 81 66 72 65 63 71 57 28 29 28 28 29 25 29 46 53 55 54 51 59 58 54 47 35 26 26 28 30 30 28 27 30 32 30 29 29 30
68 54 72 100 100 100 100 100 100 100 87 63 81 87 86 95 54 53 47 30 31 30 30 33 26 25 32 47 56 54 56 48 42 40 31 28 28 28 30 30 27 28 29 29 28 28 30 31 34
60 64 44 91 100 100 100 100 100 100 97 78 64 75 78 100 70 45 45 35 32 34 32 33 29 24 28 36 45 48 46 40 37 30 26 25 25 27 28 27 28 28 29 31 33 37 39 40 47
36 53 51 63 100 100 100 100 100 99 97 81 67 66 72 83 96 69 49 47 38 40 36 33 34 26 25 30 35 36 36 34 31 28 25 25 29 30 29 32 31 32 38 41 46 49 52 50 44
20 37 54 66 80 93 83 100 100 100 89 85 91 74 98 91 86 68 45 44 36 41 39 36 32 32 29 24 27 30 31 27 28 26 27 30 32 32 30 31 35 41 47 56 57 52 45 38 35
13 18 34 53 84 79 72 71 100 100 93 66 100 100 100 100 92 67 53 45 31 40 40 40 35 31 36 31 27 28 28 29 30 30 32 33 35 36 40 44 48 48 50 52 43 36 36 37 39
10 11 17 24 53 87 68 68 100 100 87 70 100 100 100 93 99 86 60 46 36 33 49 48 43 38 39 40 37 32 32 32 34 40 44 41 42 45 44 45 47 44 41 39 41 45 48 52 54
11 10 12 15 27 57 71 69 90 99 82 86 94 100 100 100 100 99 80 60 52 56 50 53 50 45 42 44 44 43 44 47 51 54 52 50 46 45 46 46 43 43 47 55 56 54 54 52 55
13 11 12 20 20 30 56 70 90 88 80 83 98 100 100 100 100 100 95 67 49 47 62 56 54 52 50 48 49 50 51 50 53 54 55 52 50 52 51 50 47 57 67 62 56 55 56 62 60
14 14 13 16 27 22 36 56 73 88 72 84 100 100 100 100 100 100 100 92 69 53 68 68 63 60 58 57 55 51 52 54 54 55 55 56 55 56 60 63 80 80 67 60 60 65 70 66 81
16 16 14 16 34 24 22 53 68 86 68 80 100 93 100 100 100 100 100 100 94 74 61 67 72 65 64 64 62 60 62 65 58 57 59 61 69 78 89 95 91 71 67 71 74 75 74 93 97
17 15 16 17 25 18 26 27 52 98 71 62 100 98 100 100 100 100 97 100 96 84 80 86 86 78 71 64 62 59 60 58 59 60 67 80 84 75 92 96 81 73 79 89 87 96 100 93 100
16 16 16 18 20 20 20 29 57 84 75 84 84 100 100 100 100 100 100 90 97 94 80 67 62 73 77 71 68 65 64 62 66 74 84 96 99 100 92 75 78 91 100 98 99 98 100 98 91
14 16 14 16 18 47 24 43 61 84 67 74 81 92 100 100 100 100 100 100 91 92 82 71 67 60 67 74 75 73 77 78 73 78 76 81 82 76 79 91 96 99 94 93 100 100 96 95 82
19 20 20 17 19 27 44 52 97 99 81 64 70 100 100 100 100 100 100 100 100 97 87 84 78 75 75 74 76 78 84 96 93 86 84 82 86 98 100 99 89 94 100 100 100 100 95 89 84
20 21 22 20 18 19 36 71 63 100 99 64 70 93 100 100 100 100 100 100 99 100 100 100 96 96 97 94 91 92 97 92 93 90 94 99 100 100 99 99 100 100 100 100 96 86 89 90 80
20 20 20 19 18 19 24 40 77 97 100 75 59 92 100 100 100 100 100 100 100 100 100 100 100 100 100 100 96 88 92 98 99 100 100 100 100 100 100 100 98 92 90 86 85 93 100 94 96
19 20 21 21 17 17 22 28 56 92 100 100 56 69 100 100 98 100 100 100 100 100 100 100 100 100 100 100 100 100 100 100 99 95 96 100 100 100 100 94 94 98 100 100 100 100 100 100 100
19 19 20 19 17 16 19 25 26 68 100 100 97 52 87 100 97 95 100 100 100 100 100 100 100 100 100 100 100 100 100 100 100 100 100 100 100 100 100 100 100 100 100 100 100 100 100 89 87
20 18 20 21 18 17 17 24 30 54 81 100 100 98 52 74 90 84 83 99 100 100 100 100 100 100 100 100 100 100 100 100 100 100 100 100 100 100 100 100 100 100 100 100 92 85 91 94 97
19 19 20 21 20 16 16 18 35 31 97 100 100 100 94 50 54 72 76 92 99 100 100 100 100 100 100 100 100 100 100 100 100 100 100 100 100 100 100 100 99 99 94 92 96 96 98 100 100
22 22 21 21 21 18 17 17 55 36 33 90 100 100 98 89 66 55 69 68 74 86 96 100 100 100 100 100 100 100 100 100 100 100 100 100 100 100 100 100 99 100 100 100 100 100 100 100 98
26 26 24 25 24 23 18 19 34 35 30 34 85 100 100 83 75 71 66 62 62 67 72 69 85 100 100 100 100 100 100 100 100 100 100 100 100 100 100 100 100 100 100 100 100 100 100 100 94
26 25 24 26 26 24 21 18 23 27 32 38 50 49 76 100 60 51 59 65 60 56 61 67 67 80 94 99 100 100 100 100 100 100 100 100 100 100 100 100 100 100 100 100 100 100 99 98 76
28 33 27 27 28 26 24 19 20 23 26 33 43 51 42 32 76 55 24 29 41 55 59 62 64 68 75 81 87 96 100 100 100 100 100 100 100 100 100 100 100 100 100 99 98 92 85 73 61
26 28 30 32 35 30 29 25 19 20 23 26 36 38 41 40 33 40 46 25 20 31 42 54 66 72 78 81 87 88 97 100 100 100 100 100 100 100 100 100 100 99 92 85 82 72 58 44 33
34 29 30 32 34 36 35 37 27 22 20 22 25 30 36 36 37 36 32 30 23 18 18 24 34 44 54 62 66 72 85 93 99 100 100 100 100 94 100 93 85 81 71 61 45 38 40 30 32

GFSSGP_250_rhum_051.txt.gz
RH
86 44 63 74 80 80 89 93 79 75 67 72 95 78 49 46 61 57 66 74 91 88 82 63 50 42 42 65 75 67 53 47 58 60 58 53 55 71 59 55 40 32 29 31 28 27 27 26 27
100 62 46 67 68 74 99 100 79 80 77 96 100 94 65 54 56 52 78 78 72 76 77 58 38 38 39 51 59 63 64 66 61 63 61 64 69 77 59 48 34 31 30 28 28 27 26 28 29
97 100 50 44 60 84 100 100 93 85 88 83 100 100 79 70 58 56 71 86 82 97 72 43 34 32 33 36 32 32 45 76 79 74 65 81 83 67 51 38 32 29 29 29 31 28 28 28 28
77 100 93 48 61 83 98 100 93 85 85 93 92 100 100 90 81 63 53 60 90 83 65 35 32 30 26 25 26 31 35 68 85 77 68 75 70 59 43 31 29 32 31 33 30 26 26 28 28
18 94 100 75 90 90 100 100 100 83 88 96 95 100 100 100 90 77 58 50 83 76 62 34 30 30 28 25 27 44 42 52 76 66 61 59 58 46 37 32 30 32 33 30 28 26 29 33 33
16 40 100 100 100 100 100 100 100 99 100 92 100 100 100 100 100 87 78 63 52 72 57 39 30 28 31 26 26 37 55 58 61 58 58 47 45 38 32 30 30 32 33 33 33 33 37 39 45
12 48 83 100 100 100 100 100 100 100 100 100 100 100 100 100 100 100 97 77 51 64 53 39 32 26 31 31 25 28 41 58 58 57 48 44 38 33 30 31 33 35 35 37 37 39 44 47 50
12 38 69 100 100 100 100 100 100 100 100 100 98 100 98 100 100 100 100 97 66 56 48 38 30 27 30 34 28 26 33 42 46 45 41 40 36 30 32 33 34 36 36 39 41 42 43 38 35
13 17 63 100 100 100 100 100 100 100 100 100 100 100 100 100 100 100 100 100 71 51 39 38 33 31 30 37 34 30 27 32 35 37 38 36 34 37 34 38 46 49 44 45 43 41 39 39 41
12 14 28 82 100 100 100 100 100 100 100 100 100 100 100 100 100 100 100 100 96 51 43 50 45 33 35 40 37 35 32 28 31 35 32 30 32 34 42 52 50 48 45 44 43 43 44 55 60
12 14 18 43 83 81 88 100 100 100 100 100 100 100 100 100 100 100 100 100 100 89 64 50 52 39 35 40 40 39 36 35 30 29 30 33 37 42 53 55 50 48 49 47 47 50 74 67 62
11 13 15 18 40 75 79 94 94 88 100 100 100 100 100 100 90 89 100 100 100 100 77 62 52 47 37 44 45 46 44 42 43 41 40 39 45 50 52 50 47 49 53 56 62 87 83 73 67
16 14 14 16 18 32 56 82 89 77 90 100 100 100 100 100 92 83 100 100 100 100 100 87 74 64 60 54 52 46 49 49 47 46 46 46 49 51 53 51 51 53 56 68 86 92 83 73 77
20 14 15 14 16 18 28 52 75 82 78 99 100 100 100 100 100 86 86 100 100 100 100 95 74 81 76 73 62 55 48 50 52 51 50 50 54 62 57 55 54 63 72 92 99 86 82 88 76
19 17 16 15 16 16 17 20 43 64 75 75 100 100 100 100 100 88 87 100 100 100 98 100 93 85 94 80 78 64 58 51 51 53 55 56 60 61 54 64 72 91 100 100 89 87 95 85 80
20 19 17 16 17 16 17 19 18 30 45 67 99 100 100 100 100 90 95 100 100 100 97 100 100 89 94 90 82 77 67 56 54 56 58 60 63 63 64 69 83 92 99 97 94 98 95 86 83
18 20 20 18 17 16 16 20 22 21 23 45 64 100 100 100 99 86 93 100 100 100 100 90 99 100 100 92 78 80 84 77 74 69 67 69 72 73 82 86 83 92 95 98 100 99 94 91 90
20 24 24 21 20 20 19 19 19 18 15 19 33 85 100 100 100 92 94 100 100 100 100 82 82 75 85 96 89 88 92 82 80 78 80 84 86 92 97 90 97 92 99 100 99 92 92 93 86
21 22 22 23 22 23 19 19 20 18 15 14 19 52 90 100 98 91 90 100 100 100 100 100 93 88 78 95 100 96 92 92 94 95 98 98 97 92 100 100 100 100 100 100 99 92 87 88 77
19 22 19 18 19 20 21 19 19 19 17 12 14 24 79 100 100 100 100 99 100 100 100 100 100 100 91 78 98 100 95 93 97 100 98 94 100 100 100 100 100 100 100 97 96 90 93 93 100
18 20 20 20 19 19 18 16 21 28 24 17 14 20 51 92 100 100 100 100 100 100 100 100 100 100 100 96 100 100 100 100 100 100 100 100 100 100 100 100 99 99 100 100 100 100 100 100 100
16 18 19 18 18 20 17 18 26 27 22 22 24 29 57 86 100 100 100 100 100 100 100 100 100 100 100 100 99 100 100 100 100 100 100 100 100 98 92 90 99 100 100 100 100 100 100 100 100
14 17 17 18 19 17 17 19 23 24 30 46 50 35 50 93 100 100 100 100 100 100 100 100 100 100 100 100 100 100 100 100 100 100 96 88 86 95 100 100 100 100 100 100 100 100 100 100 96
17 18 18 18 18 17 18 18 28 24 26 44 31 62 70 54 98 100 100 100 100 100 100 100 100 100 100 100 100 100 100 100 100 100 100 100 100 100 100 100 100 100 100 100 100 100 100 100 100
17 17 18 17 17 19 20 18 33 24 26 28 81 64 84 71 39 94 100 100 100 100 100 100 100 100 100 100 100 100 100 100 100 100 100 100 100 100 100 100 100 100 100 100 100 100 100 100 100
20 21 22 21 22 21 22 23 30 26 23 23 27 99 85 57 50 45 74 100 100 99 100 100 100 100 100 100 100 100 100 100 100 100 100 100 100 100 100 100 100 100 100 100 100 100 100 100 100
25 24 27 24 23 24 22 24 31 27 22 20 22 25 93 97 98 71 44 40 85 100 97 98 100 100 97 98 96 96 100 100 100 100 100 100 100 100 100 100 100 100 100 100 100 100 100 98 100
25 26 30 30 26 27 27 25 29 31 28 25 22 24 31 72 84 99 83 79 49 44 65 86 93 96 100 100 99 100 100 100 100 100 100 100 100 100 100 100 100 100 100 100 100 100 100 98 93
31 27 29 35 34 33 36 30 31 32 32 29 24 21 24 36 50 82 100 73 53 58 53 47 54 67 74 75 75 76 78 79 82 86 91 95 100 100 100 100 100 100 100 100 100 99 94 84 60
43 36 38 36 40 38 44 38 34 35 34 30 27 23 20 21 31 40 53 78 60 38 32 45 50 49 54 67 71 70 72 74 79 87 93 91 100 100 100 98 94 88 81 79 79 73 56 50 35

GFSSGP_250_rhum_054.txt.gz
RH
35 81 56 72 99 100 88 73 81 74 74 62 88 98 93 65 46 46 44 50 58 62 70 75 83 79 73 60 53 43 42 44 43 41 40 46 59 59 54 48 58 56 49 37 32 30 30 27 25
33 70 69 53 66 82 91 89 63 93 77 84 93 100 100 88 54 46 46 45 57 57 66 89 95 98 77 63 50 41 45 61 61 57 49 54 61 59 63 62 70 58 46 35 34 32 30 29 27
49 48 52 55 44 54 67 97 73 80 82 90 96 99 100 100 75 54 44 47 54 55 64 100 100 95 71 49 39 37 42 56 59 67 68 73 67 64 78 79 68 54 40 34 33 33 31 30 28
34 48 38 59 45 40 69 95 92 72 89 100 100 100 100 100 100 87 55 47 54 57 64 98 100 90 61 38 34 35 40 39 31 40 72 90 78 71 77 79 64 48 38 35 34 34 33 31 27
11 22 30 89 50 49 74 97 95 81 88 90 100 100 100 100 100 100 72 58 54 62 64 100 100 88 51 33 30 27 26 26 31 33 58 97 83 73 72 64 57 44 39 35 35 34 35 32 30
12 16 26 54 97 75 79 92 97 84 84 92 98 95 100 100 100 100 94 72 68 58 72 83 92 83 45 32 31 29 26 26 41 44 45 87 81 65 58 58 47 44 39 35 35 36 35 36 32
11 14 23 68 96 100 91 87 92 81 87 99 93 100 100 100 100 100 100 86 81 74 64 62 77 64 41 31 31 32 29 26 33 53 55 61 66 60 53 50 45 39 38 36 36 35 36 39 37
10 12 19 29 70 99 88 84 84 85 86 92 90 92 100 100 100 100 100 100 90 79 71 69 66 48 41 30 29 33 34 27 27 43 60 62 61 58 51 47 40 37 38 38 39 37 38 39 41
11 11 15 19 29 51 71 76 79 71 82 90 98 97 100 100 100 100 100 100 99 90 85 83 70 58 50 33 28 33 35 34 26 31 45 53 54 50 49 43 40 37 36 37 41 47 47 47 44
10 10 13 15 16 26 78 87 73 82 73 80 94 100 100 100 100 100 100 100 100 98 98 99 87 75 64 40 32 30 34 35 32 28 31 40 42 43 41 40 36 35 41 48 54 54 52 49 51
9 11 14 14 16 17 62 100 90 78 68 82 93 100 100 100 100 100 100 100 100 100 100 100 100 91 70 43 35 30 32 36 39 37 30 31 36 38 38 35 35 39 47 51 54 49 48 53 51
10 11 12 16 18 20 45 100 100 96 83 84 98 100 100 100 100 100 100 98 100 100 100 96 100 92 82 63 42 36 40 36 41 40 41 37 34 33 34 37 41 45 50 54 52 55 58 57 63
10 12 13 14 18 23 36 88 100 100 100 94 98 100 99 100 100 100 100 100 100 100 92 91 97 97 98 84 68 44 42 45 37 45 46 48 45 44 47 48 50 53 58 58 57 60 62 82 95
12 13 16 15 18 19 54 72 100 100 100 100 100 100 100 100 100 100 100 100 99 100 100 100 76 96 100 100 86 83 54 48 50 43 43 45 50 53 54 50 52 58 61 60 59 66 66 86 78
14 14 17 17 16 21 36 70 100 100 100 100 100 100 100 100 100 100 100 100 100 100 100 100 100 89 95 100 100 86 76 56 51 51 48 47 48 48 49 52 56 62 62 62 62 65 75 81 84
18 15 15 19 18 18 18 50 87 96 100 100 100 100 100 100 100 100 100 100 100 100 100 100 100 91 85 76 100 100 94 73 60 53 57 56 54 52 55 56 57 61 65 68 72 81 83 81 87
19 17 16 16 16 18 18 22 60 65 84 100 100 100 100 100 100 100 100 100 100 100 100 100 100 100 85 88 99 98 94 81 69 70 66 71 69 67 61 61 63 70 74 77 90 90 95 94 98
18 19 18 18 24 21 17 20 22 43 54 86 99 100 100 100 100 100 100 100 100 100 100 100 100 100 100 90 84 91 94 90 85 85 80 77 82 86 82 75 73 77 88 96 100 99 100 100 100
14 20 21 22 23 23 19 19 21 22 29 46 79 92 97 100 100 100 100 100 100 100 98 100 100 100 100 87 74 67 81 73 75 86 89 92 93 95 92 94 91 96 99 99 100 100 100 100 100
16 17 22 22 23 22 23 20 19 21 22 20 22 53 85 98 100 100 99 100 100 100 92 100 100 100 100 100 100 95 95 95 77 84 95 96 94 96 98 99 100 100 100 100 100 100 100 100 99
17 18 22 25 24 18 21 22 21 21 20 22 24 23 31 77 98 100 100 100 100 100 97 100 100 100 100 100 100 100 99 98 88 80 92 100 100 100 100 100 100 100 100 100 100 100 100 93 100
19 18 20 22 24 22 18 20 23 22 20 22 23 26 21 23 54 90 100 100 98 94 99 97 100 100 100 100 100 100 100 100 100 98 100 100 100 100 100 100 100 100 100 100 96 85 89 100 100
17 20 19 21 21 21 18 20 23 25 26 23 23 24 24 20 20 26 59 99 100 100 98 100 100 100 100 100 100 100 100 100 100 100 100 100 100 100 100 100 100 100 100 97 91 100 100 100 100
17 19 18 19 19 22 22 21 25 25 24 23 23 22 26 22 18 17 21 34 86 100 100 100 100 100 100 100 100 100 100 100 100 100 100 100 100 100 100 100 100 100 99 100 100 100 100 100 100
15 15 16 16 21 24 24 22 29 23 22 21 22 23 25 25 23 20 18 27 36 97 100 100 100 100 100 100 100 100 100 100 100 100 100 100 100 100 100 100 100 100 100 100 100 100 100 100 100
15 15 18 22 26 30 25 23 30 28 22 21 20 20 23 27 30 24 21 25 54 54 99 100 100 100 100 100 100 100 100 100 100 100 100 100 100 100 100 100 100 100 100 100 100 100 100 100 100
21 19 22 23 24 24 22 20 25 25 22 22 22 22 21 24 29 30 30 33 42 72 81 94 100 100 100 100 100 100 100 100 100 100 100 100 100 100 100 100 100 100 100 100 100 100 100 100 100
33 30 26 23 24 22 22 21 22 25 26 23 22 22 21 24 31 39 53 47 47 47 70 86 85 100 100 100 100 100 100 100 100 100 100 100 100 100 100 100 100 100 100 100 100 100 100 100 100
40 36 33 34 33 28 26 22 23 22 23 24 21 21 22 25 29 32 40 59 62 58 44 56 78 74 83 100 100 100 100 100 100 100 100 100 100 100 100 100 100 100 100 100 100 100 100 99 92
58 54 48 44 44 36 32 29 25 22 23 24 24 22 23 23 27 29 31 64 90 84 76 72 49 59 68 93 100 100 100 100 100 100 100 100 100 100 100 100 100 100 99 100 98 97 91 78 71

GFSSGP_250_rhum_057.txt.gz
RH
75 100 100 47 44 57 64 90 100 76 72 82 100 92 78 72 60 46 52 44 45 50 50 51 55 63 65 61 62 57 46 42 35 34 32 36 40 37 55 65 64 58 54 61 54 47 37 33 32
20 54 100 73 39 48 59 72 100 91 58 76 100 100 92 68 84 86 55 46 49 54 56 55 59 67 64 66 62 62 54 48 43 40 38 44 47 45 53 63 66 68 65 65 57 47 36 34 34
10 14 79 100 54 51 50 52 97 93 88 76 87 100 92 98 87 100 90 54 43 50 52 55 58 66 62 68 78 78 68 51 45 35 40 56 68 65 61 67 73 76 78 67 58 43 37 35 33
9 12 34 100 100 92 61 49 65 98 86 77 84 100 100 100 100 100 100 66 43 43 49 50 57 60 55 86 93 75 61 42 37 32 41 46 53 77 82 73 78 81 80 69 54 42 36 34 33
9 10 26 63 99 100 76 62 79 86 97 90 80 94 99 100 100 100 100 100 51 41 46 55 61 63 53 55 73 79 54 36 32 33 31 27 29 47 97 88 82 76 75 65 52 43 35 36 33
8 10 14 42 63 80 61 71 98 100 100 99 100 94 97 100 100 99 100 100 86 56 50 55 59 69 63 88 99 84 51 32 28 26 26 31 40 36 88 96 83 71 63 58 48 42 38 38 32
8 9 11 14 37 62 50 45 78 75 98 100 99 100 97 83 100 100 100 100 100 99 71 56 55 62 66 87 95 73 47 32 29 28 26 31 48 43 56 89 80 65 57 55 48 40 40 36 39
10 9 12 12 15 33 49 47 52 83 74 99 100 89 94 82 92 100 100 100 100 100 93 66 64 57 60 75 77 69 48 32 29 31 28 27 45 58 54 63 65 61 54 50 41 41 36 38 44
10 10 10 13 12 10 20 23 55 88 84 79 91 100 100 89 90 100 100 100 100 100 100 90 81 78 71 63 79 67 47 33 28 30 33 27 30 53 62 64 62 60 54 48 40 39 37 39 43
11 10 11 14 12 11 15 21 59 84 85 82 72 91 100 100 99 100 99 96 100 97 100 100 96 90 78 74 75 67 50 35 28 28 34 31 28 33 47 51 54 51 50 47 41 36 36 41 49
11 12 13 13 12 13 19 31 64 74 65 69 85 96 96 100 100 100 100 94 99 100 100 100 100 99 91 85 84 68 54 40 33 28 32 36 33 32 33 38 40 44 43 44 38 36 41 52 56
13 14 13 13 14 17 16 28 51 62 71 77 78 90 97 100 100 100 100 100 94 97 100 99 96 98 91 80 82 82 74 54 40 32 28 35 38 37 40 41 45 47 48 40 40 48 51 55 54
13 13 14 13 15 19 16 17 30 81 100 100 100 100 100 100 100 100 100 100 92 98 100 100 100 100 100 100 97 91 87 72 58 40 35 30 37 39 42 44 44 43 44 46 51 53 57 58 61
15 14 15 16 15 17 20 16 18 29 98 100 100 100 100 100 100 100 100 100 100 95 100 100 97 100 100 100 100 100 98 92 76 60 48 36 34 39 42 42 46 52 54 54 53 55 56 58 60
13 13 13 15 16 17 19 19 18 30 58 100 100 100 100 100 100 100 100 100 100 96 100 96 100 99 100 100 100 100 100 100 94 77 55 49 50 45 43 45 50 50 52 53 54 57 56 57 68
14 17 14 16 19 17 17 22 28 20 31 48 96 100 100 100 100 100 100 100 100 100 100 94 99 94 99 100 100 100 100 100 99 92 85 74 61 61 57 52 55 59 58 57 59 60 65 76 75
16 17 14 15 18 19 17 20 21 22 22 50 51 59 67 99 100 100 100 100 100 100 100 100 100 94 96 100 100 100 100 100 94 93 82 89 83 75 66 60 54 57 62 66 70 74 82 82 83
17 15 12 16 18 22 20 20 20 28 21 30 75 80 72 86 98 100 100 100 100 100 100 100 100 100 95 100 100 99 95 92 92 76 64 73 80 89 82 78 73 68 71 72 79 87 90 89 94
20 21 20 22 21 21 23 21 20 21 40 24 36 89 100 91 100 100 100 100 100 100 100 100 100 100 100 100 100 95 98 91 81 72 64 65 70 75 93 86 88 90 85 83 94 97 94 99 100
17 18 21 22 21 24 26 25 20 21 26 64 43 80 100 100 100 100 100 100 100 100 100 100 100 100 100 100 100 100 91 92 80 67 71 70 76 86 84 78 85 96 100 100 100 100 100 100 91
16 19 23 22 23 23 27 26 23 21 22 25 83 78 94 100 100 100 100 100 100 100 100 100 100 100 100 100 100 100 100 100 98 88 97 90 89 81 82 86 81 90 100 100 98 100 100 97 100
16 16 17 20 23 24 24 23 28 24 23 24 24 95 85 94 100 100 100 100 100 100 100 100 100 100 100 100 100 100 100 100 92 100 100 100 99 87 83 83 96 99 100 100 100 100 100 100 100
17 17 17 22 21 24 23 24 27 29 27 23 23 23 79 97 86 90 100 100 100 100 100 100 100 100 100 100 100 100 100 100 100 100 100 99 96 100 100 100 100 100 100 100 100 100 100 100 100
17 19 18 19 18 21 24 24 26 25 27 25 24 23 25 51 92 48 83 100 100 100 100 100 100 100 100 100 100 100 100 100 100 100 100 100 100 100 100 100 100 100 100 100 100 100 100 100 100
18 18 17 17 20 24 25 25 25 24 26 28 26 24 24 25 29 62 27 44 89 100 100 100 100 100 100 100 100 100 100 100 100 100 100 100 100 100 100 100 100 100 100 100 100 100 100 100 100
18 19 21 22 24 26 27 23 24 25 22 22 25 28 25 24 25 26 26 28 22 24 45 84 98 94 95 100 100 100 100 100 100 100 100 100 100 100 100 100 100 100 100 100 100 100 100 100 100
19 19 20 24 26 29 33 26 30 24 21 20 23 23 27 27 24 23 24 25 25 22 21 21 28 49 66 71 91 100 100 100 100 100 100 100 100 100 100 100 100 100 100 100 100 100 100 100 100
21 22 23 23 24 29 34 29 28 29 24 27 25 24 24 27 28 26 23 24 24 27 23 20 20 21 25 35 44 62 88 100 100 100 100 100 100 100 100 100 100 100 100 100 100 100 100 100 100
24 22 23 24 29 28 26 24 26 29 26 27 26 23 21 23 26 27 26 24 26 27 28 27 24 23 23 23 25 29 52 77 89 100 99 100 100 100 100 100 100 100 100 100 100 100 100 100 100
44 40 32 27 32 28 27 26 26 26 24 21 21 19 18 18 22 23 23 26 26 29 29 30 29 28 28 27 29 27 42 66 76 81 90 100 100 100 100 100 100 100 100 100 100 100 100 100 100

GFSSGP_250_rhum_060.txt.gz
RH
47 91 94 75 63 41 73 95 100 97 100 91 93 74 82 72 69 73 75 72 65 56 50 46 40 41 48 50 61 55 47 44 42 38 37 42 40 38 39 41 45 63 66 65 62 57 60 56 48
10 24 70 80 72 59 47 98 92 98 97 100 98 98 94 72 68 81 76 64 66 58 51 47 43 39 40 47 60 56 49 44 46 43 42 39 42 43 48 47 50 59 68 68 72 68 66 60 49
8 12 24 92 90 89 47 95 84 100 100 100 100 97 83 91 87 79 69 59 73 64 48 42 43 47 43 46 58 60 53 51 52 54 46 42 39 44 58 65 65 67 67 78 80 81 70 60 48
8 8 12 83 100 94 62 75 90 74 98 100 100 99 88 72 88 77 86 73 78 72 54 46 46 48 51 52 51 55 55 72 76 56 46 35 33 37 53 58 75 88 76 79 90 84 73 62 51
8 7 10 32 100 100 90 60 63 52 64 89 100 100 90 94 85 67 78 80 84 96 76 56 50 50 54 50 48 47 49 56 58 56 47 32 31 30 28 29 40 96 90 85 85 78 71 62 51
9 8 8 13 56 100 100 83 70 81 54 55 96 100 100 99 93 86 71 91 81 92 97 72 52 50 53 51 51 48 50 53 90 71 48 30 24 25 27 39 38 56 100 97 85 73 63 58 51
10 9 8 13 25 77 100 100 99 93 64 60 99 100 96 100 90 90 66 83 96 100 100 100 90 49 46 48 51 56 58 68 99 77 46 32 24 25 26 42 44 42 78 96 83 68 59 55 50
12 9 10 14 18 40 73 90 100 99 78 94 100 100 100 100 100 88 68 80 97 100 100 100 100 73 51 52 51 53 59 66 85 73 46 32 28 25 26 30 51 48 53 64 69 63 58 52 46
12 10 10 14 17 17 30 51 71 99 75 99 81 100 100 100 100 95 79 73 76 100 100 100 100 100 88 61 62 58 56 53 67 65 49 33 30 26 26 26 33 55 61 61 63 62 58 54 50
10 12 15 17 18 12 12 16 26 93 87 100 95 83 100 100 100 97 98 99 94 76 100 100 100 100 100 91 74 70 70 55 56 61 50 34 31 28 28 26 27 31 44 53 53 52 50 49 50
10 11 20 16 15 14 12 12 24 36 100 99 100 100 100 100 100 91 71 96 99 84 78 100 100 100 100 100 90 90 84 70 65 64 57 42 32 29 29 31 27 26 29 33 39 39 43 47 46
11 14 16 17 16 15 15 13 22 30 66 100 100 100 100 100 100 97 97 80 100 86 84 74 98 100 100 100 96 96 92 83 76 68 67 51 40 33 30 31 33 31 30 32 35 39 42 42 40
10 12 14 19 17 18 16 16 17 20 63 95 100 100 100 100 100 100 100 91 100 100 100 98 86 89 99 92 100 100 100 98 95 90 84 76 57 46 42 34 34 36 36 39 40 42 44 46 48
10 13 15 20 20 16 19 19 14 16 34 58 97 91 99 100 100 100 100 100 100 100 100 100 92 85 86 100 100 100 100 100 100 100 99 94 82 66 53 45 41 42 44 42 40 42 44 47 47
11 13 16 19 20 18 17 16 18 15 16 23 40 84 98 100 100 100 100 100 100 100 100 100 98 100 95 80 89 100 100 100 100 100 100 100 95 90 90 73 61 50 42 47 46 45 48 50 55
10 12 10 17 18 21 19 20 23 13 17 19 25 62 91 95 100 100 100 100 100 100 100 100 100 98 92 99 99 98 100 100 100 100 100 100 100 100 100 95 92 84 70 59 56 55 57 61 59
10 12 12 16 24 17 20 21 20 20 19 20 20 32 46 42 100 100 100 100 100 100 100 100 100 100 97 95 100 100 100 100 100 100 100 100 100 100 100 77 68 68 71 78 82 83 78 74 72
12 13 12 13 17 18 20 23 20 26 19 19 20 22 29 35 73 100 100 100 100 100 100 100 100 100 100 100 100 100 97 100 100 100 100 100 92 87 73 61 61 54 54 60 73 84 90 89 91
18 19 12 15 16 19 23 22 21 20 25 26 20 26 24 40 71 79 100 100 100 100 100 100 100 100 100 100 100 100 100 100 100 100 100 100 86 80 73 69 68 66 73 72 73 66 74 80 86
16 19 19 17 16 21 22 22 22 23 22 60 30 22 26 38 50 64 100 100 100 100 100 100 100 100 100 100 100 100 100 100 100 100 100 100 96 93 87 71 71 71 72 70 77 75 82 93 95
14 15 13 14 13 13 19 23 23 27 25 29 76 30 24 30 34 60 96 100 100 100 100 100 100 100 100 100 100 100 100 100 100 100 100 100 99 92 95 100 98 90 86 81 94 90 99 98 100
13 17 15 15 14 18 19 25 24 26 29 26 39 73 34 26 19 22 54 81 100 100 100 100 100 100 100 100 100 100 100 100 100 100 100 99 94 83 83 89 89 98 99 96 91 94 99 92 100
15 15 15 15 17 19 20 26 27 27 31 29 30 38 59 71 25 21 41 53 46 66 89 94 100 100 100 100 100 100 100 100 100 100 100 100 100 100 100 100 94 94 94 94 98 95 96 92 100
16 19 19 21 17 17 23 29 29 28 33 29 30 28 29 35 98 57 27 88 73 78 75 98 100 100 100 100 100 100 100 100 100 100 100 100 100 100 100 100 100 100 95 95 100 100 100 100 100
16 17 18 20 17 21 26 29 29 31 31 31 30 28 27 26 26 64 86 66 72 70 90 96 100 100 100 100 100 100 100 100 100 100 100 100 100 100 100 100 100 100 100 100 100 100 100 100 100
17 19 19 22 24 25 26 27 32 31 31 28 26 29 28 26 25 25 39 100 100 80 49 78 100 100 100 100 100 100 100 100 100 100 100 100 100 100 100 100 100 100 100 100 100 100 100 100 100
16 17 19 22 24 23 24 21 24 25 30 27 27 30 30 29 28 24 26 27 90 100 100 71 55 83 100 100 100 100 100 100 100 100 100 100 100 100 100 100 100 100 100 100 100 100 100 100 100
16 18 22 24 24 25 26 21 19 17 21 26 27 26 28 29 30 31 29 26 26 33 81 100 100 85 66 87 100 100 100 100 100 100 100 100 100 100 100 100 100 100 100 100 100 100 100 100 100
20 20 22 23 24 24 24 24 24 22 21 21 26 26 26 26 27 28 30 32 28 27 28 30 50 85 88 56 42 58 63 73 84 84 84 81 75 68 68 84 96 100 100 100 100 100 100 100 100
23 22 21 21 22 21 21 25 29 27 28 24 23 22 25 28 28 27 27 28 30 32 29 27 26 27 28 29 29 26 26 23 24 24 25 26 25 23 26 31 39 40 50 69 85 95 100 100 100

GFSSGP_250_rhum_066.txt.gz
RH
3 4 6 14 47 54 69 38 66 100 100 92 83 80 94 68 78 68 61 69 67 69 63 57 55 59 64 74 59 40 36 58 66 65 61 60 51 48 49 49 45 46 39 39 42 49 59 71 75
2 4 5 8 10 25 61 67 38 84 97 88 80 98 99 86 99 77 70 60 67 62 62 58 58 59 71 72 68 52 40 44 60 57 53 53 51 53 54 48 46 43 40 44 47 54 60 76 80
2 3 4 7 7 25 99 74 78 99 99 89 85 94 95 75 86 90 84 71 71 68 61 59 64 66 76 71 61 57 46 43 44 43 51 52 51 50 51 48 45 34 33 40 49 64 71 82 84
2 2 4 5 7 14 100 98 100 100 81 100 96 93 100 82 98 75 86 81 80 72 72 74 61 63 74 79 67 59 50 45 43 43 48 54 51 44 49 61 46 30 31 33 33 30 35 67 95
2 3 3 4 9 19 96 98 100 100 100 83 100 100 90 94 96 94 98 84 82 83 69 70 71 58 68 72 73 61 55 50 49 50 51 52 55 50 45 73 67 31 26 25 25 31 38 37 60
3 3 2 5 13 17 65 94 100 100 100 100 74 100 100 90 78 88 96 75 83 94 90 74 79 81 59 63 62 69 63 59 56 55 52 55 52 52 46 68 72 40 29 26 25 27 34 38 38
2 3 3 7 15 16 21 100 100 100 100 100 60 98 100 100 83 99 80 81 89 100 95 98 91 85 74 71 57 68 67 62 63 60 54 52 48 45 46 44 49 56 33 31 27 26 28 40 40
3 4 3 8 16 18 14 100 100 100 100 100 100 69 100 100 90 92 98 68 86 98 100 100 94 87 81 80 62 74 94 87 73 61 54 52 46 42 46 43 47 56 39 31 31 28 27 29 36
4 4 4 9 15 19 15 47 100 100 100 100 100 90 91 100 98 100 75 76 100 100 100 100 100 97 87 94 75 72 96 100 100 98 71 50 48 46 46 45 46 49 42 32 30 30 28 27 27
4 4 4 9 16 20 19 19 60 100 100 100 100 88 83 100 98 99 91 67 81 100 100 100 100 100 96 94 91 79 84 100 100 98 96 80 60 55 56 53 53 51 49 41 33 30 27 28 29
3 4 4 7 12 20 23 21 29 77 100 100 100 95 100 100 98 83 100 100 70 82 94 91 100 100 100 100 100 88 77 77 100 100 99 85 100 92 74 72 71 67 60 54 45 39 33 29 28
4 5 5 8 12 21 26 23 22 47 100 100 100 100 100 98 100 100 100 100 96 84 94 100 95 100 100 100 100 100 80 68 68 89 98 99 100 100 100 91 91 86 80 72 63 54 48 44 37
5 5 6 7 11 18 25 24 23 65 95 100 100 100 100 100 100 100 100 100 100 77 99 91 100 100 92 100 100 100 98 81 70 68 78 99 100 100 100 100 100 98 99 90 82 84 73 67 65
4 6 6 6 11 18 23 28 21 46 63 100 100 100 100 100 100 100 100 100 100 91 89 99 87 91 85 97 100 100 100 100 78 80 76 85 100 100 100 100 98 100 100 100 93 90 85 78 72
4 6 8 7 11 18 23 27 25 27 88 94 100 100 100 100 100 100 100 100 100 100 97 100 100 100 100 100 100 100 100 100 100 98 100 88 85 91 97 100 100 100 100 100 100 100 100 93 99
5 6 6 6 12 13 20 27 26 25 38 96 98 100 100 100 100 100 100 100 100 100 93 100 100 93 74 85 91 98 100 100 100 100 90 100 98 100 100 100 100 100 100 100 100 99 87 91 99
5 7 8 8 11 20 22 25 26 28 28 58 100 100 100 100 100 100 100 100 100 100 100 100 100 100 93 90 97 84 95 98 100 100 94 95 90 97 100 100 100 100 100 100 100 85 81 84 94
6 7 12 11 9 17 19 27 29 28 30 35 80 100 100 100 100 100 100 100 100 100 100 100 100 100 84 86 100 98 99 100 100 100 95 81 89 90 100 100 100 100 100 100 98 88 92 100 100
10 11 12 13 13 15 24 30 31 28 33 29 30 100 100 100 100 100 100 100 100 100 100 100 99 100 83 83 96 100 100 100 98 89 76 88 84 93 100 100 100 100 100 100 100 100 100 100 98
9 11 13 11 14 10 17 30 24 28 30 40 33 51 100 100 100 100 100 100 100 100 100 100 100 100 100 80 80 100 100 100 100 100 100 100 98 100 100 100 100 100 100 100 100 100 100 100 100
9 13 13 16 18 17 9 16 13 18 31 34 52 29 36 74 100 100 100 100 100 100 100 100 100 100 100 100 100 100 100 100 100 100 98 100 100 95 91 95 92 100 100 100 100 97 98 93 94
11 14 12 11 20 22 11 11 13 14 22 34 33 47 28 26 81 100 100 100 100 100 100 98 100 100 100 94 98 100 100 100 100 100 100 100 99 100 100 100 100 100 100 100 100 100 100 95 90
12 13 13 13 16 20 18 11 12 12 18 26 33 36 46 28 25 42 78 100 100 100 100 100 100 100 100 100 97 100 100 100 100 100 100 100 100 100 100 100 100 98 98 76 99 98 100 98 100
11 14 13 14 17 17 15 10 12 11 15 22 29 34 37 37 28 25 32 59 92 100 100 100 100 100 100 100 100 100 100 100 100 100 100 100 100 100 100 87 86 64 67 79 86 84 82 92 100
15 17 17 19 25 20 14 12 13 11 16 19 26 38 39 39 41 43 26 25 28 35 75 100 100 100 100 100 100 100 100 100 100 100 100 100 100 100 100 100 100 100 100 99 98 89 100 99 99
16 16 17 19 22 21 18 18 20 19 19 19 23 29 38 40 40 40 74 39 26 24 24 42 62 79 100 100 100 100 100 100 100 100 100 100 100 100 100 100 100 100 100 100 100 98 98 100 100
19 19 15 21 25 25 22 24 30 34 26 19 19 24 31 36 40 42 37 37 35 31 27 24 23 29 74 97 97 97 98 100 100 100 100 100 100 100 100 100 100 100 96 89 91 98 100 99 100
26 24 25 19 19 24 24 22 21 22 19 16 22 19 20 24 30 38 44 42 37 35 35 30 26 26 25 26 28 30 29 34 46 66 82 98 100 100 100 100 100 100 100 100 100 99 92 85 83
29 24 24 25 22 19 17 19 19 21 20 20 20 21 21 21 24 32 41 47 48 44 39 39 58 58 36 39 44 52 51 61 62 62 70 70 60 70 80 80 71 68 68 74 67 64 68 59 59
25 26 24 23 19 19 20 23 22 20 22 26 30 31 32 30 30 32 36 40 47 46 46 44 38 38 63 100 100 99 85 76 73 63 62 66 63 55 56 56 52 51 52 60 63 64 54 56 58

GFSSGP_250_rhum_069.txt.gz
RH
4 4 6 7 8 7 7 24 51 42 55 54 68 50 68 70 80 74 78 75 79 75 70 68 82 74 54 56 59 59 61 57 42 35 47 59 57 51 45 44 38 37 41 43 42 41 45 49 59
4 3 4 6 6 4 8 17 37 39 58 60 56 59 68 68 86 90 92 74 71 71 66 73 68 70 65 64 58 63 65 62 44 36 39 55 53 43 39 44 48 48 45 36 33 32 38 41 55
3 3 3 4 4 4 10 10 25 72 74 66 57 64 80 68 100 90 95 92 78 77 63 71 71 69 67 67 68 72 76 66 52 39 38 43 42 38 40 45 47 52 59 35 28 28 30 29 30
3 2 2 2 3 4 8 11 18 68 78 61 58 56 80 84 91 89 89 100 93 83 70 64 66 72 68 67 73 75 79 73 61 46 40 42 38 40 42 48 47 47 68 48 27 25 25 26 28
2 2 2 2 3 5 8 10 10 26 95 97 99 72 92 90 83 84 80 95 100 94 80 78 72 71 75 75 77 74 73 73 62 54 44 38 40 44 44 45 48 44 43 52 38 26 25 25 26
2 1 2 2 3 5 8 9 11 24 74 100 98 97 96 100 88 90 79 98 100 100 98 89 93 83 81 87 82 79 76 67 64 55 50 46 47 48 44 42 42 41 43 38 35 30 27 27 26
1 2 2 2 3 4 8 10 16 61 100 100 85 100 100 100 74 96 68 93 90 99 100 93 97 100 83 89 81 82 80 77 64 59 56 56 50 47 46 46 43 40 36 36 36 32 26 26 28
2 2 2 2 3 4 8 12 22 100 100 100 100 100 100 100 100 75 86 89 100 97 94 93 90 100 100 94 94 97 83 89 77 65 65 70 64 57 46 43 41 39 36 34 35 32 31 25 23
2 2 2 2 3 5 10 12 21 33 100 100 100 79 100 100 100 69 98 100 98 100 100 100 100 94 94 100 100 98 86 92 91 80 73 72 92 90 74 67 53 48 47 42 42 42 40 36 33
1 2 2 3 5 5 11 12 24 56 100 100 100 85 100 100 100 100 100 100 100 100 100 100 100 100 100 100 100 100 96 92 96 92 85 74 86 93 91 88 72 74 64 64 63 62 55 52 48
2 2 3 3 5 6 10 14 22 94 100 100 100 100 100 100 100 100 100 100 100 100 95 64 75 98 100 100 100 100 100 98 97 96 94 91 72 74 91 97 98 100 100 92 88 82 75 73 67
2 3 3 4 5 5 11 14 19 89 100 100 100 100 100 96 100 100 97 100 99 99 99 100 100 100 100 100 100 100 100 100 100 100 93 82 76 71 68 84 100 100 100 99 97 97 90 82 83
2 3 4 6 7 8 11 16 23 57 100 100 100 100 100 86 100 100 100 100 100 100 92 86 85 100 100 100 100 100 100 100 100 100 100 100 92 77 73 71 94 100 97 100 93 90 100 100 96
3 4 5 6 7 8 13 16 29 49 100 100 100 100 100 100 100 100 100 100 99 99 100 95 78 98 92 80 100 100 100 100 90 93 100 100 100 98 86 86 80 92 95 96 100 100 100 100 100
4 5 7 6 7 9 11 18 39 62 100 100 100 100 100 98 100 100 100 100 94 93 100 100 100 77 100 80 100 97 94 100 100 100 100 100 100 100 100 100 100 97 91 92 90 100 100 100 100
4 4 4 4 7 9 12 20 36 76 89 100 100 100 100 100 100 87 100 100 100 100 100 100 100 100 96 79 100 100 100 90 80 89 99 100 92 100 97 100 100 90 94 100 100 100 100 100 100
4 5 7 7 6 10 11 18 52 90 86 100 100 100 100 100 100 100 100 100 100 100 100 100 100 100 81 83 100 100 100 81 43 50 88 100 100 100 100 100 96 85 79 80 95 100 100 100 100
4 4 7 11 8 16 29 18 29 100 99 99 100 100 100 100 100 100 100 100 100 100 100 100 100 100 68 100 100 100 98 96 79 52 92 96 96 100 100 100 100 98 86 84 100 100 100 100 100
4 5 6 10 16 12 18 18 25 94 100 97 100 100 100 100 100 100 100 100 100 100 100 100 100 100 100 100 100 100 100 94 72 97 100 100 100 100 100 100 100 100 93 100 100 100 100 100 100
5 7 9 8 16 8 20 18 24 34 100 100 100 100 100 100 100 100 100 100 100 100 100 100 99 95 100 100 100 100 89 98 92 72 84 100 100 100 100 100 100 100 100 100 100 89 80 78 79
5 8 10 10 17 12 39 16 22 39 48 100 100 100 100 100 100 100 100 100 100 100 100 100 100 94 94 100 95 100 98 78 92 98 100 100 100 100 98 100 97 100 100 100 97 88 100 100 89
8 12 10 11 15 15 22 23 11 23 44 100 100 100 100 100 100 100 100 100 100 100 99 100 100 100 100 100 100 100 100 100 100 98 100 99 81 95 100 100 99 100 89 75 80 71 61 56 50
10 16 27 17 17 22 18 34 20 20 27 52 100 100 100 100 100 100 100 100 100 100 100 100 100 100 100 100 100 100 100 100 100 100 100 100 100 100 100 100 100 95 64 72 60 59 53 56 72
16 17 26 24 21 22 16 24 29 22 18 26 39 71 77 82 100 100 100 100 100 100 100 100 100 100 100 100 88 99 100 100 100 100 100 100 100 100 100 100 100 85 82 78 72 74 58 69 63
14 21 23 27 25 37 21 12 21 30 26 17 28 39 50 60 53 55 100 100 100 100 100 100 100 100 100 100 100 100 100 100 100 100 100 100 100 100 100 100 100 100 100 100 100 100 100 100 100
16 15 18 27 29 30 30 18 13 22 32 13 12 23 39 47 58 54 45 99 100 100 100 100 100 100 100 100 100 100 93 99 100 100 100 100 100 100 100 100 100 100 100 100 100 100 100 100 100
22 21 14 18 22 28 23 19 22 19 16 12 12 13 22 37 49 53 75 48 42 86 100 100 100 100 100 100 100 100 100 100 100 100 100 100 100 100 100 100 100 100 100 100 100 100 100 100 100
18 24 23 20 21 20 18 18 15 14 12 12 13 13 14 18 29 46 53 79 91 58 48 87 100 100 100 100 100 100 100 100 100 100 100 100 100 100 100 100 100 100 100 100 100 100 100 100 100
32 25 22 28 33 31 24 23 22 22 20 19 19 22 24 20 18 23 35 47 54 76 87 77 57 50 69 100 100 100 100 100 100 100 100 100 100 100 100 100 100 100 100 100 100 100 100 81 92
23 28 30 28 26 24 30 28 16 21 24 26 30 34 34 26 26 26 23 32 40 49 53 65 67 59 49 40 34 38 64 100 100 100 100 100 100 100 100 100 100 100 100 79 49 48 65 53 60

GFSSGP_250_rhum_072.txt.gz
RH
6 6 5 4 5 5 6 6 10 16 34 44 47 49 47 52 69 71 80 83 84 73 78 68 68 66 66 60 66 65 53 58 57 55 55 43 32 37 50 48 37 36 39 36 37 34 30 27 28
5 4 5 4 3 4 6 7 8 10 26 34 43 45 44 48 57 74 82 74 75 75 78 77 73 75 67 65 74 60 57 66 57 59 60 45 34 33 44 44 34 36 43 42 45 38 28 26 26
5 4 3 4 3 3 7 9 8 9 24 31 33 41 55 49 58 73 79 79 77 81 77 75 78 78 71 65 69 63 63 64 63 67 66 56 43 34 41 40 36 37 41 43 39 37 27 23 24
5 3 2 2 3 3 7 9 10 10 11 13 30 40 47 57 58 79 78 84 85 84 90 79 74 80 79 75 70 68 67 70 74 76 72 69 53 43 40 37 37 38 38 41 33 29 29 28 24
7 5 4 3 4 4 5 8 8 9 11 14 18 41 43 73 72 80 73 86 89 85 98 92 87 83 82 74 71 69 73 74 80 80 76 67 61 47 41 39 40 40 41 37 34 30 28 25 26
6 6 6 5 6 6 4 7 6 8 12 17 24 13 43 45 74 96 80 85 83 88 100 98 97 87 82 72 80 76 76 80 84 80 73 67 61 57 46 49 48 42 40 37 32 30 32 26 23
3 3 3 3 3 4 5 6 5 7 10 14 93 18 45 46 94 78 83 83 70 80 97 98 95 100 93 87 86 85 90 86 89 84 80 74 73 59 54 52 58 51 43 36 35 34 34 30 27
2 2 2 2 3 3 4 4 4 6 10 17 82 29 22 88 100 78 100 100 99 72 73 86 96 100 96 100 100 100 92 90 87 79 85 85 82 68 75 63 59 58 55 51 51 44 40 41 41
2 2 2 2 2 2 4 3 4 6 11 14 100 71 36 100 98 100 100 100 100 100 90 89 100 100 100 100 100 99 99 90 84 82 88 83 84 83 70 68 70 69 62 69 65 69 64 60 68
1 2 2 2 2 2 3 3 4 6 12 20 100 74 26 80 100 100 100 100 100 100 100 100 100 100 100 100 100 100 100 99 96 93 96 90 97 88 82 79 71 66 66 73 88 100 100 97 88
1 2 2 2 2 2 2 3 4 5 16 24 100 99 59 84 100 100 100 100 89 78 96 100 100 100 100 100 100 100 92 100 100 100 100 100 96 96 88 83 79 76 64 75 84 96 100 100 100
1 2 1 1 2 2 2 3 5 6 20 28 100 100 33 66 100 100 100 99 86 100 97 100 100 100 100 100 100 100 100 100 100 100 100 100 100 100 94 88 79 79 74 66 65 82 93 92 93
1 1 1 2 2 2 3 4 6 7 15 35 100 100 68 73 100 100 100 100 100 91 99 98 100 100 100 100 100 100 100 100 100 100 100 90 83 90 99 100 100 91 81 77 78 80 88 86 84
1 1 2 2 2 3 4 5 7 8 16 60 100 100 100 85 100 100 100 100 100 100 97 89 100 84 100 100 100 100 100 100 100 100 95 90 88 75 79 91 89 90 99 99 87 96 100 98 99
2 2 2 2 3 4 5 5 7 11 19 95 100 100 100 98 99 100 100 100 100 100 100 82 88 100 100 100 100 91 75 62 71 78 88 96 100 96 86 97 99 100 98 97 93 100 97 100 92
2 2 2 3 4 5 5 6 8 15 28 95 100 100 100 100 100 100 100 100 100 99 100 100 100 100 100 100 100 94 89 91 96 92 71 50 60 71 82 99 91 87 91 98 96 99 100 90 82
2 3 4 4 5 6 7 10 15 20 28 100 100 100 100 100 100 100 100 100 100 100 100 100 100 100 100 100 100 100 100 100 100 85 60 59 44 54 69 82 98 99 93 93 99 93 96 86 88
3 4 4 4 5 5 7 10 18 26 32 100 100 100 100 100 100 100 97 100 100 100 100 100 100 100 83 100 100 100 100 97 100 96 71 47 45 46 53 73 82 97 97 98 82 93 92 95 90
4 4 5 5 7 8 10 8 27 33 38 100 100 100 100 100 100 100 100 100 100 100 100 100 100 100 100 100 100 96 100 100 100 100 100 84 95 100 90 81 77 93 100 100 100 85 87 78 84
4 4 4 5 5 7 8 10 30 58 72 100 100 100 100 100 100 100 100 100 100 100 100 100 100 100 100 100 100 100 100 99 100 100 100 94 100 98 100 85 92 99 100 100 100 99 89 73 62
4 5 5 7 5 8 8 12 39 77 76 100 100 100 100 100 100 100 100 100 100 100 100 100 100 100 100 100 100 100 100 100 100 98 84 95 100 92 82 88 98 100 97 100 99 98 68 69 62
5 5 5 7 8 10 14 38 27 64 100 100 100 100 100 100 100 100 100 100 100 100 100 100 100 100 100 100 100 100 100 100 100 100 100 100 100 100 84 80 93 91 92 88 84 94 74 65 53
6 6 8 11 11 17 34 37 34 73 100 100 100 100 100 100 100 100 100 100 100 98 100 88 100 100 100 100 100 100 99 99 100 100 100 100 100 100 97 82 88 82 100 98 91 95 93 97 92
10 10 13 12 12 22 20 32 34 29 86 100 100 100 100 100 100 100 100 100 100 100 100 100 100 100 100 100 96 100 100 100 100 100 100 100 100 100 92 100 89 85 80 100 99 100 99 90 88
16 15 17 15 22 27 31 38 33 25 44 100 100 100 100 100 100 100 100 100 100 100 100 100 100 100 100 100 100 100 100 100 100 100 100 98 100 100 100 100 100 100 100 100 99 89 88 83 78
14 29 23 27 25 28 36 54 29 25 22 55 100 100 100 100 100 100 100 100 100 100 100 100 99 97 86 100 100 100 100 100 100 100 100 98 100 100 100 100 100 100 99 99 100 100 100 100 100
13 17 28 40 40 48 40 29 32 19 19 31 73 100 100 100 100 100 100 100 100 100 100 100 100 100 100 100 100 100 100 100 100 100 100 100 100 100 100 100 100 100 100 100 100 100 100 100 100
14 15 16 17 25 43 46 30 19 25 22 21 38 62 100 100 100 100 100 100 100 100 100 100 100 100 100 100 100 100 96 100 100 100 100 100 100 100 100 100 100 100 100 99 100 76 100 100 100
15 16 20 18 24 22 35 35 29 19 42 32 24 26 50 100 100 100 100 100 100 100 100 100 100 100 100 100 100 100 100 100 100 100 100 100 100 100 100 100 100 100 98 100 99 100 100 100 100
18 20 19 19 18 18 17 19 20 16 12 26 22 16 16 25 56 100 100 100 100 100 100 100 100 100 100 100 100 100 100 100 100 100 100 100 100 100 100 100 100 100 100 100 100 100 100 100 100

GFSSGP_250_rhum_075.txt.gz
RH
19 12 6 4 3 3 4 6 8 8 8 9 36 58 50 56 71 74 84 58 66 80 83 82 73 73 57 58 62 61 59 53 61 47 55 57 53 50 37 28 44 43 38 39 42 38 32 26 24
21 18 9 3 3 2 4 6 8 8 8 10 15 45 52 64 79 68 85 56 59 76 85 89 76 76 72 62 66 65 60 68 66 52 60 64 61 57 43 33 37 42 39 41 42 40 34 28 23
17 16 14 6 3 3 4 5 8 8 7 9 10 19 52 54 80 95 98 83 69 65 72 81 85 74 77 70 68 69 63 57 60 58 63 67 64 58 55 42 37 40 38 41 42 46 38 29 22
13 14 11 11 6 4 4 5 6 8 6 7 10 11 13 38 66 83 99 92 65 64 80 82 84 78 76 80 76 78 79 74 64 62 64 70 66 58 57 54 40 38 36 42 43 40 39 31 27
11 11 10 11 11 5 4 4 4 5 7 7 8 10 11 23 47 67 85 88 67 67 76 84 91 80 85 82 77 78 79 76 74 68 71 74 73 68 66 56 51 47 42 45 50 45 40 34 32
8 7 7 8 10 7 4 3 3 3 4 7 6 9 11 13 22 52 84 91 74 65 69 83 88 86 89 94 82 80 82 81 86 76 66 76 79 74 71 68 56 58 55 50 49 42 36 36 34
8 4 6 5 6 5 5 3 3 4 4 6 8 8 10 10 17 55 68 89 97 78 69 77 85 93 88 92 99 91 88 90 89 96 89 86 83 81 76 76 76 54 63 57 49 40 42 45 41
7 4 5 6 6 8 5 4 4 3 4 7 8 9 11 9 18 38 63 85 100 100 73 61 80 90 90 83 100 99 92 91 96 86 92 100 93 80 77 74 77 72 52 58 54 45 35 54 79
4 4 4 4 5 6 6 5 4 4 4 4 6 10 12 7 47 24 96 90 100 100 100 100 91 90 98 94 94 99 100 100 100 99 95 100 100 93 76 83 86 88 68 58 63 58 56 51 88
3 3 6 3 3 4 3 5 5 5 5 4 5 10 12 8 17 33 100 86 100 100 100 100 100 100 100 100 93 95 96 99 100 91 86 92 97 95 89 90 88 99 80 70 65 68 57 57 68
2 4 4 3 3 3 3 3 4 4 4 5 6 14 18 13 14 26 100 100 95 100 100 100 100 100 100 100 100 100 100 100 97 100 100 97 95 99 100 99 90 93 96 82 76 69 68 63 62
2 3 2 2 2 2 2 2 3 3 3 7 12 16 26 14 15 34 47 100 100 100 100 100 100 99 100 100 100 100 100 99 100 99 93 100 100 100 100 86 90 80 89 86 84 76 79 72 74
3 2 2 2 1 2 2 2 2 3 4 6 14 16 71 23 41 92 100 100 100 100 100 100 100 100 100 100 100 100 100 95 78 85 100 100 100 100 98 77 78 66 66 74 86 79 70 89 98
2 2 1 1 1 1 1 1 2 3 3 5 12 38 100 41 51 78 99 100 100 100 95 100 100 100 100 100 100 100 98 100 100 100 100 100 97 98 84 76 65 63 59 61 70 75 85 92 93
1 1 1 1 1 2 2 2 2 3 3 5 14 54 100 76 98 90 85 85 96 100 100 97 100 100 100 100 87 86 100 89 100 100 100 93 100 99 82 59 51 54 56 68 82 99 99 97 84
1 1 1 1 2 2 2 2 3 3 3 8 16 94 100 100 100 98 94 93 100 100 97 100 100 100 100 100 98 68 100 76 82 98 100 100 94 76 75 70 60 64 64 53 75 89 82 88 79
2 1 2 2 2 2 3 3 4 4 5 12 26 100 100 100 100 100 96 97 100 100 99 100 100 100 100 100 100 100 100 88 100 100 100 100 96 68 72 62 73 56 52 86 91 89 84 84 72
2 2 2 2 3 4 4 5 4 5 6 20 32 100 100 100 100 100 100 100 100 100 100 100 99 100 70 100 100 100 94 100 100 100 100 100 96 90 78 54 54 52 50 78 70 68 82 72 70
2 2 3 3 4 4 4 4 5 6 12 31 86 100 100 100 98 100 100 100 100 100 100 100 100 100 100 97 100 100 100 100 99 100 90 75 58 58 51 48 46 40 43 46 53 80 79 81 63
3 3 3 3 4 6 6 6 7 10 24 46 100 100 100 100 100 100 100 100 100 100 100 100 100 100 100 100 100 100 100 100 100 100 100 100 97 100 100 93 81 81 57 54 83 88 91 75 68
4 4 4 4 6 6 8 11 13 23 28 87 77 100 100 100 100 100 100 100 100 100 100 100 100 100 100 100 100 100 100 100 100 100 100 100 100 100 100 100 100 100 100 76 51 54 74 67 61
4 5 5 4 5 6 7 10 9 27 32 100 100 100 100 100 99 100 100 100 100 100 100 100 100 100 100 100 100 100 100 100 100 100 100 100 100 100 100 100 100 90 72 68 57 63 48 47 54
5 6 6 5 6 8 13 26 12 34 43 96 100 100 100 100 100 100 100 100 100 100 88 100 99 100 100 100 100 100 100 100 100 100 100 100 100 100 100 100 100 100 100 78 85 99 64 63 57
6 6 5 6 8 9 18 17 14 38 64 49 100 100 100 100 100 100 100 100 100 100 100 100 100 100 100 100 100 100 100 100 100 100 100 83 98 100 100 100 100 100 91 100 100 100 100 92 90
8 8 8 9 9 12 9 14 25 44 65 68 100 100 100 100 100 100 100 100 100 100 100 100 100 100 100 100 100 100 100 94 98 100 100 100 100 100 100 100 100 100 100 100 100 100 100 100 100
10 11 11 14 15 14 14 20 23 36 71 63 100 100 100 100 100 100 99 100 100 100 100 100 60 100 100 100 100 100 100 100 99 93 100 100 100 100 100 100 100 93 100 100 100 100 95 100 98
12 13 15 18 19 16 33 34 26 30 69 79 89 100 100 100 100 100 100 100 99 100 100 100 100 98 98 78 100 100 100 100 100 100 100 100 100 100 100 100 100 100 100 100 100 100 100 100 100
12 12 20 21 22 22 28 27 29 20 69 87 88 100 100 100 100 100 100 100 100 100 100 100 100 100 100 100 100 100 100 100 100 100 100 100 100 100 100 100 100 100 100 100 100 100 100 100 100
12 14 14 17 19 17 22 24 29 20 22 72 100 99 100 100 100 100 100 100 100 100 100 100 100 100 100 100 100 81 100 100 95 92 100 100 100 100 100 100 100 100 100 100 100 100 100 99 100
18 22 19 18 18 17 20 26 28 36 30 30 69 90 100 100 100 100 100 100 100 100 100 100 100 100 100 100 96 100 100 97 100 100 100 100 100 100 100 100 95 100 100 100 100 100 100 100 100

GFSSGP_250_rhum_078.txt.gz
RH
32 34 32 15 9 14 10 5 6 5 6 11 12 21 42 56 70 60 59 58 69 82 76 74 80 81 72 69 69 51 55 60 56 51 51 59 50 53 54 56 45 31 43 42 41 46 48 41 34
27 30 31 28 16 11 8 7 6 4 5 10 12 11 23 41 66 97 75 61 60 83 84 82 77 80 82 76 73 71 57 61 61 60 64 58 56 59 51 53 51 42 38 40 41 42 45 40 37
25 24 26 30 33 15 5 9 7 4 4 7 10 11 12 27 53 80 98 75 73 80 86 79 78 83 84 86 73 75 68 62 62 59 64 56 56 62 57 52 50 49 46 41 41 42 43 41 37
21 19 19 22 26 22 8 8 6 3 4 6 7 9 10 15 26 61 98 79 62 74 89 76 88 73 83 86 85 76 75 72 70 69 69 66 61 64 66 65 56 53 54 47 43 47 45 37 35
13 13 15 16 22 24 16 9 5 3 4 5 6 7 9 12 11 21 93 84 69 78 73 74 75 76 75 87 85 89 84 83 81 80 76 71 71 70 72 67 64 61 58 56 47 45 41 37 29
13 12 15 17 14 15 16 9 3 2 3 4 5 6 7 10 12 17 86 88 88 77 88 91 78 76 78 78 90 93 82 83 80 80 78 82 75 73 68 69 66 67 67 57 54 45 44 41 30
13 10 15 16 18 13 11 7 6 3 3 4 5 6 6 8 10 13 41 80 86 91 84 87 95 86 87 74 91 93 92 81 84 84 89 91 80 78 84 87 91 76 75 72 63 52 48 43 43
10 12 18 16 14 14 7 6 5 3 2 4 4 5 5 7 11 13 14 33 68 78 88 87 88 93 79 67 74 91 96 88 91 92 88 92 94 89 87 94 97 88 71 66 64 64 50 48 45
10 14 17 17 11 9 7 6 5 4 3 3 3 5 6 6 7 13 13 21 40 64 86 96 100 100 98 70 74 84 100 97 83 83 74 75 91 94 85 88 100 98 76 81 80 76 63 57 55
11 14 15 12 9 9 7 6 5 3 4 3 3 3 5 5 6 12 16 57 99 100 87 95 100 100 100 87 80 80 92 98 86 88 100 100 100 100 100 94 86 90 82 71 73 78 78 76 68
11 14 10 8 6 7 6 5 4 4 3 4 4 5 5 6 8 11 31 100 98 99 79 97 98 100 100 100 99 88 100 100 100 100 100 86 96 94 97 89 89 98 100 100 99 94 94 82 73
11 8 5 7 6 6 5 4 3 4 4 4 5 5 6 6 6 8 18 94 46 99 100 94 100 100 100 100 100 100 100 100 100 100 90 100 100 98 100 100 91 94 100 98 90 74 62 78 76
7 5 5 6 5 4 3 3 5 5 4 4 5 6 8 8 7 7 11 42 60 100 83 100 100 100 99 100 100 100 100 100 100 100 100 100 88 76 95 100 100 100 98 84 74 72 62 60 69
4 4 4 5 3 2 2 3 3 3 3 3 4 5 6 9 9 8 58 88 100 100 99 100 100 100 100 100 100 100 98 100 100 100 100 100 93 89 99 100 99 91 87 74 76 66 55 62 58
4 4 3 4 3 2 2 2 2 2 2 3 4 5 7 10 10 11 72 100 90 100 98 100 97 100 100 100 100 100 100 100 100 100 100 100 100 100 100 95 82 82 75 79 78 68 62 62 61
4 4 3 2 2 2 1 1 1 2 2 2 4 6 9 24 16 11 17 69 100 100 100 99 100 100 100 100 100 100 100 100 100 100 100 99 76 96 100 89 83 91 87 92 77 72 70 61 50
3 2 2 1 1 1 2 2 2 2 3 3 4 7 12 33 39 15 16 41 100 100 100 100 100 100 100 100 100 100 100 100 100 100 100 96 79 86 95 84 78 97 100 94 82 73 52 45 59
2 1 1 2 2 2 2 2 2 2 3 4 4 7 16 34 47 27 20 32 100 100 100 100 100 100 100 100 100 100 100 100 100 100 100 93 71 92 100 100 100 100 86 74 66 49 56 51 47
1 2 2 2 2 2 2 2 2 3 3 4 6 10 26 98 100 77 76 85 70 70 100 100 100 100 100 85 91 96 100 100 100 100 100 90 100 100 100 100 96 92 81 78 72 69 50 48 42
2 2 2 2 2 2 3 2 3 3 4 6 8 18 27 86 100 97 100 100 100 100 100 100 100 100 100 100 86 100 100 100 100 100 100 100 90 100 100 100 88 81 88 84 70 48 36 48 76
2 2 2 2 3 3 3 3 4 5 7 8 14 14 46 100 100 100 100 100 100 100 100 100 100 100 100 100 85 100 100 96 100 100 100 100 100 100 100 100 100 92 81 64 74 66 88 69 50
2 2 2 3 3 3 4 4 6 7 8 11 46 60 93 100 100 100 100 100 100 100 100 100 100 100 100 100 100 100 100 100 100 100 100 100 100 100 100 100 100 95 100 100 100 100 100 100 98
2 3 4 4 4 4 6 6 7 9 10 31 58 84 100 100 100 100 100 100 100 100 100 100 90 100 100 100 100 100 100 100 100 100 100 100 100 100 100 100 100 100 100 100 100 100 100 100 94
3 5 5 5 5 6 8 7 13 16 17 70 71 100 100 100 100 100 100 100 100 100 100 100 100 100 100 100 83 100 100 100 100 100 100 100 100 100 100 100 100 99 92 96 100 100 96 93 89
4 6 6 7 7 6 9 10 12 21 42 58 74 100 100 100 100 98 87 100 100 100 100 100 100 100 92 100 83 100 100 100 99 100 100 97 93 88 94 100 100 100 100 100 99 100 86 98 100
8 8 8 9 9 10 13 14 13 31 60 76 100 100 100 100 100 100 100 100 100 100 100 100 100 100 100 100 100 96 98 100 100 99 100 100 100 100 98 87 74 98 100 100 100 90 100 100 100
9 10 12 13 18 20 21 22 23 30 37 82 100 100 100 100 100 100 100 100 100 99 100 100 100 100 100 100 100 100 100 95 97 100 100 100 100 100 100 100 100 78 85 85 100 95 100 98 100
11 13 18 18 20 27 38 27 25 51 56 82 98 100 100 100 100 100 100 100 100 99 95 100 92 99 100 100 100 100 100 100 100 100 97 100 100 100 100 100 100 100 100 100 100 100 100 100 100
13 17 17 17 22 30 40 46 54 47 64 82 97 100 100 100 100 100 100 100 93 100 79 100 100 96 100 100 100 100 100 100 100 100 100 100 100 99 100 100 100 100 100 100 100 100 100 100 100
21 19 19 21 16 22 35 43 57 56 54 73 73 100 100 100 100 100 100 100 100 100 94 85 64 83 92 92 82 87 100 100 100 100 100 100 100 100 100 100 100 100 100 100 100 100 100 100 100

GFSSGP_250_rhum_081.txt.gz
RH
58 56 68 55 38 42 46 46 32 20 15 6 7 12 13 17 28 31 62 70 70 60 65 76 85 77 67 79 81 70 64 57 51 54 55 54 47 54 48 56 54 52 48 38 42 43 43 45 47
61 62 68 66 44 34 38 37 33 28 14 6 6 6 9 16 11 13 61 87 93 65 65 58 84 84 74 73 80 81 73 70 67 54 57 58 58 67 52 57 59 57 51 44 38 41 40 43 46
67 63 56 68 74 42 31 38 36 25 15 6 5 6 7 12 23 13 36 78 90 67 62 62 76 94 82 78 80 83 80 72 74 64 59 60 60 61 58 63 56 54 56 50 47 43 38 37 40
37 52 50 43 66 40 31 26 26 20 14 11 6 5 5 8 16 15 34 76 93 72 66 62 68 88 96 87 87 83 89 79 72 69 65 65 70 64 60 62 66 61 57 57 54 50 46 40 38
27 35 36 46 76 58 32 29 24 20 13 9 6 5 5 8 12 15 13 49 85 76 78 74 65 71 91 96 91 83 84 92 82 76 75 71 77 75 71 65 63 63 60 66 61 60 51 43 42
22 22 25 37 60 66 41 22 20 18 10 9 7 4 4 6 9 13 15 14 55 70 88 78 64 67 74 80 85 90 77 94 92 93 84 88 80 77 76 75 72 66 78 82 75 68 61 50 44
24 20 27 34 49 70 45 19 22 15 10 12 6 4 4 7 8 11 15 15 43 62 68 82 93 65 73 78 75 74 73 70 89 95 80 78 73 81 86 85 79 80 85 90 84 70 65 57 48
27 22 21 38 40 70 35 16 17 12 10 8 5 4 4 6 8 10 12 24 32 67 70 82 81 81 67 80 88 77 67 79 79 86 100 88 81 82 89 97 93 96 91 81 72 76 79 70 70
30 32 28 32 31 40 28 17 15 10 8 6 4 4 4 6 8 10 12 13 16 49 64 86 96 96 85 70 68 80 80 89 88 76 97 99 93 91 73 87 94 93 87 91 98 75 71 80 72
26 20 21 25 28 29 15 13 12 6 6 6 5 4 4 5 7 9 11 14 12 14 25 65 91 95 94 87 90 84 84 87 88 73 77 93 93 88 76 81 94 100 100 98 82 78 79 61 71
23 16 20 24 23 15 11 8 7 5 7 8 7 5 4 6 8 9 10 12 15 12 11 32 76 97 100 100 100 100 99 83 84 80 76 80 91 77 100 96 76 75 86 74 72 100 100 100 100
13 17 20 20 15 12 9 7 5 5 8 7 6 5 4 6 8 9 11 12 14 14 20 20 52 94 83 100 100 100 100 100 100 84 79 93 100 100 98 95 92 100 100 100 100 81 96 100 96
15 11 13 18 12 8 5 5 5 5 7 6 7 4 4 6 8 11 10 16 83 26 17 29 43 100 79 88 100 100 100 100 100 100 100 100 100 100 100 100 100 95 94 99 96 71 68 77 89
11 12 12 9 5 5 4 5 3 6 6 7 6 4 4 8 8 8 11 19 57 18 54 79 99 89 99 100 89 93 100 94 100 100 100 100 100 100 100 100 100 100 99 100 76 56 62 75 84
7 9 6 5 3 4 4 4 6 5 5 4 5 5 6 8 10 7 10 19 15 24 98 100 91 100 100 94 87 92 95 100 100 100 100 100 99 92 100 100 96 100 100 100 69 59 57 63 83
6 4 3 3 4 6 3 5 5 4 5 4 5 5 6 7 7 8 10 14 23 27 76 100 100 100 100 100 95 100 100 100 100 100 100 100 100 100 100 100 100 100 100 95 75 80 90 85 90
3 2 3 4 4 4 3 5 3 3 3 3 4 4 5 6 6 8 11 16 27 82 100 100 100 100 100 95 94 100 100 100 100 100 100 100 100 100 100 100 100 98 100 89 84 80 82 96 100
3 3 4 4 4 4 3 2 2 2 2 2 3 3 4 5 7 10 13 20 81 100 100 100 100 98 100 94 100 98 100 100 100 100 80 100 100 100 100 100 100 92 100 98 88 88 99 100 100
3 3 3 3 3 2 2 2 2 2 2 2 2 3 4 5 10 15 12 19 66 100 100 100 100 100 100 100 100 100 100 100 100 100 100 100 100 100 100 100 84 85 94 100 100 100 100 100 87
3 3 2 2 2 2 2 1 2 1 1 2 2 3 5 10 23 28 24 46 38 67 95 100 100 100 100 100 100 100 100 100 100 100 100 100 100 100 100 100 100 100 100 100 100 100 100 100 87
2 2 2 2 2 2 2 2 2 2 2 2 3 4 8 17 30 57 95 100 89 87 100 100 100 100 100 100 100 100 100 100 100 100 100 100 100 100 100 100 98 100 100 100 100 100 100 92 88
2 2 2 2 2 2 2 2 3 3 2 3 4 6 10 32 66 80 100 100 71 100 100 100 100 100 100 100 100 100 100 100 100 97 99 100 100 100 100 100 92 100 100 100 100 100 100 100 92
2 2 2 2 2 3 3 3 3 3 4 4 5 8 12 51 100 67 56 77 41 100 100 100 100 100 100 100 100 100 100 100 100 100 100 100 100 100 100 100 100 100 100 100 100 100 100 100 100
2 2 2 3 4 4 4 4 4 4 5 7 8 11 36 95 100 80 100 100 100 100 100 100 100 100 100 100 100 100 100 100 100 100 100 100 97 100 100 100 100 100 100 100 100 100 100 100 100
3 3 4 4 5 5 5 5 7 6 8 22 26 38 86 100 100 100 100 100 100 100 100 100 100 100 100 100 100 100 100 100 100 99 100 95 81 100 100 100 99 87 96 100 100 100 100 100 100
4 6 6 7 7 7 8 9 11 11 20 70 100 97 100 100 100 100 100 100 100 100 100 100 100 100 100 100 100 100 100 100 100 100 100 96 85 98 100 100 100 93 84 91 99 83 92 86 79
8 9 9 12 13 11 13 16 23 44 88 90 72 100 100 100 100 100 100 100 100 100 100 100 100 100 100 100 100 100 100 100 100 100 100 100 100 90 100 100 100 100 92 86 79 84 80 90 94
9 11 13 18 20 25 28 28 49 50 100 67 90 100 100 100 100 100 100 100 100 100 100 100 100 100 100 100 100 98 100 100 100 100 100 100 100 100 94 100 100 100 100 86 92 85 92 86 90
13 13 16 18 25 38 37 31 35 71 82 94 97 100 98 100 100 100 100 100 100 100 100 100 100 100 100 100 100 100 100 100 100 100 93 100 100 100 100 100 100 100 100 100 100 100 100 100 100
16 14 17 23 41 43 52 44 55 64 73 79 100 100 100 100 100 100 100 100 100 100 100 100 100 100 100 100 100 100 100 96 100 100 100 94 100 100 100 100 100 100 100 100 100 100 100 100 100

GFSSGP_250_rhum_084.txt.gz
RH
91 84 79 62 56 81 94 95 60 55 32 12 9 10 20 23 18 15 29 53 72 75 77 71 67 79 73 76 85 76 76 72 63 55 51 52 49 44 40 52 49 45 46 48 45 34 40 41 40
78 96 95 60 68 77 100 100 97 65 40 26 11 16 14 10 18 21 18 16 51 76 78 85 64 55 76 73 75 76 68 80 77 68 61 58 56 56 55 60 53 58 52 50 50 44 40 41 39
40 59 77 70 71 97 100 100 100 91 54 33 32 25 11 7 8 19 39 29 20 72 61 78 82 52 63 71 72 76 71 68 79 77 72 66 59 58 61 60 55 54 53 55 55 54 51 47 44
38 42 56 70 82 100 100 100 100 91 76 39 27 26 12 6 7 11 36 40 20 36 59 58 62 66 62 73 73 70 76 72 71 72 70 72 65 64 66 65 58 60 61 56 61 59 53 55 48
30 37 36 35 48 65 78 100 76 94 97 73 34 27 17 8 6 9 27 25 32 36 31 24 47 71 60 68 72 73 76 74 75 82 70 67 68 64 73 72 70 71 68 64 62 76 67 57 51
24 26 34 29 34 45 49 72 90 96 86 77 62 33 17 14 12 8 13 12 31 27 21 13 26 72 66 67 66 68 71 71 68 73 79 67 87 77 73 77 74 74 77 72 71 80 75 67 58
23 20 19 24 22 32 49 56 55 63 82 82 50 27 21 23 16 12 8 13 37 52 23 33 68 77 80 73 65 62 69 70 71 65 68 70 97 96 84 81 77 82 80 77 80 84 73 72 70
23 17 19 24 29 32 41 42 58 45 56 71 52 32 18 13 17 10 8 10 14 24 43 31 72 100 76 70 88 81 72 76 68 58 56 63 72 89 94 82 87 84 98 94 86 84 79 89 90
24 21 22 24 24 27 34 31 43 49 47 55 40 29 13 6 16 11 7 11 14 20 40 100 99 72 100 73 70 92 99 96 91 60 54 60 62 75 93 100 90 82 76 81 80 72 78 76 74
22 20 24 23 24 25 24 28 32 28 44 45 47 27 11 7 16 12 6 8 14 17 68 100 100 96 91 98 81 84 92 96 99 93 70 60 62 74 80 90 98 100 84 82 94 100 100 97 79
21 18 18 21 22 20 19 24 24 20 35 34 20 13 6 6 10 12 8 12 15 24 74 69 97 60 75 74 82 82 78 93 84 95 87 73 77 80 84 83 93 95 100 100 100 99 76 81 69
15 16 14 14 14 13 16 16 19 18 36 18 8 9 5 6 12 11 8 10 15 18 80 96 57 46 72 59 86 83 79 96 81 83 81 84 97 93 83 74 81 100 95 94 100 100 98 95 100
12 12 12 13 12 12 11 12 13 24 20 7 6 5 5 6 14 16 8 10 14 17 18 67 82 100 82 75 99 80 87 97 94 88 87 100 100 92 89 87 85 100 100 100 100 100 85 76 74
10 12 12 11 12 11 9 10 8 15 6 6 4 4 5 8 11 14 9 11 13 18 60 100 100 99 89 98 100 100 100 98 99 100 100 100 100 100 100 100 100 100 100 100 90 98 95 100 95
8 13 15 12 8 8 6 7 8 7 6 3 3 4 6 8 11 16 10 11 13 17 26 23 60 42 92 100 100 100 96 100 100 87 90 84 92 100 100 100 100 100 98 77 100 100 100 100 84
8 10 11 9 8 6 4 7 6 5 3 3 4 5 6 10 11 16 9 11 12 13 17 33 69 67 100 61 100 100 98 100 97 75 86 84 88 94 100 100 100 100 99 100 91 100 100 100 68
7 6 6 6 5 4 4 4 4 3 3 3 4 5 7 10 9 13 8 10 11 14 17 22 100 100 76 75 100 100 100 100 100 100 98 87 85 100 100 100 100 100 100 100 100 100 100 99 92
4 3 4 4 4 3 3 3 4 3 4 5 5 5 7 9 10 9 6 10 12 15 18 26 86 100 100 50 68 100 93 100 100 100 100 100 100 100 100 100 100 100 100 100 100 100 98 99 66
2 3 3 2 2 3 3 4 3 3 4 4 4 5 6 6 8 7 8 10 13 17 21 34 100 100 100 100 100 100 100 100 100 100 100 100 100 100 100 100 100 100 100 100 100 100 100 100 86
2 2 2 2 2 3 4 3 4 4 3 3 3 4 4 6 6 7 8 9 13 17 27 100 100 100 100 100 100 100 100 100 100 100 100 100 100 100 100 100 99 100 100 100 100 94 95 100 97
2 2 2 2 3 3 3 3 3 3 3 3 3 3 4 4 5 6 8 10 15 48 75 100 100 100 100 100 100 100 100 100 100 100 100 100 100 100 100 100 100 100 100 100 100 100 100 100 100
3 3 3 3 3 3 3 2 2 2 2 2 2 2 4 4 5 7 10 12 15 26 73 100 100 100 100 100 100 100 100 100 100 100 100 100 100 100 100 100 100 100 100 100 100 100 100 98 100
4 3 3 3 2 2 2 2 2 2 2 2 2 3 4 5 6 8 14 20 22 29 54 100 100 100 100 100 100 100 100 100 100 100 100 100 100 100 100 100 100 100 100 100 99 91 85 95 86
3 2 2 2 2 2 2 2 2 2 2 2 3 4 6 8 10 17 60 87 66 100 85 71 88 84 90 100 100 100 100 100 100 100 100 100 100 99 94 100 98 100 100 100 100 100 100 99 94
2 2 2 2 2 2 3 4 4 4 4 4 4 6 10 31 48 84 100 100 100 100 51 49 73 100 100 100 100 100 100 100 100 100 100 100 100 80 90 100 100 100 100 100 100 100 100 100 100
2 3 3 4 4 4 4 4 5 6 6 6 7 10 73 100 100 100 100 100 94 100 83 100 100 100 100 100 100 100 100 100 100 100 100 100 100 100 96 80 78 80 100 100 100 100 99 100 100
4 5 5 6 6 6 6 7 8 9 9 9 14 91 57 100 100 100 100 100 100 100 100 100 100 100 100 100 100 100 100 100 100 100 100 100 100 100 100 100 100 97 94 98 90 99 100 100 100
7 7 8 7 7 8 9 12 15 12 15 43 71 100 100 100 100 100 100 100 100 100 100 100 100 100 100 100 100 100 100 99 100 100 100 100 100 99 100 99 100 99 100 100 100 87 96 92 100
10 8 10 13 11 16 17 21 18 35 71 71 68 100 100 100 100 100 100 100 100 100 100 100 100 100 100 100 100 100 100 100 100 100 100 100 100 100 100 98 98 85 92 85 91 100 89 100 100
11 13 20 17 21 26 26 32 48 62 84 72 66 87 100 100 100 100 100 100 100 100 100 100 100 100 100 100 100 100 100 100 100 100 100 100 100 100 100 100 100 100 100 100 100 100 100 100 100

GFSSGP_250_rhum_087.txt.gz
RH
65 70 89 87 81 57 74 93 76 71 47 20 12 15 14 20 18 14 15 27 72 63 54 42 52 51 67 62 69 82 91 63 58 59 59 53 51 52 41 41 40 46 45 49 48 48 45 35 39
50 51 60 79 94 62 77 98 89 66 64 37 19 20 16 14 15 17 17 16 36 65 83 62 49 48 53 58 57 73 76 80 79 78 72 62 56 57 56 56 57 59 50 47 50 51 52 46 40
36 52 51 52 59 68 94 100 100 94 67 57 48 32 18 17 9 10 14 20 24 29 55 74 58 59 50 52 59 80 76 74 70 70 78 73 69 61 60 59 62 59 50 52 53 55 57 58 51
68 48 34 40 44 50 70 80 92 100 100 81 54 61 42 29 10 10 9 14 24 31 34 39 31 38 55 61 62 61 65 76 76 64 61 76 76 75 72 60 62 58 59 59 60 55 58 69 62
81 71 57 38 33 49 45 70 75 98 100 100 82 78 65 52 40 23 8 14 24 33 43 37 36 22 29 59 72 64 55 66 72 72 67 59 73 76 74 59 63 65 66 71 68 61 54 65 63
64 60 58 75 45 36 35 47 70 71 87 96 100 100 86 64 64 39 14 14 19 46 70 66 75 35 29 42 60 75 61 54 65 72 75 62 63 82 78 68 65 70 71 74 75 78 69 64 71
45 46 55 46 34 52 37 32 51 52 66 76 77 84 98 100 76 56 29 19 20 51 88 82 41 41 48 45 47 74 72 65 62 70 71 76 66 89 77 82 88 83 85 79 76 79 80 86 76
39 38 38 42 37 42 33 23 26 36 48 60 58 70 71 74 98 76 54 14 12 21 84 100 88 42 45 45 72 58 77 74 62 71 68 72 72 78 84 83 95 96 95 92 81 85 91 75 80
38 27 30 24 28 24 20 16 20 21 32 39 45 57 65 80 90 93 55 43 27 16 18 36 56 66 26 27 37 63 88 85 71 68 62 57 72 82 73 73 80 92 100 96 98 85 77 88 82
26 28 26 20 17 20 22 17 16 16 21 32 34 42 54 68 66 73 57 51 23 11 11 15 32 77 24 20 55 49 60 94 80 67 65 60 74 82 71 67 71 80 100 100 100 100 100 99 98
20 21 16 17 16 15 18 17 16 12 18 26 30 31 39 51 58 86 58 31 28 9 10 12 22 57 27 21 39 39 50 53 70 80 78 73 78 94 98 73 67 77 96 95 94 100 100 100 100
11 14 14 15 16 14 16 20 18 16 18 19 24 28 29 47 44 76 37 23 22 9 8 12 22 33 63 96 85 72 60 70 75 73 84 95 84 100 100 100 86 76 83 100 96 100 100 100 100
8 9 11 13 13 14 16 18 20 18 15 15 16 21 21 19 30 36 28 21 14 11 7 12 34 91 84 97 82 89 71 82 100 95 88 90 100 100 100 96 88 80 96 100 100 98 99 100 100
7 7 8 10 14 12 11 15 15 20 18 18 15 18 14 17 19 21 23 16 11 8 9 9 66 100 93 88 98 100 100 100 100 94 85 94 100 100 100 100 93 95 96 100 100 100 100 100 100
5 5 6 8 9 11 10 14 14 19 17 14 12 12 10 12 15 17 13 11 12 10 10 10 55 100 100 100 100 100 100 100 92 59 88 100 100 100 100 100 100 100 100 100 100 100 100 100 100
3 4 5 5 7 7 9 14 9 7 8 9 8 9 8 8 11 14 11 15 10 9 10 10 22 97 100 100 100 100 100 100 90 100 87 86 100 95 100 100 100 100 100 100 100 100 100 100 100
3 4 4 5 6 5 5 7 7 7 6 8 8 8 8 8 8 12 14 17 11 9 10 10 18 34 95 100 100 100 100 100 100 100 100 100 100 100 98 90 79 96 94 100 100 100 100 100 100
3 3 3 3 4 3 3 3 4 5 6 8 8 8 6 5 6 11 13 15 10 9 9 11 17 24 40 100 100 100 100 100 100 100 100 100 100 100 100 99 99 100 100 100 100 100 100 100 100
3 3 3 2 2 2 2 3 3 4 4 5 5 5 5 6 8 9 12 9 11 8 9 15 20 22 77 100 100 100 100 100 100 100 99 100 100 100 100 100 100 100 100 100 100 100 100 100 100
2 2 2 2 2 2 2 2 3 3 4 4 4 5 5 7 8 8 9 10 11 11 12 15 19 22 25 53 96 100 100 100 100 100 100 100 84 100 100 100 100 100 100 100 100 100 100 100 92
2 2 2 2 2 2 2 2 3 3 3 3 4 4 5 5 6 8 10 12 12 15 13 15 20 22 41 95 73 98 100 100 100 100 100 100 93 99 100 100 100 100 100 100 100 100 100 100 100
2 2 2 2 2 2 2 2 3 3 3 4 4 4 5 6 6 6 9 11 14 15 12 15 19 21 27 100 100 100 100 100 100 100 100 100 100 100 100 100 100 100 100 100 100 100 100 100 100
2 2 2 2 2 3 3 3 3 4 4 4 4 5 5 5 5 6 8 9 10 11 12 14 16 19 39 90 99 100 100 100 100 100 100 100 100 100 100 100 100 100 100 100 100 100 100 91 100
3 3 3 3 4 4 3 3 3 3 2 3 3 3 4 4 5 6 8 8 9 10 11 14 16 35 72 45 70 96 87 100 100 100 100 100 100 100 100 100 100 100 100 100 98 100 100 100 100
4 4 3 3 2 2 2 2 2 2 2 2 3 3 4 4 5 7 8 10 10 11 12 16 44 40 61 84 100 100 100 100 100 100 100 100 100 100 100 100 100 100 100 100 96 100 100 99 99
2 2 2 2 2 2 2 2 3 3 3 4 4 4 6 7 10 13 16 17 26 36 40 50 99 100 100 100 100 100 100 100 100 100 100 100 100 100 100 100 100 100 100 100 100 100 100 100 100
2 2 3 3 3 4 4 4 4 5 6 6 5 6 8 13 44 54 100 94 88 98 92 100 100 100 100 100 100 100 100 100 100 100 100 100 100 100 100 100 100 100 100 100 100 100 94 98 100
4 4 4 5 5 5 5 6 6 7 9 20 35 35 56 99 100 100 100 100 100 100 100 100 100 100 100 100 100 100 100 100 100 100 100 100 98 100 100 100 100 100 100 94 100 100 100 100 100
6 7 7 8 8 6 7 8 7 9 18 60 81 98 87 100 100 100 100 100 100 100 100 100 100 100 100 100 100 100 100 100 100 100 100 100 100 100 100 100 92 99 100 100 95 100 100 100 100
8 8 10 12 14 13 11 9 10 12 23 61 78 88 100 100 100 100 100 100 100 100 100 100 100 100 100 100 100 100 100 100 100 100 100 100 100 100 100 100 99 99 100 83 100 100 100 99 90

GFSSGP_250_rhum_090.txt.gz
RH
55 53 51 58 63 54 60 81 73 54 32 12 18 24 25 22 18 17 18 17 16 47 47 65 50 60 66 55 48 77 73 71 66 50 47 49 48 52 53 50 43 40 37 43 45 44 46 48 47
53 52 53 57 58 77 99 100 97 62 41 36 23 22 32 26 19 21 23 18 16 27 56 63 54 49 49 57 54 56 61 64 72 71 55 58 61 56 58 54 51 55 54 51 50 49 49 50 54
62 59 56 46 55 61 64 78 92 87 87 51 31 29 34 42 15 19 21 24 20 18 25 32 41 47 68 50 52 54 57 54 52 72 78 70 74 69 64 64 59 60 61 62 54 52 52 53 56
90 80 48 48 58 56 73 74 62 67 75 86 82 49 34 41 21 16 22 26 23 26 21 20 24 28 53 65 52 53 51 50 47 60 72 85 80 77 74 69 68 63 65 60 58 58 60 58 58
100 94 76 43 55 66 50 60 64 61 63 71 72 75 79 65 62 28 17 35 38 25 23 20 22 51 45 39 70 78 76 55 53 52 71 69 75 70 75 78 82 72 63 62 64 68 65 66 65
100 100 100 96 50 50 73 65 42 43 51 46 59 74 80 90 79 70 45 15 32 31 36 50 39 46 51 63 42 59 63 68 54 58 66 73 70 67 69 77 81 75 64 67 72 68 69 70 70
100 100 92 100 100 59 63 55 57 45 34 31 40 62 79 82 84 77 67 32 29 31 28 48 52 78 38 69 71 59 34 45 64 59 57 55 70 68 75 66 73 84 71 72 75 72 75 78 70
72 97 92 92 78 69 48 42 41 29 33 28 28 36 62 66 72 81 86 70 42 38 44 33 71 47 57 67 57 64 27 23 47 61 63 58 56 69 86 70 64 72 85 94 99 96 88 81 82
62 78 100 100 92 98 72 46 33 26 34 25 22 26 32 46 57 74 67 65 60 54 40 31 82 82 74 57 72 58 39 28 31 59 65 73 52 70 88 83 67 69 78 99 99 100 100 98 86
35 42 56 74 95 82 81 59 61 40 32 30 25 20 21 29 42 53 56 56 67 53 44 14 17 27 84 82 71 64 38 39 41 40 58 71 80 66 81 94 84 74 72 86 91 100 100 100 100
17 22 28 28 47 71 70 51 43 42 33 32 26 22 18 19 23 34 47 49 50 32 43 21 15 11 80 68 63 65 40 22 33 37 50 75 86 79 89 96 94 90 83 76 83 87 100 100 100
15 13 14 17 20 26 39 31 29 22 34 34 24 16 22 22 23 22 34 48 48 48 43 20 12 14 43 49 23 32 25 23 34 40 45 69 97 93 98 100 100 97 95 90 83 80 84 99 100
13 12 10 10 10 11 14 20 17 18 23 30 33 21 19 18 20 19 24 37 47 32 28 19 15 16 15 13 16 23 34 22 24 26 33 63 100 100 94 98 94 99 100 99 98 88 89 98 100
15 11 10 10 9 7 8 11 10 18 17 19 22 21 18 18 20 23 25 31 38 30 27 23 24 21 15 10 15 19 32 25 25 40 51 76 100 100 100 98 96 100 100 100 100 100 100 99 100
8 9 12 10 6 5 5 9 10 11 10 12 13 16 16 16 17 22 23 26 31 25 18 22 22 21 21 15 10 24 34 23 29 46 73 88 100 100 100 100 100 100 100 100 100 100 100 100 100
5 5 7 5 4 4 4 6 7 8 9 10 11 12 12 16 16 19 18 22 24 19 20 20 20 21 26 20 12 23 30 46 44 91 100 100 100 100 100 100 100 100 100 100 100 100 100 100 100
6 6 4 3 3 3 3 4 4 6 8 9 9 7 7 9 12 14 15 18 20 20 21 17 17 18 26 26 18 16 36 100 100 100 100 100 100 100 100 100 100 100 100 100 100 100 100 100 100
7 5 4 3 3 2 2 3 2 4 5 6 7 6 6 7 9 11 14 16 16 17 21 22 23 20 18 28 17 19 36 100 100 82 100 100 100 100 100 100 100 100 100 100 100 100 100 100 100
5 4 3 3 2 2 2 2 2 2 2 3 4 5 6 7 8 9 10 11 13 16 17 18 20 14 16 24 17 16 91 100 100 100 100 100 100 100 100 100 100 100 100 100 100 100 100 100 100
4 3 2 2 2 2 2 2 2 2 2 2 3 4 5 6 6 8 9 9 11 14 14 17 16 18 20 22 16 17 58 100 100 99 100 100 100 94 100 100 99 100 100 100 100 100 100 100 100
2 2 2 2 2 2 2 2 2 2 2 2 2 3 4 5 6 8 9 9 10 12 11 12 14 18 17 18 14 20 33 100 100 100 100 100 100 100 100 100 100 100 100 100 100 100 100 100 100
3 3 2 2 2 2 2 2 2 2 2 2 2 2 3 4 5 6 7 8 8 8 10 14 14 13 15 15 19 27 29 42 100 100 100 100 100 100 100 100 100 100 100 100 100 100 100 100 100
3 3 3 2 2 2 2 2 2 2 2 2 2 2 3 3 4 4 5 6 6 9 12 13 14 13 18 16 20 31 32 37 45 100 100 100 100 100 100 100 90 99 100 91 100 100 100 100 100
4 3 3 2 2 2 2 2 2 3 3 3 3 3 3 4 4 4 5 6 9 13 15 16 15 17 23 24 24 26 40 79 100 100 100 100 100 100 100 100 96 79 91 92 92 100 92 98 98
6 5 5 4 4 3 3 3 3 3 3 4 4 5 5 5 6 8 9 10 12 17 21 20 22 21 28 28 23 24 94 100 100 100 100 100 100 100 100 100 100 99 91 100 84 94 99 98 86
5 4 3 3 2 2 2 2 2 2 2 2 2 3 4 5 6 6 8 10 13 16 19 22 21 20 21 21 20 47 46 100 100 100 100 100 100 100 100 100 100 100 100 100 100 93 100 100 100
3 3 3 2 2 2 2 2 2 2 2 3 3 4 4 4 5 6 7 9 10 15 18 16 16 16 17 20 32 60 100 100 100 100 100 100 100 100 100 100 100 100 100 100 100 100 100 100 100
4 4 4 4 4 4 4 4 5 5 5 5 5 6 8 11 15 14 17 27 53 64 50 51 59 70 60 37 86 100 100 100 100 100 100 100 100 100 100 100 100 100 100 100 100 100 100 100 99
5 5 6 5 6 6 7 7 8 7 7 7 8 10 25 32 49 67 79 57 71 97 100 88 100 100 100 94 100 100 100 100 100 100 100 100 100 100 100 98 100 100 100 100 100 100 100 100 96
7 7 8 10 8 12 11 12 13 18 17 18 15 25 41 43 90 100 100 100 93 92 100 100 100 100 100 100 100 100 100 100 100 100 100 100 100 100 100 100 100 100 100 100 100 100 100 100 100

GFSSGP_250_rhum_093.txt.gz
RH
65 48 36 41 39 31 51 70 73 58 25 26 30 33 31 27 21 17 17 15 15 16 16 18 30 38 55 64 62 61 61 64 60 49 66 53 42 36 46 50 52 49 45 40 40 44 44 44 44
69 62 54 40 36 45 52 59 63 52 37 28 23 30 40 51 26 20 22 18 15 17 20 20 18 22 36 82 75 61 63 56 57 62 51 74 52 47 47 52 55 53 50 45 47 48 49 47 48
78 74 66 68 50 42 66 61 49 48 49 39 30 26 38 43 37 33 25 25 22 18 21 22 17 13 17 38 84 79 64 69 63 72 64 59 78 60 58 57 58 58 56 60 56 56 54 53 53
90 85 80 76 79 62 54 50 57 51 57 51 41 30 42 45 28 32 32 30 30 27 25 21 20 16 13 20 58 89 75 59 65 62 66 63 60 75 67 72 67 66 66 63 60 58 55 54 56
100 100 94 91 92 90 76 56 46 44 42 48 55 50 54 60 47 36 38 38 33 35 29 25 26 22 19 19 30 56 73 84 66 60 56 57 50 64 78 81 80 74 72 72 70 60 57 58 59
95 97 85 100 100 99 97 74 67 44 41 35 36 47 50 47 52 48 50 53 24 68 32 32 30 26 31 36 39 31 36 59 80 60 54 54 46 47 79 85 82 83 81 85 75 65 62 59 58
66 68 64 58 100 100 100 97 93 79 47 34 34 34 38 43 53 62 60 65 52 67 84 78 51 26 21 39 71 85 73 55 86 89 68 62 65 49 56 85 80 78 87 86 80 72 70 72 66
75 75 94 79 60 90 100 100 100 100 100 52 36 32 32 34 36 39 51 63 71 43 75 80 86 77 35 43 46 63 66 82 76 55 59 78 91 62 51 85 84 84 77 81 85 80 79 87 85
64 79 76 90 97 79 54 90 100 100 100 70 48 46 30 30 33 32 36 46 56 53 52 30 43 53 47 44 38 39 57 60 64 80 53 46 55 71 59 59 67 89 81 81 85 94 95 100 100
39 40 46 54 56 89 95 66 61 82 86 83 78 58 48 38 25 26 29 32 45 56 57 61 28 24 22 27 54 66 54 51 40 50 70 70 41 50 71 64 53 58 85 88 86 88 94 100 100
58 43 34 31 35 45 70 92 74 49 86 80 61 47 44 44 43 32 26 25 28 34 41 45 41 30 22 32 77 64 52 37 28 37 50 68 41 31 61 88 83 65 62 83 88 90 91 97 97
46 28 24 25 17 21 31 40 40 48 48 43 66 47 32 36 38 39 40 28 29 24 31 36 33 30 22 21 44 39 43 41 37 34 43 45 43 26 31 68 99 97 72 70 88 90 95 96 92
16 23 17 15 17 14 15 21 22 24 25 32 38 28 20 25 30 37 40 32 29 28 28 28 30 33 31 28 28 26 21 34 56 72 63 44 45 40 40 44 72 100 98 74 76 86 79 95 100
11 13 15 14 13 13 12 13 13 18 14 13 15 18 15 14 18 27 33 35 35 32 32 26 20 22 28 26 23 33 29 25 46 68 39 29 35 30 38 53 58 92 100 80 95 93 81 82 100
8 8 9 9 8 9 10 12 10 11 10 10 10 11 9 8 11 15 18 24 41 36 33 23 20 18 22 30 31 38 34 20 22 52 32 25 26 22 27 71 79 82 100 100 96 100 100 80 91
8 7 7 5 5 5 6 10 10 7 8 9 10 10 9 9 11 13 14 15 20 32 31 25 21 18 26 35 32 40 32 26 18 16 19 32 23 23 22 50 72 80 99 87 100 100 100 85 88
7 7 6 6 5 4 4 4 5 4 4 7 9 10 10 8 9 9 10 13 16 20 20 24 20 20 27 28 32 36 36 28 18 16 20 41 23 30 28 33 58 78 97 100 100 100 100 100 100
7 6 6 7 6 4 3 4 3 2 3 4 5 6 8 8 7 7 7 9 11 13 18 20 16 18 21 23 29 33 32 24 29 18 18 34 27 38 42 40 81 100 95 100 100 100 100 100 100
6 7 7 5 5 4 3 3 2 2 2 2 3 3 4 6 5 5 6 6 10 12 14 10 10 16 20 19 23 28 29 28 29 26 26 35 33 30 53 60 85 100 100 100 100 100 100 100 100
7 7 5 4 4 4 2 2 2 2 2 2 2 2 2 3 3 4 4 6 9 9 10 9 11 14 16 19 23 23 24 25 26 27 30 33 30 52 84 66 96 100 100 100 100 100 100 100 100
5 4 4 4 3 3 2 2 2 2 2 2 2 2 2 3 3 3 4 5 6 7 8 10 13 14 17 19 19 21 20 22 24 24 32 41 35 48 97 100 100 100 100 100 100 100 100 100 100
5 4 4 4 3 3 2 2 2 2 2 2 2 2 2 2 2 3 3 4 4 6 8 10 12 14 17 17 18 18 20 20 23 20 42 42 83 99 100 100 100 100 100 100 100 100 100 100 100
4 4 3 3 2 2 2 2 2 2 2 2 2 2 2 3 3 4 4 4 4 6 9 11 13 14 15 20 25 23 19 19 14 24 38 76 100 100 100 100 100 99 100 100 94 100 100 96 100
5 4 4 3 3 3 2 2 2 2 2 2 2 2 2 3 3 3 3 3 4 5 6 8 13 17 18 18 18 15 12 20 23 25 36 94 100 100 100 100 100 100 100 100 100 100 100 100 100
8 6 6 5 4 3 3 3 3 2 2 2 2 2 3 3 3 3 4 4 5 6 6 7 8 9 9 10 11 13 19 22 22 32 46 65 100 100 100 100 100 100 100 99 100 100 100 100 100
10 7 5 4 4 4 3 3 3 3 3 4 3 3 4 4 4 4 4 5 6 7 8 9 9 10 11 12 14 18 20 24 35 40 64 76 100 100 100 100 100 100 100 100 100 100 100 100 100
4 3 3 3 2 2 2 2 2 2 2 2 2 3 4 5 7 8 8 8 9 10 13 13 12 14 16 17 20 25 26 28 32 48 62 100 100 100 100 100 100 100 100 100 100 100 84 84 75
6 5 5 4 4 4 4 3 3 2 2 3 3 3 3 3 4 6 8 10 12 14 18 20 24 22 26 29 32 36 38 39 44 42 57 100 100 100 100 100 100 100 100 100 100 100 100 100 100
10 8 10 9 7 6 6 6 5 6 6 4 4 4 4 4 4 4 5 7 10 14 19 27 39 44 41 31 41 45 41 34 61 90 100 100 100 100 100 100 100 100 100 100 100 100 100 100 100
15 15 15 18 11 12 10 10 14 12 10 11 8 7 6 6 5 5 6 8 13 37 43 58 64 79 83 78 61 72 71 64 100 100 100 100 100 100 100 100 100 100 100 100 100 100 100 100 100

GFSSGP_250_rhum_099.txt.gz
RH
52 49 48 46 46 37 41 45 37 28 25 24 25 27 26 22 20 22 25 23 24 25 24 20 19 18 26 52 69 75 80 74 68 60 59 71 87 76 67 74 54 43 42 43 51 51 51 48 49
52 56 58 57 56 53 50 48 36 32 31 34 33 35 34 28 27 28 30 26 22 22 22 20 18 19 19 23 34 62 66 71 69 65 60 59 70 80 65 66 77 54 46 44 56 57 58 54 53
62 56 56 60 56 59 57 56 46 43 33 32 36 32 32 35 35 36 42 38 30 28 27 24 19 18 23 22 20 18 36 54 62 69 66 68 59 69 84 62 66 86 59 50 52 59 63 65 63
55 70 70 61 63 64 62 62 62 60 56 33 32 30 36 35 38 41 43 46 47 42 32 29 24 20 28 32 21 18 16 19 32 43 56 75 68 59 85 85 70 72 83 65 55 57 64 67 67
67 64 73 76 75 68 71 69 67 71 70 59 44 45 45 40 35 36 36 37 36 43 46 34 39 32 29 30 40 28 22 27 25 19 27 62 87 80 74 81 73 76 73 84 70 58 64 67 69
97 88 82 77 77 83 78 79 74 74 75 74 67 64 67 57 47 41 34 29 26 28 40 93 79 64 42 42 80 44 26 26 33 33 30 40 54 71 89 85 91 79 88 79 78 75 66 69 70
100 100 100 95 84 68 80 83 88 86 82 81 83 81 77 79 67 62 55 47 35 26 23 52 93 100 52 87 100 97 76 47 44 40 34 28 34 63 74 87 94 98 74 77 81 80 77 77 72
65 80 96 100 100 100 84 82 63 73 91 93 96 91 88 88 82 71 72 74 66 38 29 22 40 82 89 84 98 100 85 82 86 69 37 32 40 24 46 74 100 90 92 88 76 79 88 92 87
52 61 66 77 84 100 95 88 85 70 71 64 89 98 85 97 93 68 73 84 84 81 54 37 28 24 38 53 64 89 86 69 83 88 62 42 34 37 29 45 77 92 85 84 80 83 72 72 95
85 63 53 59 65 72 88 94 82 77 79 82 69 73 64 54 76 70 54 55 89 94 86 73 35 32 32 28 30 35 65 94 84 67 68 54 48 37 34 51 52 49 69 85 85 73 70 68 64
70 63 67 66 52 52 67 68 53 67 64 59 60 71 72 63 53 54 56 62 51 66 94 93 62 53 46 63 34 29 54 59 62 68 57 65 56 64 55 55 49 65 82 59 52 87 75 65 76
71 53 65 76 63 51 46 46 44 44 53 49 49 58 65 63 61 63 60 58 71 62 58 74 76 53 41 48 46 37 32 29 26 36 41 33 38 41 52 78 66 61 67 67 69 75 78 80 80
72 96 82 83 54 48 52 52 54 60 53 47 52 56 62 52 41 49 53 52 58 74 76 71 70 71 50 40 56 54 57 52 36 37 30 27 26 30 44 77 97 95 81 70 60 64 60 78 79
27 42 50 49 62 56 41 46 43 51 48 38 34 41 39 37 30 31 42 49 49 46 49 71 60 59 74 71 47 55 68 50 44 58 43 33 31 25 50 81 73 47 42 44 51 62 76 72 80
27 22 20 22 33 44 52 60 39 36 34 39 31 27 25 26 34 23 22 35 45 45 40 52 60 51 50 72 75 43 56 44 37 42 48 40 30 27 36 42 32 34 46 44 77 100 92 77 84
48 32 24 18 14 14 15 25 39 34 36 36 28 19 16 11 11 16 15 14 16 29 34 29 42 45 40 34 41 38 47 48 46 43 47 53 35 29 30 23 22 23 30 41 63 100 99 73 51
73 50 35 22 18 15 12 14 10 9 8 8 8 7 7 8 8 8 9 10 6 9 15 17 18 21 26 28 33 45 40 41 35 40 36 38 36 31 31 27 23 20 20 32 45 85 66 52 46
74 66 46 31 19 15 11 10 8 7 7 6 6 5 5 4 5 5 4 4 5 4 6 9 10 11 13 16 24 26 33 28 20 24 36 29 34 36 34 32 29 25 27 30 44 43 37 42 37
75 79 54 30 22 16 11 9 7 7 6 5 5 5 4 3 3 2 2 2 2 2 3 5 7 8 10 12 14 18 16 14 13 26 35 31 29 32 38 37 38 32 30 35 39 47 42 38 40
67 70 54 33 19 11 8 7 7 6 5 4 3 3 3 2 2 2 2 2 2 2 2 3 5 7 10 11 11 12 12 11 14 21 25 25 31 29 31 39 36 34 36 35 39 49 41 38 32
54 49 35 22 16 12 10 8 6 6 4 3 2 3 3 3 2 2 2 2 2 2 2 2 3 5 6 7 8 9 10 11 13 17 21 25 28 26 23 29 30 32 31 45 48 47 40 35 38
49 44 31 24 17 13 10 6 6 4 3 3 2 2 2 3 3 2 2 2 2 2 2 2 2 3 3 4 6 8 10 12 12 14 18 24 29 23 19 23 29 32 28 41 48 40 42 49 32
38 33 26 18 12 10 6 4 4 3 3 3 3 3 3 3 3 2 2 2 2 2 2 2 2 2 3 3 4 6 8 11 15 15 20 26 31 27 24 21 28 32 27 26 34 31 44 60 41
31 27 20 12 9 6 5 5 4 4 3 3 3 3 3 3 3 3 3 3 2 2 3 2 2 2 3 3 4 5 6 9 13 14 15 19 28 25 21 24 28 27 26 26 28 31 41 56 46
21 12 8 8 9 9 7 6 5 4 3 3 3 3 3 2 2 2 2 2 2 2 2 3 3 3 3 4 4 5 5 6 6 6 7 8 10 14 18 25 28 33 40 38 36 32 35 41 36
10 12 19 15 12 9 8 7 5 4 4 4 4 3 3 3 3 3 3 3 3 3 3 3 3 3 4 4 4 5 5 7 7 7 8 9 11 13 16 22 36 41 50 50 47 46 33 32 59
20 14 11 11 9 7 6 5 5 4 4 5 5 5 5 4 3 3 3 4 3 4 4 4 4 4 4 5 6 7 7 8 9 9 9 10 16 23 36 41 47 48 40 32 30 48 67 81 99
15 17 25 20 12 10 8 7 5 4 4 4 4 4 6 7 7 6 5 5 5 5 5 5 5 5 6 6 7 7 8 9 10 11 14 18 23 27 31 30 27 24 29 41 74 95 100 100 100
22 26 28 18 16 15 9 15 8 8 8 6 6 6 5 4 5 7 8 10 10 11 10 9 8 7 8 8 10 9 10 10 10 11 13 15 17 19 22 32 47 55 89 94 96 100 100 100 100
42 35 26 30 27 32 28 40 37 25 20 18 23 22 15 25 30 21 19 12 13 14 18 18 18 20 23 22 27 27 29 31 25 20 30 28 31 38 71 97 99 91 100 100 100 100 100 100 100

GFSSGP_250_rhum_102.txt.gz
RH
44 43 41 38 40 37 36 37 29 27 25 24 27 29 25 24 23 24 22 21 22 25 28 33 38 41 56 58 65 57 46 47 60 58 70 76 72 68 81 78 80 78 61 38 35 38 51 54 51
47 48 46 44 43 45 45 45 38 38 40 28 24 28 28 27 27 28 26 23 22 22 24 34 27 23 33 53 58 54 37 39 50 53 55 61 66 66 63 88 95 82 75 62 40 37 49 55 56
49 48 50 48 47 52 51 53 53 54 53 46 38 31 38 37 36 36 37 30 27 26 28 32 29 27 20 28 42 48 49 36 37 40 50 55 57 61 65 64 83 98 84 81 64 43 41 49 54
51 50 55 54 51 53 56 57 56 58 57 54 50 47 42 40 36 42 50 44 45 38 36 64 31 38 47 41 44 40 34 40 39 28 26 43 50 54 60 66 74 81 100 87 82 71 49 45 53
53 54 54 55 56 55 54 58 60 59 64 62 57 56 54 39 38 37 41 43 48 44 41 47 74 72 60 56 76 68 60 44 47 46 27 24 34 51 57 61 72 71 98 100 96 92 82 62 51
100 86 73 70 61 58 60 63 63 62 63 64 64 58 61 58 44 49 52 50 42 40 42 36 36 86 100 93 78 60 64 80 94 88 73 55 50 44 31 34 61 77 76 100 100 100 100 95 84
91 100 100 100 98 75 61 64 65 60 63 67 72 70 69 66 60 59 58 60 59 52 41 33 29 30 97 100 100 94 65 84 81 79 60 65 57 50 45 46 63 81 86 92 99 100 100 100 100
71 57 61 92 100 100 97 78 79 67 60 70 74 71 69 78 76 71 69 72 72 71 66 63 61 46 35 71 100 100 73 100 100 100 82 90 76 47 34 33 40 51 70 84 97 100 100 100 100
89 75 55 59 79 84 96 100 100 100 85 66 64 83 80 77 76 80 84 85 84 82 79 73 66 56 63 41 43 79 99 89 78 100 100 100 100 96 71 49 37 40 38 48 58 78 98 93 92
96 86 72 81 77 75 64 77 90 96 100 100 96 71 69 74 81 85 87 90 96 94 97 84 72 66 56 56 51 31 44 44 45 49 93 100 100 99 74 70 66 50 44 45 37 54 78 80 79
99 79 87 94 85 73 64 63 61 72 78 86 99 99 82 65 65 72 81 74 64 66 86 96 84 60 49 52 66 67 36 30 33 39 37 74 88 100 84 66 64 55 52 55 58 55 62 73 67
85 85 87 89 86 62 65 64 67 57 56 61 62 72 86 90 85 56 57 64 65 59 64 63 66 56 50 54 74 67 85 56 38 37 37 44 58 67 56 54 45 47 48 52 77 78 74 85 85
90 87 68 66 78 65 56 56 57 58 54 53 56 56 61 65 67 64 60 55 53 59 55 60 58 62 59 51 57 49 63 71 69 43 42 39 46 35 30 44 37 40 57 52 77 100 97 68 53
57 80 82 90 81 91 100 76 43 49 44 40 39 39 39 49 57 52 44 43 40 46 64 62 66 66 65 61 55 60 61 57 72 72 55 51 49 30 46 28 31 32 32 40 49 94 75 60 60
27 29 32 38 37 40 75 81 54 69 60 43 32 39 34 28 33 34 37 36 38 39 41 51 68 70 54 61 52 51 50 52 45 48 44 48 56 47 56 67 62 52 34 38 42 81 67 47 50
35 31 29 24 18 17 25 38 39 46 48 42 36 27 23 25 17 17 25 28 23 25 30 30 36 55 46 42 54 49 44 45 45 49 46 45 55 53 58 58 61 57 53 43 36 41 35 31 41
56 48 44 28 22 17 16 19 17 14 13 16 18 17 18 19 15 14 15 16 19 14 14 21 21 22 36 48 38 45 55 41 39 41 48 35 31 34 33 41 55 66 56 55 46 38 35 31 34
64 58 48 40 42 30 21 21 14 12 12 10 9 9 9 9 9 9 8 10 12 12 11 9 12 14 11 16 25 30 36 35 23 23 28 26 20 27 29 51 49 51 57 44 55 57 42 37 36
88 86 59 66 56 58 44 37 15 12 9 8 8 7 6 6 6 6 6 5 4 3 3 4 3 4 6 6 6 12 18 19 20 15 18 16 15 17 22 31 52 58 63 57 48 47 52 51 38
74 85 98 79 60 45 34 32 21 17 10 8 6 7 6 6 6 6 5 4 3 2 2 2 2 2 3 4 4 6 8 10 11 13 11 9 10 13 17 29 37 38 64 58 45 46 44 44 49
83 82 80 70 49 34 23 26 24 15 10 8 7 6 5 5 5 4 4 3 3 2 2 3 2 2 3 3 3 3 5 6 7 8 11 10 9 10 13 18 23 28 34 54 49 43 38 38 50
76 69 68 66 51 44 31 28 21 18 14 7 5 4 4 4 3 3 3 3 3 3 3 3 3 2 3 3 3 3 4 5 6 6 7 6 7 9 11 16 18 19 21 22 28 41 42 32 45
67 61 47 40 32 25 21 28 28 16 4 4 4 3 3 3 3 3 3 3 3 3 3 3 3 3 3 3 4 4 4 4 5 5 6 7 7 8 10 12 13 15 17 19 23 26 28 35 46
36 40 33 28 27 28 29 20 14 6 4 3 3 3 3 3 3 3 3 3 3 3 3 3 3 3 3 4 4 4 4 4 4 4 4 5 6 9 12 14 16 19 23 21 24 32 36 36 38
47 45 43 34 20 17 15 10 9 11 7 5 5 4 4 3 3 3 3 3 3 3 3 3 3 3 3 4 4 4 4 4 4 4 4 5 5 6 9 18 22 24 28 29 32 32 38 45 44
31 26 21 18 12 14 19 13 11 10 7 6 6 7 6 5 4 3 3 3 3 3 3 3 4 4 4 4 4 5 6 7 6 6 6 6 6 8 10 15 23 28 30 34 38 44 46 44 54
20 14 19 25 22 20 17 13 11 9 6 5 6 8 9 8 7 5 5 4 4 4 4 4 4 4 4 4 5 5 5 6 6 7 7 7 8 8 10 11 12 12 13 14 13 15 19 29 34
34 34 33 31 28 36 24 24 18 9 7 6 5 7 10 12 12 10 7 6 5 5 5 5 5 5 5 6 6 6 6 6 7 8 8 8 9 9 9 9 9 10 11 13 18 24 30 47 55
41 38 40 36 45 43 47 49 36 31 26 19 15 10 14 12 13 13 14 15 15 13 11 8 7 7 8 8 8 9 10 10 10 10 10 10 10 11 12 13 14 17 21 34 44 49 59 61 60
40 39 58 52 74 69 76 73 57 56 52 45 32 28 32 33 36 31 16 15 16 13 14 18 19 19 18 18 17 16 14 15 15 14 14 12 13 16 14 18 21 26 40 56 60 78 70 76 74

GFSSGP_250_rhum_105.txt.gz
RH
39 41 42 35 29 28 31 30 25 23 24 23 24 24 23 20 20 22 19 19 21 23 22 23 23 31 42 48 56 58 56 56 59 68 70 74 69 71 67 64 77 93 90 88 78 62 40 34 34
40 43 43 45 43 34 36 38 29 34 32 28 36 28 23 24 24 26 23 21 21 21 21 20 27 28 26 34 37 44 44 50 52 53 56 51 56 73 73 72 74 73 84 100 98 81 63 42 37
38 42 42 44 46 45 46 42 42 42 44 40 42 43 32 36 27 30 32 29 26 25 25 28 26 49 58 76 65 54 40 54 60 56 55 48 42 63 74 74 72 72 68 69 98 100 89 66 47
39 39 43 44 45 50 49 44 49 50 48 55 53 54 45 43 41 34 35 34 32 31 24 29 42 67 78 68 77 85 88 66 55 47 45 53 43 36 44 61 74 70 68 72 76 99 100 100 75
51 40 39 44 47 49 50 50 46 51 58 59 57 57 56 51 50 49 44 43 37 33 30 31 34 42 57 83 100 97 96 96 90 83 81 75 66 50 42 33 48 68 69 64 68 75 96 100 100
83 62 56 61 53 47 50 52 53 51 53 54 55 58 62 60 55 55 57 49 48 47 47 38 37 38 46 41 50 100 100 100 100 81 80 89 90 96 69 42 37 49 65 78 72 76 77 100 100
100 100 97 79 71 62 51 52 54 53 53 56 57 57 60 62 66 59 58 58 49 50 54 57 54 45 44 48 34 73 100 100 100 90 100 100 92 79 67 62 58 58 46 39 48 71 77 90 100
72 65 61 75 100 100 80 66 58 57 60 59 58 60 60 62 63 67 65 61 60 58 58 59 60 61 62 47 60 61 60 100 100 100 86 100 100 100 96 78 63 62 53 45 42 48 74 82 92
54 61 54 57 61 72 100 96 94 89 85 78 73 66 64 60 57 63 71 73 68 64 62 65 68 66 69 72 67 73 89 71 64 100 100 99 88 100 100 100 98 64 54 50 49 54 62 70 75
74 53 56 59 72 73 71 87 96 100 100 100 100 92 78 81 71 65 64 68 73 72 74 73 73 78 79 76 65 64 68 70 79 54 57 88 67 58 86 100 100 96 77 65 62 51 52 58 79
100 90 86 97 80 71 61 65 66 61 54 69 100 100 100 100 100 96 77 70 73 76 75 71 72 74 77 84 89 82 65 52 55 75 78 58 43 45 48 53 83 75 93 70 64 52 49 44 58
97 88 84 98 100 100 100 95 72 58 57 62 67 71 81 83 94 98 100 100 87 70 63 61 59 56 51 45 52 59 80 70 66 34 59 83 75 54 49 46 42 55 76 68 59 68 62 63 56
98 99 90 98 88 85 96 100 100 89 84 85 78 71 64 67 74 65 72 86 99 100 84 70 68 72 66 70 58 50 44 45 52 44 42 50 61 95 82 72 50 50 56 50 54 56 63 44 47
38 76 89 98 96 95 94 86 81 82 86 85 80 74 76 69 52 66 68 63 62 70 86 91 82 70 68 63 59 57 60 59 48 46 45 44 58 51 96 60 72 64 54 62 66 65 52 49 44
29 25 26 33 40 46 52 64 74 68 65 61 56 46 46 39 34 44 52 53 52 51 57 61 69 85 78 67 56 59 44 41 51 52 55 56 50 39 73 77 50 58 80 56 66 66 75 75 54
39 30 22 22 22 25 28 36 61 72 63 52 46 35 33 30 32 31 26 30 32 30 31 40 40 41 47 46 43 42 43 38 41 45 41 47 46 48 37 52 55 55 68 83 85 78 91 94 85
50 45 38 34 27 23 22 26 24 21 20 22 28 31 33 29 22 22 19 17 18 18 17 17 19 21 22 29 35 34 32 35 37 30 32 37 46 37 43 43 51 53 52 46 52 72 87 74 65
77 61 54 43 42 29 24 22 18 17 16 15 17 14 11 10 10 14 17 16 14 13 12 12 12 12 15 15 14 21 25 28 25 24 20 21 22 23 19 28 41 43 47 65 61 57 67 66 76
86 83 69 53 50 52 37 25 21 18 18 16 13 12 11 10 9 9 9 9 7 7 6 7 8 7 8 10 10 9 12 13 12 12 14 15 13 11 13 14 24 30 35 47 59 49 52 55 76
99 91 82 70 60 55 49 46 37 26 20 16 14 11 9 9 8 8 8 8 7 6 6 6 5 4 4 4 5 5 5 7 9 10 9 8 10 11 12 11 15 19 23 38 54 63 43 47 53
94 92 94 86 79 71 66 49 36 28 29 23 18 16 11 10 8 6 6 6 5 4 3 3 3 3 3 3 3 3 3 4 4 4 5 6 7 8 10 11 13 16 23 28 34 47 45 43 52
94 86 81 78 81 68 63 55 55 46 41 37 23 12 7 5 6 6 5 4 4 4 3 3 3 3 3 4 3 3 3 3 3 3 4 4 5 5 7 9 12 10 11 14 19 21 21 25 30
89 85 79 70 60 51 46 47 56 53 44 32 24 11 5 6 5 4 4 4 3 3 3 3 3 3 3 3 3 3 3 3 3 4 4 4 5 6 5 5 5 6 6 9 13 19 22 22 22
55 52 46 49 56 57 51 45 36 24 22 17 8 6 6 6 4 3 3 3 3 3 3 3 3 3 3 3 3 3 3 4 4 4 4 5 6 6 5 4 4 5 6 8 10 16 17 20 21
44 44 44 46 45 37 33 36 30 19 13 9 8 9 7 6 6 5 4 4 4 3 3 3 3 3 3 3 3 3 4 4 4 5 6 6 6 6 5 5 5 5 6 8 11 15 18 22 22
65 61 57 49 39 29 24 22 17 13 12 14 9 7 7 8 9 9 7 6 4 4 4 4 4 4 4 4 4 4 4 4 5 6 6 7 7 7 6 6 5 6 8 9 11 11 14 20 29
49 37 32 28 25 20 17 19 20 18 19 13 9 9 11 14 16 14 11 8 7 6 5 4 4 4 4 4 4 4 5 5 5 6 7 7 7 8 8 7 6 7 7 7 8 8 8 11 22
32 25 22 20 28 35 36 38 42 45 35 21 19 15 11 14 16 17 17 16 11 8 7 6 6 6 5 5 5 4 5 5 6 6 7 8 8 8 8 8 8 8 9 10 11 12 14 18 25
25 36 45 64 69 66 68 81 80 83 65 54 43 35 25 21 17 17 26 25 22 18 15 11 8 8 8 8 9 9 8 8 9 9 8 10 9 9 9 9 9 9 10 11 11 13 14 14 14
56 62 93 80 70 62 74 82 83 87 78 73 65 53 44 37 59 49 49 42 30 29 28 27 25 18 16 12 12 11 11 11 13 13 13 13 13 12 13 14 13 13 14 15 15 16 16 16 16

GFSSGP_250_rhum_108.txt.gz
RH
40 34 29 25 28 25 21 18 20 18 22 23 21 21 21 24 23 24 21 19 19 20 23 20 21 30 44 51 58 55 75 74 74 70 92 93 93 85 81 76 77 78 70 74 80 100 100 88 66
46 40 37 37 41 34 25 24 22 26 24 24 24 23 24 26 23 28 25 22 20 20 18 18 19 22 30 34 34 42 53 59 74 75 74 80 100 100 96 73 66 77 77 78 83 78 95 100 96
44 46 41 38 41 44 43 32 33 33 30 26 33 29 32 36 24 20 23 23 24 25 24 23 23 23 21 27 46 72 68 66 57 63 59 63 89 94 100 94 78 60 89 81 82 77 66 74 100
39 44 42 38 36 46 46 41 40 42 39 39 40 42 43 48 47 37 33 27 26 28 31 28 32 32 42 39 80 88 82 97 100 94 76 74 75 73 82 85 76 67 70 76 80 83 73 69 76
46 38 40 36 40 42 45 46 46 44 46 47 48 47 50 53 52 52 46 46 45 29 24 26 31 32 31 38 77 79 80 99 100 100 100 100 92 77 61 63 71 66 53 53 62 68 78 73 73
66 52 46 44 40 38 40 43 45 48 48 47 49 50 54 56 52 51 58 55 49 47 44 34 38 44 34 28 33 42 47 61 100 100 100 100 78 92 99 100 99 79 61 48 37 34 60 85 80
100 84 77 60 64 42 43 43 46 47 49 48 52 51 52 53 52 51 54 58 57 56 56 52 44 46 53 54 42 35 34 44 41 89 100 99 96 75 100 99 87 89 81 74 69 56 56 51 69
100 100 100 100 91 78 64 54 54 51 50 52 53 51 50 54 56 57 57 54 57 59 59 57 57 54 53 54 58 57 52 45 50 85 100 100 100 97 75 91 96 94 88 76 90 67 58 56 48
79 98 94 100 100 100 99 74 62 66 61 62 56 54 50 51 58 62 68 65 58 58 56 61 60 58 60 58 60 59 68 75 76 74 91 96 82 93 100 96 78 80 88 98 87 88 70 61 53
68 70 75 61 66 89 100 100 100 100 92 78 74 67 62 60 60 65 70 72 70 64 60 56 54 58 61 57 58 60 61 69 77 80 76 73 78 80 64 78 80 60 56 87 86 87 88 71 61
55 55 62 52 48 56 72 90 71 71 79 96 100 100 92 75 77 79 77 74 76 74 77 71 68 65 60 58 62 62 63 53 57 69 83 84 80 66 85 76 66 61 54 49 54 64 68 86 66
69 61 59 50 56 72 71 55 60 61 50 56 61 70 93 100 100 100 99 100 100 100 100 99 92 77 74 70 65 58 58 54 49 51 61 61 70 77 75 80 84 89 52 51 76 70 50 66 66
95 79 57 58 75 80 90 82 78 61 56 57 59 55 56 59 68 67 62 61 84 94 100 100 100 100 99 90 86 76 67 61 55 48 46 47 63 51 62 68 56 84 94 81 73 81 74 75 75
99 85 65 61 73 79 85 92 97 94 87 83 82 79 78 88 72 59 56 62 67 62 60 68 74 79 85 95 98 100 100 92 69 63 57 44 44 45 41 63 56 52 66 100 82 72 75 81 77
99 99 91 86 68 87 81 89 81 84 78 74 66 78 84 82 96 96 89 73 73 65 54 62 64 63 60 62 64 65 64 74 75 68 61 49 41 43 37 39 41 47 52 61 58 67 63 80 74
60 79 86 82 78 79 81 87 70 66 82 92 81 74 74 72 78 76 67 67 56 47 58 64 54 46 39 39 49 53 54 58 58 51 49 49 42 36 35 35 33 33 38 49 69 58 78 51 66
41 37 28 28 31 26 29 26 22 25 29 45 70 72 70 55 44 43 36 41 46 40 32 30 25 21 22 25 21 27 32 31 34 42 44 40 33 30 32 30 29 36 36 44 40 50 58 80 70
67 58 52 40 41 33 30 27 23 20 18 17 14 13 14 14 14 16 18 22 22 19 17 18 16 16 16 15 16 17 20 22 26 26 25 29 30 23 18 23 27 26 30 28 27 48 42 42 53
78 73 64 58 62 58 39 36 29 22 18 19 20 18 16 13 12 13 14 13 11 10 10 10 10 9 8 7 7 9 12 15 16 17 18 20 20 15 10 12 14 15 16 22 24 30 53 35 41
71 72 66 60 63 58 49 34 32 39 41 31 24 22 17 14 10 10 10 10 10 9 8 8 7 6 5 4 3 3 4 6 6 8 11 13 9 8 7 9 9 10 10 11 15 21 36 46 35
78 72 76 71 69 64 61 54 56 52 45 29 21 17 16 17 17 16 12 10 8 8 7 6 5 4 3 3 4 4 4 4 4 4 4 4 5 6 6 7 10 8 8 13 19 18 18 29 37
98 98 93 75 72 69 64 64 59 51 31 28 32 35 29 21 14 10 8 6 6 6 6 5 4 4 4 4 4 4 4 4 4 4 4 4 4 4 4 4 5 6 7 8 10 17 20 21 25
99 100 98 94 93 75 67 67 60 51 42 38 35 28 20 12 11 7 6 6 5 4 4 4 4 4 3 3 3 3 3 4 4 4 4 4 4 5 5 5 6 7 6 5 5 6 7 9 13
60 64 66 68 70 67 69 69 68 58 48 36 27 16 13 13 10 7 5 5 5 5 5 4 3 3 3 3 3 3 3 3 4 4 4 4 4 5 5 6 6 6 6 5 5 6 6 6 6
45 52 60 62 66 64 59 56 48 41 24 21 22 20 13 8 8 9 8 7 6 6 5 4 4 4 3 3 3 3 3 3 3 3 4 4 4 5 6 6 7 7 6 6 7 7 6 5 6
60 52 49 50 46 38 30 26 30 36 33 17 12 10 12 10 7 7 10 11 10 9 8 6 5 4 4 3 3 3 4 4 4 4 4 4 4 4 5 5 6 6 6 7 8 7 7 6 6
46 50 57 57 55 48 39 30 21 17 18 26 24 18 13 12 12 13 13 17 16 12 8 7 6 5 4 4 4 4 4 4 4 4 5 5 5 5 5 5 6 6 7 8 8 8 8 8 8
52 56 51 35 27 22 20 22 33 35 37 41 34 27 21 18 16 15 14 15 14 13 13 11 9 7 6 5 5 5 5 5 5 6 6 6 6 7 7 7 7 7 8 8 8 8 8 8 8
32 26 22 26 29 35 41 55 48 60 58 47 50 52 35 25 20 17 28 43 50 41 30 22 18 14 13 10 8 7 7 7 6 6 6 6 6 7 7 7 8 8 8 8 9 9 9 10 11
27 35 35 39 40 45 58 67 67 65 53 50 45 44 46 40 47 43 35 44 41 43 37 30 34 30 24 24 23 17 13 11 11 11 11 11 11 10 11 11 12 12 11 10 10 11 12 14 16

GFSSGP_250_rhum_111.txt.gz
RH
38 34 36 34 29 26 19 20 24 27 32 34 29 28 25 25 22 17 18 17 18 19 22 24 26 32 44 47 48 36 47 73 92 88 99 99 100 100 99 98 95 89 89 79 85 80 78 88 97
43 43 34 38 32 27 22 25 25 21 18 18 17 18 23 22 21 21 20 18 18 18 19 18 19 19 28 22 23 29 43 56 82 95 97 100 100 100 97 100 100 100 100 90 71 81 82 78 80
42 43 42 42 39 35 30 35 32 23 21 22 20 20 24 23 21 21 22 19 18 19 20 22 22 21 28 41 36 27 29 37 46 62 81 84 83 97 94 87 94 100 100 100 98 67 79 94 89
42 43 38 41 43 44 38 38 41 39 31 30 30 27 25 31 29 29 32 31 26 22 21 22 26 23 28 45 62 61 40 51 89 100 100 100 100 99 96 87 83 99 100 100 100 98 83 82 83
87 58 34 33 42 47 44 40 40 44 44 44 43 40 37 38 39 44 46 44 40 38 37 28 24 28 25 26 44 46 77 99 100 100 100 98 100 100 99 92 82 70 63 72 90 96 75 74 71
88 84 59 47 36 42 46 43 41 44 46 46 46 47 47 47 48 48 49 52 48 45 43 38 37 31 26 26 31 31 52 85 82 88 96 97 100 100 96 82 99 100 100 94 88 76 73 71 63
50 84 95 76 74 39 38 47 44 40 43 45 46 46 48 49 48 50 51 52 52 51 51 49 39 35 41 44 37 34 46 41 47 49 50 70 86 100 100 100 95 96 98 88 90 86 75 67 61
43 52 84 96 90 83 44 41 48 41 38 44 45 46 46 45 48 51 51 51 53 54 54 53 47 46 43 41 43 44 43 45 47 54 49 45 60 81 77 83 95 98 95 86 84 85 90 98 74
34 36 58 90 100 100 94 66 57 67 57 56 52 47 47 48 48 49 51 53 54 56 58 61 61 56 53 50 47 43 42 42 47 54 66 67 67 82 83 93 81 70 81 88 81 75 97 96 96
46 42 45 63 92 91 100 100 90 86 82 76 72 65 55 55 57 55 55 54 55 57 61 63 66 68 66 61 60 58 55 52 46 46 49 56 66 76 82 80 77 75 72 71 62 64 52 82 81
54 53 61 54 61 69 96 100 100 100 100 100 99 97 78 70 73 71 64 63 67 66 63 64 70 72 75 73 70 69 65 68 66 55 47 52 57 61 65 70 80 78 76 80 70 66 65 52 52
68 64 67 58 64 65 79 100 100 98 100 99 100 100 100 100 100 100 100 97 100 94 76 75 81 84 88 87 82 83 85 84 78 73 69 58 52 52 58 66 70 79 86 76 76 76 70 76 52
97 78 78 70 71 56 84 92 86 88 81 62 55 68 90 90 82 71 71 74 68 84 96 100 100 100 99 95 100 100 100 100 100 90 84 80 76 65 52 47 50 58 57 52 68 82 81 68 71
92 86 84 78 81 66 84 93 77 66 67 61 48 47 57 64 66 62 56 52 56 55 58 61 68 66 60 58 58 67 86 91 91 100 97 98 85 81 78 73 63 56 51 56 60 52 62 66 63
89 81 79 96 89 81 80 77 78 66 57 61 57 65 65 64 80 93 93 70 70 82 79 72 66 57 60 55 49 52 53 52 54 68 76 69 74 82 79 76 72 67 65 62 54 56 49 49 65
59 62 82 80 96 84 76 97 95 80 76 70 59 60 73 82 77 84 88 87 66 60 70 70 64 66 60 68 62 49 51 52 48 46 43 45 43 45 44 49 49 44 45 47 59 59 64 55 48
35 40 67 92 94 100 91 87 74 80 84 86 75 80 60 64 76 79 78 66 64 69 69 70 65 53 44 46 47 47 40 40 36 31 33 32 33 33 28 36 38 30 29 31 34 38 35 51 58
40 32 26 45 50 66 78 83 77 76 75 79 75 65 61 63 67 64 61 32 28 38 47 57 59 52 34 22 22 24 21 25 26 21 23 24 22 19 20 20 19 17 19 21 30 41 35 41 47
41 38 34 30 31 24 24 37 31 27 29 27 22 22 21 18 17 14 13 13 14 14 13 13 13 10 10 10 10 10 10 10 12 12 11 14 12 12 16 15 12 9 9 15 19 20 22 22 26
50 50 46 50 48 42 29 32 31 22 18 20 22 26 16 12 12 12 12 12 12 11 11 10 10 8 8 8 6 5 5 5 5 5 5 6 6 7 8 8 6 7 7 9 9 12 15 14 15
62 59 49 47 45 46 49 50 42 36 32 20 21 18 17 18 16 13 12 11 11 10 10 9 8 7 6 5 5 5 5 5 4 4 4 4 5 6 6 5 4 4 5 7 10 9 8 11 17
64 73 73 55 52 53 56 60 48 39 34 35 42 42 29 21 18 14 14 13 11 9 7 6 6 6 6 6 5 5 4 4 4 4 4 5 4 5 5 6 6 5 5 5 6 6 9 10 13
67 82 83 89 90 83 82 71 65 59 56 45 40 34 25 15 14 16 13 11 8 7 7 6 6 5 4 4 3 3 3 3 3 3 4 4 4 4 4 4 5 5 5 5 6 6 7 6 7
52 61 77 87 88 90 79 72 70 67 70 63 43 25 21 17 14 13 11 10 9 7 6 5 5 5 5 4 4 3 3 3 3 3 3 3 4 4 4 4 4 4 5 6 6 6 6 6 5
44 54 58 61 63 66 62 57 49 41 38 33 30 26 17 13 12 9 7 7 8 8 8 9 9 9 8 6 5 4 3 3 3 3 3 3 3 3 3 4 4 4 5 6 6 6 6 6 6
39 38 42 41 38 38 40 41 40 37 34 29 30 24 15 10 14 13 10 10 12 16 17 17 13 10 8 7 6 5 5 4 4 4 4 4 4 4 4 4 4 4 4 5 5 6 6 6 7
35 36 35 35 38 45 39 36 38 41 33 22 18 16 20 16 14 12 21 21 26 25 23 20 14 13 13 10 9 8 7 6 5 4 4 4 4 5 5 5 5 5 5 5 5 6 6 6 6
36 34 38 39 40 45 48 36 22 19 23 32 33 36 37 41 36 29 31 34 33 33 22 26 27 21 17 18 19 11 9 9 9 8 8 7 7 7 7 7 7 6 6 6 6 6 6 6 7
38 37 39 41 36 28 24 30 38 39 45 54 52 56 67 48 54 54 53 55 52 51 49 46 46 44 36 31 27 27 24 16 12 10 10 10 10 10 9 8 9 9 10 10 9 9 9 9 9
36 31 24 39 38 45 53 64 70 70 72 69 61 62 62 65 56 51 48 44 42 42 41 39 38 37 37 39 36 35 35 39 42 41 34 29 22 21 19 15 14 14 14 13 12 11 11 10 10

GFSSGP_250_rhum_114.txt.gz
RH
37 35 34 32 28 24 20 22 22 20 18 17 19 23 36 83 78 63 52 45 28 22 16 16 16 19 28 54 60 62 58 65 65 59 52 91 100 100 100 100 99 98 99 96 91 98 95 90 87
41 41 39 34 33 31 27 27 26 22 18 22 24 25 29 37 29 22 19 17 17 17 17 16 16 17 21 30 39 41 44 35 37 37 38 58 94 97 82 95 100 100 97 96 100 100 100 91 81
53 43 43 40 38 33 34 32 29 24 22 21 21 20 18 17 18 20 20 20 19 18 17 16 16 37 36 24 24 28 36 27 28 36 46 53 54 63 71 71 81 86 98 97 86 97 100 100 88
64 56 41 49 43 44 36 37 35 28 28 30 23 23 22 20 21 22 23 25 26 24 24 20 22 24 25 24 23 37 39 50 46 29 32 40 62 94 100 100 99 86 84 94 92 94 100 100 100
53 58 54 54 60 45 43 43 42 37 35 37 39 33 29 30 28 26 33 31 30 34 35 32 31 39 25 37 35 46 50 64 57 64 84 99 100 100 100 100 100 98 78 70 69 69 74 86 94
54 72 92 96 70 55 50 41 42 45 41 40 42 43 42 40 40 36 38 41 40 38 37 39 37 36 37 34 26 33 46 49 73 98 99 99 100 100 100 100 100 93 95 99 94 86 74 72 75
46 52 66 73 92 85 62 40 35 42 46 41 45 44 47 46 44 44 43 45 47 46 44 45 42 41 40 36 33 34 32 36 47 61 78 77 62 84 92 95 100 100 100 100 100 91 78 83 81
51 44 42 36 56 74 88 75 43 41 40 46 42 40 42 47 46 48 48 48 49 50 50 50 49 49 51 54 53 46 44 36 30 34 42 45 51 54 54 57 79 96 94 100 100 100 96 90 87
49 46 45 39 39 51 63 81 72 58 55 43 44 50 45 44 47 47 48 49 49 49 51 53 55 55 54 56 59 62 62 57 54 49 44 38 36 41 47 58 62 67 72 77 88 78 82 98 87
56 46 48 46 40 37 40 55 84 88 80 73 49 38 52 51 42 46 49 52 53 52 52 54 57 58 58 59 60 62 62 60 66 63 59 59 57 51 45 43 46 53 64 76 77 75 76 72 73
61 58 45 42 44 40 38 41 54 74 88 88 92 86 62 63 76 75 65 62 60 58 59 60 59 60 62 64 62 62 64 73 75 76 77 75 74 74 70 65 61 52 51 60 67 66 71 77 71
60 61 60 54 50 49 43 40 40 55 77 90 96 100 100 95 89 90 87 90 88 81 75 75 82 84 81 81 87 85 73 78 83 86 86 80 79 79 82 85 74 71 62 55 52 57 61 70 80
58 57 63 60 62 54 53 54 59 47 54 76 88 86 97 99 100 100 100 100 100 100 94 95 93 92 85 85 86 95 96 91 96 99 99 100 94 88 87 78 86 85 81 79 75 72 63 56 64
52 56 70 69 70 66 70 63 58 59 60 66 66 66 84 100 100 100 96 89 79 72 84 92 91 77 67 60 52 54 60 72 78 84 84 72 67 67 78 85 87 79 78 74 77 78 81 76 69
40 57 79 86 86 81 76 66 68 67 62 67 70 60 70 78 84 85 85 76 63 53 47 51 66 66 62 57 51 44 46 52 52 52 57 61 56 53 55 50 48 65 70 75 76 67 69 90 90
32 64 77 79 95 93 96 98 85 74 75 79 88 97 84 77 86 66 58 60 60 60 57 57 64 62 56 59 54 52 52 45 43 40 38 40 43 36 33 37 40 42 47 47 45 54 55 59 64
32 55 45 38 59 58 44 65 99 100 96 97 96 94 84 84 74 68 68 67 68 64 57 52 49 51 51 46 41 42 36 37 36 35 32 32 30 30 27 26 28 26 27 28 30 31 32 34 42
29 26 37 34 27 27 28 61 81 82 73 76 79 88 79 75 72 71 72 72 67 60 54 47 52 50 43 42 39 37 37 32 26 24 22 17 20 26 26 23 18 18 20 18 17 19 18 22 29
32 30 33 35 35 30 31 31 26 43 58 76 69 69 74 76 77 72 60 50 46 48 48 44 26 24 26 29 28 15 10 11 11 11 11 10 9 9 8 8 8 8 9 12 11 12 17 20 19
36 34 37 36 32 33 32 32 28 22 25 28 29 26 27 27 26 23 21 15 14 14 13 12 11 10 10 9 8 9 8 7 6 5 5 5 5 5 5 5 6 6 7 8 7 6 6 8 13
34 42 44 46 43 46 45 38 34 32 30 23 19 17 18 17 18 17 15 15 14 13 13 13 11 10 9 7 7 6 7 6 6 6 6 6 5 5 6 6 6 7 8 9 6 6 5 5 7
43 44 46 50 51 58 60 57 63 39 34 34 28 24 25 25 20 18 16 14 17 17 14 11 10 9 8 8 7 7 6 6 5 4 4 4 4 5 5 6 6 8 7 11 8 6 5 5 6
41 38 39 47 58 67 68 61 63 54 48 42 49 52 43 36 24 15 18 23 19 13 11 10 9 8 8 6 6 5 5 4 4 4 4 3 4 4 4 4 4 5 6 7 9 7 5 5 6
39 36 38 43 46 48 52 61 80 75 73 59 55 51 40 33 23 22 18 16 14 12 10 10 9 8 7 8 8 8 8 7 6 5 4 4 3 3 4 4 4 4 5 5 6 7 6 6 6
39 37 39 38 38 45 48 52 58 58 58 54 50 48 42 35 26 18 18 14 12 12 13 12 12 12 14 16 16 13 10 8 7 5 5 4 4 4 4 4 4 4 4 4 5 6 6 6 6
39 34 32 33 36 39 43 42 42 42 42 41 43 41 36 31 26 18 17 16 16 22 27 28 26 28 25 23 18 15 11 9 7 6 5 5 5 5 5 5 5 5 4 4 5 5 6 5 5
35 32 31 33 36 37 37 36 36 43 43 41 41 36 25 24 34 32 37 48 50 46 44 35 36 33 35 30 28 25 24 22 17 10 8 8 8 8 8 8 8 8 8 8 7 6 6 6 6
33 32 32 32 34 36 39 42 41 41 34 25 32 38 45 55 55 56 57 47 40 39 41 38 34 27 28 32 37 37 34 30 29 29 25 21 14 11 10 10 10 10 10 10 10 10 10 9 8
31 31 33 37 38 39 38 36 38 41 47 50 48 54 55 54 56 48 40 38 41 45 45 42 41 43 47 49 50 48 46 43 40 38 35 31 28 26 24 23 21 19 15 14 13 12 11 11 11
35 37 39 41 39 42 50 52 55 59 54 48 49 50 50 49 47 45 46 49 50 50 51 58 62 65 67 66 63 59 52 51 55 53 48 46 48 47 44 42 39 39 36 30 28 30 27 18 14

GFSSGP_250_rhum_117.txt.gz
RH
41 35 33 33 28 26 25 21 23 20 20 17 16 17 17 21 26 36 43 82 67 69 63 49 39 24 19 18 17 21 44 73 76 79 67 74 72 58 52 85 97 94 96 95 95 100 100 100 100
41 40 37 35 35 33 31 29 28 25 22 20 18 17 18 19 24 25 29 63 74 56 23 18 17 20 18 18 20 22 25 28 44 59 55 46 43 48 40 52 76 85 79 92 100 100 97 94 100
40 42 40 42 39 38 36 33 32 31 28 24 22 20 20 20 20 22 24 22 18 17 17 18 18 16 33 24 41 31 28 38 34 35 39 28 27 34 36 52 62 64 79 86 80 75 78 88 89
40 43 46 47 46 41 42 37 34 33 33 30 25 27 25 20 20 19 18 17 17 18 20 21 21 20 42 33 25 22 27 34 46 46 63 55 36 30 30 32 44 76 85 93 92 90 76 65 74
41 47 51 50 50 46 43 42 40 39 36 35 32 30 34 28 26 25 23 23 23 26 28 26 29 32 33 44 34 33 28 38 48 55 65 76 68 78 80 88 96 99 92 87 79 79 82 81 77
62 50 46 51 49 57 47 42 49 47 43 40 41 37 36 40 37 34 31 32 31 33 34 35 39 40 40 41 41 42 38 37 36 48 51 86 100 100 100 100 100 100 100 89 77 80 75 72 72
80 65 60 47 48 51 58 55 60 64 48 44 43 45 44 41 42 42 40 40 40 38 40 40 40 42 41 44 43 41 42 37 34 39 39 55 73 79 87 90 100 100 100 100 100 99 85 95 74
99 75 65 62 56 49 51 70 85 82 66 60 47 37 44 48 45 44 46 44 44 46 45 45 44 43 43 44 44 46 50 55 55 49 45 38 33 41 52 48 55 63 76 83 90 94 100 94 99
98 93 79 73 60 61 51 49 78 84 96 80 66 53 40 43 43 46 47 46 47 48 48 48 50 49 48 49 51 51 51 52 54 56 59 59 59 55 50 49 46 36 40 48 59 65 76 80 77
84 86 96 94 78 62 54 42 39 52 58 82 88 78 65 57 56 47 44 51 52 49 48 50 52 52 53 55 53 54 57 56 55 55 52 49 50 55 69 69 63 62 62 58 53 51 46 50 61
78 82 84 82 84 72 59 52 44 41 41 47 55 78 87 75 67 69 66 50 42 53 62 63 60 63 65 64 63 65 66 71 70 70 73 78 72 65 72 64 67 72 70 70 70 69 73 62 54
69 70 82 83 74 76 73 61 50 44 41 42 44 51 61 90 97 95 94 94 83 77 74 76 84 85 83 87 86 78 72 71 82 93 79 80 84 78 73 76 82 80 70 77 80 80 77 79 74
65 60 56 70 67 65 67 71 59 48 40 38 35 39 44 49 65 72 86 96 99 100 100 97 97 99 98 97 97 92 87 87 77 77 84 85 87 90 92 85 87 95 90 94 86 78 81 83 86
49 52 52 53 54 55 55 58 59 57 50 46 40 40 44 45 47 62 75 85 94 90 92 91 94 99 100 99 99 89 78 82 78 74 73 66 62 55 49 57 70 81 90 97 90 77 77 80 68
40 46 47 44 47 50 49 56 59 58 61 57 64 69 67 64 62 59 56 65 76 72 65 66 78 86 87 92 86 75 63 53 46 40 49 54 50 47 43 42 47 47 42 49 56 56 53 58 63
29 33 37 40 41 43 44 48 54 59 61 68 72 68 77 74 64 64 60 54 55 50 53 54 54 59 63 63 61 59 57 53 45 43 38 33 33 34 34 33 35 36 37 35 38 45 45 44 50
23 23 27 32 35 37 36 34 42 53 59 68 80 86 82 80 74 65 64 58 63 63 66 64 54 53 66 64 53 50 47 45 38 34 31 31 28 29 30 27 25 21 22 26 26 26 28 34 32
24 26 26 27 32 28 27 25 32 49 82 89 91 92 87 78 65 74 85 84 85 87 77 71 71 68 62 61 59 53 46 38 36 34 30 28 25 21 21 19 18 16 14 16 14 14 19 22 23
23 22 25 24 25 24 25 23 32 51 45 34 30 24 19 27 50 61 67 65 60 56 54 52 51 53 48 44 43 41 35 28 19 16 14 13 9 7 7 7 7 7 6 6 8 8 9 9 10
22 25 27 29 29 31 29 29 30 30 31 30 24 20 19 20 20 20 20 19 18 18 18 19 22 25 21 16 14 13 12 10 7 7 7 7 7 7 6 6 6 6 6 7 7 7 8 8 6
22 27 30 31 31 35 32 32 28 26 24 23 24 25 26 28 27 26 24 23 19 18 16 14 14 13 12 11 9 8 8 8 8 7 7 6 6 6 6 6 6 6 6 7 8 8 6 9 10
29 29 28 27 34 38 33 28 31 35 34 38 40 42 44 47 46 36 36 28 24 19 18 16 16 14 10 10 10 9 8 8 8 7 6 5 5 4 4 4 4 5 5 6 6 8 8 8 10
38 37 36 35 39 42 38 34 40 44 56 69 70 56 55 59 55 38 26 23 26 30 27 20 18 16 14 13 12 11 9 8 7 7 6 7 6 5 5 5 5 4 4 5 5 5 6 7 8
38 38 40 42 43 45 53 46 43 33 36 43 41 39 38 41 42 42 33 34 31 28 23 17 14 13 13 12 12 15 16 17 16 13 12 10 8 7 6 5 5 5 6 6 6 5 5 5 6
42 42 43 42 44 42 38 35 35 36 36 39 47 53 58 57 51 42 35 32 27 21 18 14 16 23 31 32 35 30 28 26 24 20 15 12 9 8 8 7 6 5 5 5 6 7 7 7 6
45 45 44 44 42 37 35 34 34 34 38 40 46 44 41 39 38 38 38 32 24 24 25 27 30 30 40 40 34 36 33 29 26 24 22 18 14 12 9 8 8 8 8 8 8 8 9 8 8
48 45 44 42 39 35 33 31 31 35 38 38 40 43 43 43 41 31 30 36 42 44 46 43 38 42 42 45 38 34 34 35 36 33 28 25 24 22 18 14 11 9 8 8 8 9 10 10 10
46 44 42 38 36 32 31 33 34 36 39 40 39 33 30 34 42 49 48 41 44 43 43 44 45 42 38 34 35 38 38 37 32 30 31 31 30 29 29 27 25 22 20 18 16 17 17 17 17
42 38 37 35 33 34 35 37 35 32 28 35 43 50 52 51 47 44 44 43 42 41 41 41 40 39 40 46 51 50 46 41 42 40 39 36 33 32 30 29 29 29 29 28 26 25 23 21 20
38 36 34 36 34 35 29 33 46 51 50 47 47 46 46 46 45 45 44 43 42 43 44 43 45 52 55 54 53 54 55 52 48 49 45 41 37 33 32 32 31 31 30 28 27 27 27 26 26

GFSSGP_250_rhum_120.txt.gz
RH
41 56 56 77 47 29 28 26 23 20 18 17 17 18 19 18 17 15 14 16 21 30 32 73 74 61 63 45 31 20 18 24 39 33 52 78 78 69 60 55 64 66 56 69 82 92 92 90 92
40 41 53 47 32 30 31 32 30 26 23 22 22 21 21 20 18 15 15 16 19 23 27 62 67 65 20 17 22 20 27 26 31 44 33 34 48 65 58 44 40 40 38 52 71 79 86 95 95
41 38 34 34 38 34 35 36 35 34 31 29 28 26 24 22 21 19 18 17 19 20 26 32 22 19 19 16 21 33 24 28 42 40 49 53 70 64 60 40 32 35 38 50 56 60 72 67 70
38 41 36 34 41 40 37 36 36 37 35 32 29 33 31 25 26 25 20 18 20 18 17 18 20 20 25 32 24 30 30 24 28 35 43 55 65 90 92 64 60 48 39 40 61 84 82 88 83
36 34 39 35 39 42 41 41 40 40 41 36 32 34 36 34 28 30 31 30 29 24 24 25 28 28 26 31 30 31 26 30 32 30 25 45 57 58 69 73 95 100 100 96 91 85 77 74 76
48 40 37 41 43 41 42 43 47 44 44 43 38 39 38 36 34 34 38 37 36 33 31 31 32 32 31 34 36 35 37 37 39 42 45 38 34 39 78 100 100 100 100 100 99 88 78 90 80
54 44 46 48 42 43 46 51 52 49 46 44 43 50 48 41 42 43 39 41 41 40 39 37 36 36 37 37 38 39 41 43 42 44 51 45 46 48 46 54 74 84 89 94 99 99 87 79 83
100 70 57 54 70 59 51 51 52 50 50 51 47 50 63 58 46 42 45 45 43 46 46 44 44 44 44 44 44 44 42 42 45 47 48 52 56 56 56 52 46 40 58 56 60 68 70 73 73
100 96 89 80 91 87 73 67 53 52 52 50 53 60 75 81 67 59 51 42 42 44 46 47 48 48 49 49 49 50 50 50 51 51 49 51 53 53 54 53 51 47 54 57 60 56 51 64 69
100 100 100 100 99 98 88 80 71 65 58 54 56 55 73 85 73 70 67 66 58 54 50 45 47 52 52 52 50 52 53 56 58 59 61 63 64 64 69 69 67 64 64 62 66 61 64 73 69
95 100 100 100 97 97 96 94 83 68 65 58 55 54 53 56 67 63 68 78 83 79 70 67 65 61 51 48 55 64 69 74 76 76 74 71 70 72 68 70 69 65 55 57 63 65 62 54 57
85 91 100 100 91 85 89 93 90 87 88 81 67 58 52 47 46 45 51 72 65 75 96 91 87 83 86 82 74 74 80 78 78 76 73 72 65 63 55 51 60 73 72 66 62 60 61 64 66
83 68 82 96 99 90 82 73 72 80 88 84 76 68 63 56 47 43 42 44 51 55 59 78 91 90 88 84 80 86 85 82 85 85 80 84 85 77 70 74 68 60 62 63 61 58 69 74 76
86 77 70 83 80 85 93 79 74 76 83 85 76 71 76 74 65 54 47 43 40 39 41 48 50 58 67 70 87 92 93 94 96 94 91 95 93 95 90 73 63 61 64 56 55 55 57 54 58
72 73 75 71 72 69 74 80 77 73 69 82 79 66 63 60 62 61 58 53 51 46 46 47 44 44 48 50 51 51 53 59 57 58 65 73 75 74 65 58 50 56 57 51 40 41 42 38 48
54 61 70 66 62 57 54 50 59 57 57 59 58 58 55 50 53 57 60 62 62 59 58 55 63 60 62 60 55 51 51 50 51 48 42 34 35 37 36 35 35 32 29 28 28 25 27 31 33
46 46 52 55 56 53 46 41 38 39 45 45 43 46 48 49 53 60 59 62 59 64 67 74 69 61 52 46 52 61 62 53 51 44 42 39 36 31 27 24 26 25 24 23 21 25 26 28 30
36 38 37 35 33 33 30 30 28 28 30 35 37 38 37 31 31 42 56 70 70 62 54 42 37 37 42 49 49 47 48 45 42 38 34 30 24 22 20 18 16 15 15 14 9 8 12 13 12
19 22 22 22 20 21 21 26 26 26 24 22 25 22 20 18 17 28 30 24 18 19 21 19 20 21 21 22 24 26 22 20 20 21 20 18 15 10 8 6 6 6 7 7 7 7 7 8 8
18 17 17 18 18 18 20 22 27 26 25 22 20 19 21 22 21 19 20 22 24 23 21 22 22 20 19 19 18 16 14 12 10 10 10 9 9 8 8 7 7 7 7 7 7 7 7 8 9
17 17 18 18 19 19 20 21 23 26 26 24 20 22 26 28 28 29 30 32 35 33 26 22 19 16 15 15 13 12 11 11 10 9 8 9 8 8 6 5 5 5 5 5 5 5 6 6 7
18 19 19 17 19 20 20 21 25 25 23 25 35 39 42 37 33 34 36 39 34 24 27 26 21 21 20 16 17 15 13 13 12 12 11 10 9 8 6 5 5 5 5 5 4 4 4 5 6
25 26 26 26 26 24 23 20 27 33 31 36 46 39 37 36 40 50 50 38 32 28 31 31 28 26 24 24 23 20 15 12 12 12 14 15 15 13 12 11 10 8 7 6 6 6 6 5 6
32 35 34 32 31 34 37 32 45 43 38 35 36 39 40 35 36 34 35 37 36 33 31 29 29 27 21 16 13 15 25 35 29 28 26 24 24 24 21 18 15 10 8 6 6 6 6 6 7
41 42 42 41 41 42 40 39 44 42 42 42 40 38 35 36 33 34 33 32 32 30 30 26 21 20 26 33 42 48 51 43 40 35 32 31 29 26 24 22 20 18 14 10 8 6 6 6 7
45 47 49 46 43 44 44 45 43 43 40 38 34 33 32 32 32 30 30 30 33 28 24 30 38 44 44 45 44 43 42 40 36 32 30 29 28 26 25 23 22 22 22 20 17 14 11 10 9
55 55 53 51 47 47 46 45 42 39 36 34 32 29 29 29 29 32 33 28 40 48 47 42 39 42 43 47 54 54 43 37 33 32 31 31 31 28 26 25 24 22 20 20 19 18 17 17 19
52 56 56 52 51 50 46 40 37 37 35 31 29 29 32 32 31 40 46 48 45 42 41 44 48 55 57 56 50 41 32 32 35 41 41 38 35 32 31 29 28 26 25 25 24 24 23 22 21
50 54 55 53 50 44 39 35 35 32 30 31 30 30 36 41 45 45 47 47 48 50 53 54 50 46 42 38 35 37 39 48 55 57 53 55 54 52 53 46 40 36 31 26 22 18 17 16 17
50 51 51 49 38 34 35 32 32 30 37 47 46 46 46 46 46 42 40 41 42 41 39 42 37 39 38 40 46 58 71 72 76 76 72 72 77 73 78 75 71 66 61 56 50 42 33 24 19

GFSSGP_250_rhum_123.txt.gz
RH
94 90 82 85 73 55 47 56 75 60 36 24 20 16 15 18 16 16 17 16 17 16 18 20 33 31 42 72 73 63 49 24 18 18 18 39 64 62 46 98 100 84 68 66 73 80 54 69 88
76 69 65 49 38 36 53 70 73 42 29 24 21 19 20 21 21 21 19 17 17 18 18 21 23 28 46 56 51 29 20 24 25 45 34 36 47 61 46 44 52 74 81 58 41 47 46 49 58
44 41 36 32 33 37 52 63 46 32 28 27 25 25 26 28 28 25 22 22 19 18 18 17 16 18 20 19 20 20 25 36 28 20 25 34 43 51 52 62 70 79 62 38 34 35 41 55 54
41 40 37 35 39 43 53 45 33 30 30 28 29 32 32 30 33 33 28 26 27 25 28 22 19 19 21 23 28 34 25 24 26 30 32 31 31 40 49 64 80 84 81 60 66 74 70 76 80
51 40 40 38 41 39 37 37 37 34 32 31 31 34 34 33 34 36 35 31 31 33 32 34 28 27 28 27 26 25 28 28 26 27 34 42 50 78 75 54 40 60 83 86 86 84 84 94 86
57 49 44 44 41 41 37 36 39 38 37 36 36 35 37 37 37 41 40 37 34 36 39 38 39 37 36 34 32 32 32 32 34 33 35 41 46 49 51 69 91 95 94 92 99 100 96 88 85
76 77 52 46 45 37 40 39 37 40 42 41 42 44 41 42 41 46 46 42 42 43 42 41 43 45 44 43 43 42 41 42 43 42 43 44 45 46 48 52 54 57 68 77 77 78 80 81 86
83 86 73 57 51 52 41 38 42 43 43 46 51 52 49 49 45 44 53 60 50 45 43 45 44 42 45 47 48 48 49 49 48 48 48 48 49 51 53 55 56 56 58 60 66 66 72 74 69
90 92 100 95 78 66 51 46 43 41 43 44 48 52 53 48 46 47 49 53 65 71 67 64 53 46 44 45 46 47 49 51 52 53 52 52 53 55 56 55 57 60 58 59 57 58 52 66 84
100 96 100 100 99 82 74 53 51 54 64 68 54 52 51 53 51 49 53 53 50 61 62 56 55 61 64 64 61 54 55 54 50 49 54 55 59 63 66 64 58 54 55 56 55 47 53 56 62
100 100 100 100 100 100 87 74 72 62 61 77 84 79 72 68 62 60 60 57 56 54 52 48 50 60 61 60 59 65 67 65 66 68 67 63 64 63 69 68 64 68 64 68 65 52 42 35 38
100 100 100 100 100 100 100 100 90 83 86 83 87 88 80 68 65 68 70 63 61 58 58 56 53 50 49 48 48 53 61 61 59 64 64 65 70 68 65 64 68 67 64 69 62 63 63 65 62
100 100 100 100 100 100 100 100 100 98 99 98 89 78 80 86 88 88 85 77 72 68 67 63 55 51 47 45 46 47 46 50 51 56 60 65 67 71 70 63 66 69 74 74 78 79 74 76 70
100 100 100 97 98 98 100 100 100 100 100 96 85 76 73 71 76 78 79 78 71 65 66 64 64 64 60 56 53 51 50 54 53 50 49 49 50 50 52 57 57 54 51 57 67 72 83 86 74
100 100 99 93 89 84 81 93 100 98 98 95 97 92 79 74 68 65 68 71 72 70 62 58 54 54 54 50 50 50 49 51 44 46 52 52 50 43 41 44 45 43 40 36 38 41 42 49 58
100 100 100 100 96 93 83 79 85 84 74 78 85 87 95 88 74 71 71 63 59 55 55 56 55 53 48 47 47 52 55 57 56 46 39 35 33 31 33 40 40 39 32 28 24 25 28 29 30
100 100 100 100 100 96 88 80 68 62 62 60 63 58 59 52 46 44 48 47 44 41 41 40 39 39 44 52 51 42 38 36 32 25 22 20 20 20 21 20 16 15 15 13 15 16 16 17 22
100 100 100 100 96 89 86 80 68 57 60 66 65 57 47 36 31 27 24 26 29 26 24 21 18 19 20 23 22 19 19 18 17 16 14 12 11 11 10 9 9 9 8 6 6 7 7 7 7
72 86 84 76 70 64 59 57 52 49 48 45 42 33 23 18 18 20 18 18 17 17 20 20 19 20 20 18 17 16 17 16 14 14 13 12 11 10 10 10 9 9 8 6 6 7 7 7 7
39 43 49 52 48 45 46 45 43 41 38 34 27 24 21 20 19 21 21 22 22 25 25 21 19 20 22 24 24 22 20 18 15 13 12 13 13 12 11 11 11 10 8 6 5 5 5 5 5
30 33 36 39 38 33 31 33 34 31 26 22 19 19 21 24 25 25 26 29 25 22 24 26 26 29 28 28 26 24 23 22 22 19 16 15 15 14 12 10 9 8 7 5 5 5 5 5 4
25 27 28 26 24 23 23 23 20 20 19 19 19 20 21 24 28 30 29 23 22 25 29 31 32 29 30 30 29 29 28 27 25 23 19 16 14 14 14 15 16 16 17 13 10 9 8 7 6
19 21 23 23 22 19 20 20 20 18 20 21 22 27 28 28 30 24 27 25 27 32 34 32 30 29 30 29 30 29 27 21 18 17 18 21 24 28 26 27 25 24 23 20 16 12 10 9 7
16 16 17 20 20 20 21 20 25 26 26 28 30 30 27 23 26 30 28 32 34 33 31 28 28 29 28 27 24 23 27 28 31 32 35 36 37 35 33 29 28 27 26 23 22 20 17 13 9
22 23 23 23 22 24 25 28 37 39 34 34 31 31 30 28 30 35 36 30 29 27 27 28 28 25 26 35 42 38 38 39 40 41 39 37 36 32 29 28 28 28 26 25 24 23 21 20 18
29 28 28 30 34 40 38 40 39 39 40 39 36 34 37 39 36 31 28 26 26 27 27 23 32 40 43 40 41 43 43 41 40 38 39 36 36 39 36 35 33 31 29 26 27 26 26 25 23
33 35 42 46 45 46 43 43 45 43 41 40 40 39 35 32 28 27 27 27 26 30 38 41 43 43 43 43 40 40 42 42 40 42 40 40 39 40 40 40 35 34 32 30 28 27 25 23 22
39 46 47 48 51 52 51 49 49 47 46 42 34 31 29 29 29 28 34 38 38 39 40 43 44 40 39 45 46 48 48 52 51 56 56 60 60 60 60 56 55 58 59 58 52 48 44 42 41
52 51 52 54 55 54 53 52 48 38 34 32 31 31 32 38 44 41 38 37 37 40 43 47 44 47 48 48 51 60 65 64 63 63 69 72 72 73 71 72 72 68 64 62 58 57 56 53 50
53 56 54 49 47 51 47 40 36 34 31 31 39 44 43 40 37 39 42 48 50 51 51 56 62 62 69 67 72 80 77 75 80 81 80 70 70 70 75 81 80 74 71 69 59 55 51 51 48